[[{"header":{"parameterUnit":"m.s-1","parameterCategory":1,"la1":30.6,"la2":28.766,"lo1":-90.7593,"lo2":-88.6598,"dy":0.0162,"dx":0.0183,"nx":116,"ny":114,"refTime":"2023-06-07T18:00:00:Z","depth":0,"parameterNumber":2,"parameterNumberName":"U-component_of_WINDS"},"data":[0.0,0.0,0.0,0.0,0.0,0.0,0.0,0.0,0.0,0.0,0.0,0.0,0.0,0.0,0.0,0.0,0.0,0.0,0.0,0.0,0.0,0.0,0.0,0.0,0.0,0.0,0.0,0.0,0.0,0.0,0.0,0.0,0.0,0.0,0.0,0.0,0.0,0.0,0.0,0.0,0.0,0.0,0.0,0.0,0.0,0.0,0.0,0.0,0.0,0.0,0.0,0.0,0.0,0.0,0.0,0.0,0.0,0.0,0.0,0.0,0.0,0.0,0.0,0.0,0.0,0.0,0.0,0.0,0.0,0.0,0.0,0.0,0.0,0.0,0.0,0.0,0.0,0.0,0.0,0.0,0.0,0.0,0.0,0.0,0.0,0.0,0.0,0.0,0.0,0.0,0.0,0.0,0.0,0.0,0.0,0.0,0.0,0.0,0.0,0.0,0.0,0.0,0.0,0.0,0.0,0.0,0.0,0.0,0.0,0.0,0.0,0.0,0.0,0.0,0.0,0.0,0.0,0.0,0.0,0.0,0.0,0.0,0.0,0.0,0.0,0.0,0.0,0.0,0.0,0.0,0.0,0.0,0.0,0.0,0.0,0.0,0.0,0.0,0.0,0.0,0.0,0.0,0.0,0.0,0.0,0.0,0.0,0.0,0.0,0.0,0.0,0.0,0.0,0.0,0.0,0.0,0.0,0.0,0.0,0.0,0.0,0.0,0.0,0.0,0.0,0.0,0.0,0.0,0.0,0.0,0.0,0.0,0.0,0.0,0.0,0.0,0.0,0.0,0.0,0.0,0.0,0.0,0.0,0.0,0.0,0.0,0.0,0.0,0.0,0.0,0.0,0.0,0.0,0.0,0.0,0.0,0.0,0.0,0.0,0.0,0.0,0.0,0.0,0.0,0.0,0.0,0.0,0.0,0.0,0.0,0.0,0.0,0.0,0.0,0.0,0.0,0.0,0.0,0.0,0.0,0.0,0.0,0.0,0.0,0.0,0.0,0.0,0.0,0.0,0.0,0.0,0.0,0.0,0.0,0.0,0.0,0.0,0.0,0.0,0.0,0.0,0.0,0.0,0.0,0.0,0.0,0.0,0.0,0.0,0.0,0.0,0.0,0.0,0.0,0.0,0.0,0.0,0.0,0.0,0.0,0.0,0.0,0.0,0.0,0.0,0.0,0.0,0.0,0.0,0.0,0.0,0.0,0.0,0.0,0.0,0.0,0.0,0.0,0.0,0.0,0.0,0.0,0.0,0.0,0.0,0.0,0.0,0.0,0.0,0.0,0.0,0.0,0.0,0.0,0.0,0.0,0.0,0.0,0.0,0.0,0.0,0.0,0.0,0.0,0.0,0.0,0.0,0.0,0.0,0.0,0.0,0.0,0.0,0.0,0.0,0.0,0.0,0.0,0.0,0.0,0.0,0.0,0.0,0.0,0.0,0.0,0.0,0.0,0.0,0.0,0.0,0.0,0.0,0.0,0.0,0.0,0.0,0.0,0.0,0.0,0.0,0.0,0.0,0.0,0.0,0.0,0.0,0.0,0.0,0.0,0.0,0.0,0.0,0.0,0.0,0.0,0.0,0.0,0.0,0.0,0.0,0.0,0.0,0.0,0.0,0.0,0.0,0.0,0.0,0.0,0.0,0.0,0.0,0.0,0.0,0.0,0.0,0.0,0.0,0.0,0.0,0.0,0.0,0.0,0.0,0.0,0.0,0.0,0.0,0.0,0.0,0.0,0.0,0.0,0.0,0.0,0.0,0.0,0.0,0.0,0.0,0.0,0.0,0.0,0.0,0.0,0.0,0.0,0.0,0.0,0.0,0.0,0.0,0.0,0.0,0.0,0.0,0.0,0.0,0.0,0.0,0.0,0.0,0.0,0.0,0.0,0.0,0.0,0.0,0.0,0.0,0.0,0.0,0.0,0.0,0.0,0.0,0.0,0.0,0.0,0.0,0.0,0.0,0.0,0.0,0.0,0.0,0.0,0.0,0.0,0.0,0.0,0.0,0.0,0.0,0.0,0.0,0.0,0.0,0.0,0.0,0.0,0.0,0.0,0.0,0.0,0.0,0.0,0.0,0.0,0.0,0.0,0.0,0.0,0.0,0.0,0.0,0.0,0.0,0.0,0.0,0.0,0.0,0.0,0.0,0.0,0.0,0.0,0.0,0.0,0.0,0.0,0.0,0.0,0.0,0.0,0.0,0.0,0.0,0.0,0.0,0.0,0.0,0.0,0.0,0.0,0.0,0.0,0.0,0.0,0.0,0.0,0.0,0.0,0.0,0.0,0.0,0.0,0.0,0.0,0.0,0.0,0.0,0.0,0.0,0.0,0.0,0.0,0.0,0.0,0.0,0.0,0.0,0.0,0.0,0.0,0.0,0.0,0.0,0.0,0.0,0.0,0.0,0.0,0.0,0.0,0.0,0.0,0.0,0.0,0.0,0.0,0.0,0.0,0.0,0.0,0.0,0.0,0.0,0.0,0.0,0.0,0.0,0.0,0.0,0.0,0.0,0.0,0.0,0.0,0.0,0.0,0.0,0.0,0.0,0.0,0.0,0.0,0.0,0.0,0.0,0.0,0.0,0.0,0.0,0.0,0.0,0.0,0.0,0.0,0.0,0.0,0.0,0.0,0.0,0.0,0.0,0.0,0.0,0.0,0.0,0.0,0.0,0.0,0.0,0.0,0.0,0.0,0.0,0.0,0.0,0.0,0.0,0.0,0.0,0.0,0.0,0.0,0.0,0.0,0.0,0.0,0.0,0.0,0.0,0.0,0.0,0.0,0.0,0.0,0.0,0.0,0.0,0.0,0.0,0.0,0.0,0.0,0.0,0.0,0.0,0.0,0.0,0.0,0.0,0.0,0.0,0.0,0.0,0.0,0.0,0.0,0.0,0.0,0.0,0.0,0.0,0.0,0.0,0.0,0.0,0.0,0.0,0.0,0.0,0.0,0.0,0.0,0.0,0.0,0.0,0.0,0.0,0.0,0.0,0.0,0.0,0.0,0.0,0.0,0.0,0.0,0.0,0.0,0.0,0.0,0.0,0.0,0.0,0.0,0.0,0.0,0.0,0.0,0.0,0.0,0.0,0.0,0.0,0.0,0.0,0.0,0.0,0.0,0.0,0.0,0.0,0.0,0.0,0.0,0.0,0.0,0.0,0.0,0.0,0.0,0.0,0.0,0.0,0.0,0.0,0.0,0.0,0.0,0.0,0.0,0.0,0.0,0.0,0.0,0.0,0.0,0.0,0.0,0.0,0.0,0.0,0.0,0.0,0.0,0.0,0.0,0.0,0.0,0.0,0.0,0.0,0.0,0.0,0.0,0.0,0.0,0.0,0.0,0.0,0.0,0.0,0.0,0.0,0.0,0.0,0.0,0.0,0.0,0.0,0.0,0.0,0.0,0.0,0.0,0.0,0.0,0.0,0.0,0.0,0.0,0.0,0.0,0.0,0.0,0.0,0.0,0.0,0.0,0.0,0.0,0.0,0.0,0.0,0.0,0.0,0.0,0.0,0.0,0.0,0.0,0.0,0.0,0.0,0.0,0.0,0.0,0.0,0.0,0.0,0.0,0.0,0.0,0.0,0.0,0.0,0.0,0.0,0.0,0.0,0.0,0.0,0.0,0.0,0.0,0.0,0.0,0.0,0.0,0.0,0.0,0.0,0.0,0.0,0.0,0.0,0.0,0.0,0.0,0.0,0.0,0.0,0.0,0.0,0.0,0.0,0.0,0.0,0.0,0.0,0.0,0.0,0.0,0.0,0.0,0.0,0.0,0.0,0.0,0.0,0.0,0.0,0.0,0.0,0.0,0.0,0.0,0.0,0.0,0.0,0.0,0.0,0.0,0.0,0.0,0.0,0.0,0.0,0.0,0.0,0.0,0.0,0.0,0.0,0.0,0.0,0.0,0.0,0.0,0.0,0.0,0.0,0.0,0.0,0.0,0.0,0.0,0.0,0.0,0.0,0.0,0.0,0.0,0.0,0.0,0.0,0.0,0.0,0.0,0.0,0.0,0.0,0.0,0.0,0.0,0.0,0.0,0.0,0.0,0.0,0.0,0.0,0.0,0.0,0.0,0.0,0.0,0.0,0.0,0.0,0.0,0.0,0.0,0.0,0.0,0.0,0.0,0.0,0.0,0.0,0.0,0.0,0.0,0.0,0.0,0.0,0.0,0.0,0.0,0.0,0.0,0.0,0.0,0.0,0.0,0.0,0.0,0.0,0.0,0.0,0.0,0.0,0.0,0.0,0.0,0.0,0.0,0.0,0.0,0.0,0.0,0.0,0.0,0.0,0.0,0.0,0.0,0.0,0.0,0.0,0.0,0.0,0.0,0.0,0.0,0.0,0.0,0.0,0.0,0.0,0.0,0.0,0.0,0.0,0.0,0.0,0.0,0.0,0.0,0.0,0.0,0.0,0.0,0.0,0.0,0.0,0.0,0.0,0.0,0.0,0.0,0.0,0.0,0.0,0.0,0.0,0.0,0.0,0.0,0.0,0.0,0.0,0.0,0.0,0.0,0.0,0.0,0.0,0.0,0.0,0.0,0.0,0.0,0.0,0.0,0.0,0.0,0.0,0.0,0.0,0.0,0.0,0.0,0.0,0.0,0.0,0.0,0.0,0.0,0.0,0.0,0.0,0.0,0.0,0.0,0.0,0.0,0.0,0.0,0.0,0.0,0.0,0.0,0.0,0.0,0.0,0.0,0.0,0.0,0.0,0.0,0.0,0.0,0.0,0.0,0.0,0.0,0.0,0.0,0.0,0.0,0.0,0.0,0.0,0.0,0.0,0.0,0.0,0.0,0.0,0.0,0.0,0.0,0.0,0.0,0.0,0.0,0.0,0.0,0.0,0.0,0.0,0.0,0.0,0.0,0.0,0.0,0.0,0.0,0.0,0.0,0.0,0.0,0.0,0.0,0.0,0.0,0.0,0.0,0.0,0.0,0.0,0.0,0.0,0.0,0.0,0.0,0.0,0.0,0.0,0.0,0.0,0.0,0.0,0.0,0.0,0.0,0.0,0.0,0.0,0.0,0.0,0.0,0.0,0.0,0.0,0.0,0.0,0.0,0.0,0.0,0.0,0.0,0.0,0.0,0.0,0.0,0.0,0.0,0.0,0.0,0.0,0.0,0.0,0.0,0.0,0.0,0.0,0.0,0.0,0.0,0.0,0.0,0.0,0.0,0.0,0.0,0.0,0.0,0.0,0.0,0.0,0.0,0.0,0.0,0.0,0.0,0.0,0.0,0.0,0.0,0.0,0.0,0.0,0.0,0.0,0.0,0.0,0.0,0.0,0.0,0.0,0.0,0.0,0.0,0.0,0.0,0.0,0.0,0.0,0.0,0.0,0.0,0.0,0.0,0.0,0.0,0.0,0.0,0.0,0.0,0.0,0.0,0.0,0.0,0.0,0.0,0.0,0.0,0.0,0.0,0.0,0.0,0.0,0.0,0.0,0.0,0.0,0.0,0.0,0.0,0.0,0.0,0.0,0.0,0.0,0.0,0.0,0.0,0.0,0.0,0.0,0.0,0.0,0.0,0.0,0.0,0.0,0.0,0.0,0.0,0.0,0.0,0.0,0.0,0.0,0.0,0.0,0.0,0.0,0.0,0.0,0.0,0.0,0.0,0.0,0.0,0.0,0.0,0.0,0.0,0.0,0.0,0.0,0.0,0.0,0.0,0.0,0.0,0.0,0.0,0.0,0.0,0.0,0.0,0.0,0.0,0.0,0.0,0.0,0.0,0.0,0.0,0.0,0.0,0.0,0.0,0.0,0.0,0.0,0.0,0.0,0.0,0.0,0.0,0.0,0.0,0.0,0.0,0.0,0.0,0.0,0.0,0.0,0.0,0.0,0.0,0.0,0.0,0.0,0.0,0.0,0.0,0.0,0.0,0.0,0.0,0.0,0.0,0.0,0.0,0.0,0.0,0.0,0.0,0.0,0.0,0.0,0.0,0.0,0.0,0.0,0.0,0.0,0.0,0.0,0.0,0.0,0.0,0.0,0.0,0.0,0.0,0.0,0.0,0.0,0.0,0.0,0.0,0.0,0.0,0.0,0.0,0.0,0.0,0.0,0.0,0.0,0.0,0.0,0.0,0.0,0.0,0.0,0.0,-2.5293,0.0,0.0,0.0,0.0,0.0,0.0,0.0,0.0,0.0,0.0,0.0,0.0,0.0,0.0,0.0,0.0,0.0,0.0,0.0,0.0,0.0,0.0,0.0,0.0,0.0,0.0,0.0,0.0,0.0,0.0,0.0,0.0,0.0,0.0,0.0,0.0,0.0,0.0,0.0,0.0,0.0,0.0,0.0,0.0,0.0,0.0,0.0,0.0,0.0,0.0,0.0,0.0,0.0,0.0,0.0,0.0,0.0,0.0,0.0,0.0,0.0,0.0,0.0,0.0,0.0,0.0,0.0,0.0,0.0,0.0,0.0,0.0,0.0,0.0,0.0,0.0,0.0,0.0,0.0,0.0,0.0,0.0,0.0,0.0,0.0,0.0,0.0,0.0,0.0,0.0,0.0,0.0,0.0,0.0,0.0,0.0,0.0,0.0,0.0,0.0,0.0,0.0,0.0,0.0,0.0,0.0,0.0,0.0,0.0,0.0,0.0,0.0,0.0,0.0,0.0,0.0,-2.6278,0.0,0.0,0.0,0.0,0.0,0.0,0.0,0.0,0.0,0.0,0.0,0.0,0.0,0.0,0.0,0.0,0.0,0.0,0.0,0.0,0.0,0.0,0.0,0.0,0.0,0.0,0.0,0.0,0.0,0.0,0.0,0.0,0.0,0.0,0.0,0.0,0.0,0.0,0.0,0.0,0.0,0.0,0.0,0.0,0.0,0.0,0.0,0.0,0.0,0.0,0.0,0.0,0.0,0.0,0.0,0.0,0.0,0.0,0.0,0.0,0.0,0.0,0.0,0.0,0.0,0.0,0.0,0.0,0.0,0.0,0.0,0.0,0.0,0.0,0.0,0.0,0.0,0.0,0.0,0.0,0.0,0.0,0.0,0.0,0.0,0.0,0.0,0.0,0.0,0.0,0.0,0.0,0.0,0.0,0.0,0.0,0.0,0.0,0.0,0.0,0.0,0.0,0.0,0.0,0.0,0.0,0.0,0.0,-2.5338,-2.5862,-2.5862,-2.6567,-2.7119,-2.7509,-2.7943,-2.7682,-2.6824,-2.6219,0.0,0.0,0.0,0.0,0.0,0.0,0.0,0.0,0.0,0.0,0.0,0.0,0.0,0.0,0.0,0.0,0.0,0.0,0.0,0.0,0.0,0.0,0.0,0.0,0.0,0.0,0.0,0.0,0.0,0.0,0.0,0.0,0.0,0.0,0.0,0.0,0.0,0.0,-2.1354,-2.2069,-2.182,-2.0848,-2.009,0.0,0.0,0.0,0.0,0.0,0.0,0.0,0.0,0.0,0.0,0.0,0.0,0.0,0.0,0.0,0.0,0.0,0.0,0.0,0.0,0.0,0.0,0.0,0.0,0.0,0.0,0.0,0.0,0.0,0.0,0.0,0.0,0.0,0.0,0.0,0.0,0.0,0.0,0.0,0.0,0.0,0.0,0.0,-2.0846,-2.0717,0.0,0.0,0.0,0.0,0.0,0.0,0.0,0.0,0.0,0.0,0.0,0.0,0.0,-2.3788,-2.3978,-2.512,-2.5752,-2.5763,-2.727,-2.7998,-2.802,-2.8326,-2.8545,-2.8611,-2.8677,0.0,-2.7068,-2.5987,0.0,0.0,0.0,0.0,0.0,0.0,0.0,0.0,0.0,0.0,0.0,0.0,0.0,0.0,0.0,0.0,0.0,0.0,0.0,0.0,0.0,0.0,0.0,0.0,0.0,0.0,0.0,0.0,0.0,0.0,0.0,0.0,0.0,0.0,0.0,0.0,-2.2841,-2.3461,-2.3379,-2.3684,-2.3471,-2.2746,-2.2418,-2.097,-1.8724,-1.7794,0.0,0.0,0.0,0.0,0.0,0.0,0.0,0.0,0.0,0.0,0.0,0.0,0.0,0.0,0.0,0.0,0.0,0.0,0.0,0.0,0.0,0.0,0.0,0.0,0.0,0.0,0.0,0.0,0.0,0.0,0.0,0.0,0.0,0.0,0.0,0.0,0.0,0.0,0.0,-2.0787,-2.0916,-2.0815,-2.0638,-2.0365,0.0,0.0,0.0,0.0,0.0,0.0,0.0,0.0,0.0,-2.4785,-2.5168,-2.5708,-2.6469,-2.7198,-2.7571,-2.7581,-2.8289,-2.8635,-2.8646,-2.8762,-2.8803,-2.8803,-2.8803,-2.8534,-2.8043,-2.7071,-2.6501,-2.6144,0.0,0.0,0.0,0.0,-2.5115,-2.5155,0.0,0.0,0.0,0.0,0.0,0.0,0.0,0.0,0.0,0.0,0.0,0.0,0.0,0.0,0.0,-1.8468,0.0,0.0,0.0,0.0,0.0,0.0,0.0,0.0,0.0,0.0,0.0,0.0,-2.4042,-2.4734,-2.4903,-2.5073,-2.4765,-2.4059,-2.4059,-2.2443,-1.9657,-1.8668,-1.7828,0.0,0.0,0.0,0.0,0.0,0.0,0.0,0.0,0.0,0.0,0.0,0.0,0.0,0.0,0.0,0.0,0.0,0.0,0.0,0.0,0.0,0.0,0.0,0.0,0.0,0.0,0.0,0.0,0.0,0.0,0.0,0.0,0.0,0.0,0.0,0.0,0.0,0.0,-2.1151,-2.1268,-2.1055,-2.1206,-2.1165,0.0,0.0,0.0,0.0,0.0,0.0,-2.3903,-2.4446,-2.5303,-2.6463,-2.6856,-2.75,-2.8472,-2.8721,-2.8803,-2.8803,-2.8803,-2.8803,-2.8803,-2.8803,-2.8803,-2.8803,-2.8803,-2.8803,-2.8727,-2.7887,-2.7446,-2.7231,-2.6599,-2.6407,-2.649,-2.6282,-2.624,-2.6282,0.0,0.0,0.0,0.0,0.0,0.0,0.0,0.0,0.0,0.0,0.0,0.0,0.0,0.0,-1.9594,-2.0032,-2.0129,-1.9849,0.0,0.0,0.0,0.0,0.0,0.0,0.0,0.0,0.0,-2.2075,-2.4576,-2.5485,-2.4903,-2.5549,-2.5506,-2.4861,-2.4861,-2.3855,-2.2137,-2.1234,-2.0261,-1.9273,0.0,0.0,0.0,0.0,0.0,0.0,0.0,0.0,0.0,0.0,0.0,0.0,0.0,0.0,0.0,0.0,0.0,0.0,0.0,0.0,0.0,0.0,0.0,0.0,0.0,0.0,0.0,0.0,0.0,0.0,0.0,0.0,0.0,0.0,0.0,0.0,0.0,0.0,0.0,-2.1768,-2.2761,0.0,0.0,0.0,0.0,-2.3841,-2.4307,-2.4835,-2.5556,-2.6375,-2.7144,-2.788,-2.8383,-2.8691,-2.8771,-2.8792,-2.8803,-2.8803,-2.8803,-2.8803,-2.8803,-2.8803,-2.8803,-2.8803,-2.8803,-2.8803,-2.8727,-2.7708,-2.7426,-2.7447,-2.6352,-2.6146,-2.649,-2.6282,-2.6324,-2.6448,0.0,0.0,0.0,0.0,0.0,0.0,0.0,0.0,0.0,0.0,0.0,0.0,0.0,-1.9518,-2.0591,-2.0756,-2.1044,-2.095,-2.0327,0.0,0.0,0.0,0.0,0.0,0.0,0.0,-2.2575,-2.4305,-2.5072,-2.5031,-2.4198,-2.4456,-2.394,-2.2818,-2.2818,-2.2524,-2.1906,-2.14,-2.0671,-1.9729,-1.7969,-1.6949,0.0,0.0,0.0,0.0,0.0,0.0,0.0,0.0,0.0,0.0,0.0,0.0,0.0,0.0,0.0,0.0,0.0,0.0,0.0,0.0,0.0,0.0,0.0,0.0,0.0,0.0,0.0,0.0,0.0,0.0,0.0,0.0,0.0,0.0,0.0,0.0,0.0,-2.4055,-2.4465,0.0,-2.4052,-2.4702,-2.5155,-2.5107,-2.6315,-2.7076,-2.7166,-2.7815,-2.8264,-2.8506,-2.8716,-2.8803,-2.8803,-2.8803,-2.8957,-2.9274,-2.9274,-2.939,-2.9696,-2.9696,-2.9696,-2.9696,-2.9696,-2.9696,-2.9663,-2.9314,-2.8858,-2.8347,-2.7917,-2.7865,-2.7965,-2.792,-2.792,-2.7965,0.0,0.0,0.0,0.0,0.0,0.0,0.0,0.0,0.0,0.0,0.0,-1.8862,-1.891,-2.0355,-2.1352,-2.1352,-2.1631,-2.1484,-2.0692,0.0,0.0,0.0,0.0,0.0,0.0,-2.2402,-2.3608,-2.5601,-2.5506,-2.5115,-2.4498,-2.4456,-2.3897,-2.2994,-2.2775,-2.252,-2.2271,-2.1964,-2.1258,-2.0216,-1.8842,-1.7829,-1.7035,0.0,0.0,0.0,0.0,0.0,0.0,0.0,0.0,0.0,0.0,0.0,0.0,0.0,0.0,0.0,0.0,0.0,0.0,0.0,0.0,0.0,0.0,0.0,0.0,0.0,0.0,0.0,0.0,0.0,0.0,0.0,0.0,0.0,0.0,0.0,-2.5394,-2.5331,-2.5701,-2.5797,-2.5433,-2.6271,-2.6799,-2.6728,-2.7882,-2.8481,-2.8276,-2.8628,-2.8803,-2.8803,-2.8957,-2.9044,-2.9044,-2.9208,-2.9412,-2.9729,-2.9729,-2.9904,-3.0209,-3.0209,-3.0209,-3.0209,-3.0209,-3.0209,-3.0209,-3.0209,-2.9827,-2.9296,-2.9296,-2.9296,-2.9296,-2.9296,-2.9296,-2.9296,0.0,0.0,0.0,0.0,0.0,0.0,0.0,0.0,0.0,0.0,-1.9078,-2.0075,-2.081,-2.1415,-2.1807,-2.1807,-2.1807,-2.135,-2.0283,-2.0211,0.0,0.0,0.0,0.0,-2.2696,-2.3335,-2.4307,-2.5612,-2.577,-2.5895,-2.5853,-2.5686,-2.5559,-2.5517,-2.4807,-2.4122,-2.3503,-2.3013,-2.2122,-2.0926,-1.9722,-1.8981,-1.8445,0.0,0.0,0.0,0.0,0.0,0.0,0.0,0.0,0.0,0.0,0.0,0.0,0.0,0.0,0.0,0.0,0.0,0.0,0.0,0.0,0.0,0.0,0.0,0.0,0.0,0.0,0.0,0.0,0.0,0.0,0.0,0.0,0.0,-2.414,-2.5133,-2.5847,-2.5432,-2.6518,-2.7193,-2.7077,-2.7887,-2.8505,-2.8771,-2.8803,-2.8814,-2.8825,-2.8825,-2.8825,-2.8847,-2.9259,-2.95,-2.95,-2.9969,-3.022,-3.0231,-3.0231,-3.0242,-3.0253,-3.0253,-3.0253,-3.0253,-3.0253,-3.0253,-3.0253,-3.0253,-3.0253,-3.0253,-3.022,-3.0209,-3.0209,-3.0209,-3.0209,-3.0209,0.0,0.0,0.0,0.0,0.0,0.0,0.0,0.0,0.0,0.0,-1.8926,-1.9951,-2.0334,-2.123,-2.1807,-2.1807,-2.1807,-2.1521,-2.0896,0.0,0.0,0.0,0.0,0.0,-2.3041,-2.4167,-2.4945,-2.5295,-2.5559,-2.5517,-2.5168,-2.5126,-2.4818,-2.4284,-2.4059,-2.3887,-2.3724,-2.3594,-2.2624,-2.1186,-2.0713,-1.9913,-1.8965,0.0,0.0,0.0,0.0,0.0,0.0,0.0,0.0,0.0,0.0,0.0,0.0,0.0,0.0,0.0,0.0,0.0,0.0,0.0,0.0,0.0,0.0,0.0,0.0,0.0,0.0,0.0,0.0,0.0,0.0,0.0,0.0,-2.6531,-2.617,-2.7062,-2.7758,-2.7825,-2.8139,-2.8364,-2.8318,-2.856,-2.8707,-2.8792,-2.8803,-2.8957,-2.9318,-2.9328,-2.9445,-2.9794,-2.9936,-3.0013,-3.0013,-3.0144,-3.0373,-3.0712,-3.0712,-3.0898,-3.1236,-3.1236,-3.1236,-3.1236,-3.1236,-3.1236,-3.1236,-3.1236,-3.1236,-3.1171,-3.0482,-3.0209,-3.0209,-3.0209,-3.0209,-3.0209,0.0,0.0,0.0,0.0,0.0,0.0,0.0,0.0,0.0,0.0,-1.9114,-2.0079,-2.0781,-2.1411,-2.1807,-2.1807,-2.1566,-2.1219,-2.0756,0.0,0.0,0.0,0.0,0.0,0.0,-2.4924,-2.538,-2.538,-2.5601,-2.5601,-2.5338,-2.5211,-2.4946,-2.4541,-2.4231,-2.4102,-2.4059,-2.3877,-2.3226,-2.235,-2.2148,-2.0977,-1.9393,-1.9176,-1.8735,-1.8179,-1.8071,-1.8121,-1.8186,-1.7484,0.0,0.0,0.0,0.0,0.0,0.0,0.0,0.0,0.0,0.0,0.0,0.0,0.0,0.0,0.0,0.0,0.0,0.0,0.0,0.0,0.0,0.0,0.0,0.0,-2.6636,-2.7497,-2.7747,-2.8204,-2.8646,-2.8771,-2.8803,-2.8803,-2.8803,-2.8803,-2.8891,-2.9088,-2.911,-2.9318,-2.9762,-2.9784,-2.9925,-3.0209,-3.0395,-3.0493,-3.0493,-3.0908,-3.1258,-3.152,-3.1717,-3.1946,-3.223,-3.223,-3.223,-3.223,-3.223,-3.223,-3.223,-3.223,-3.211,0.0,0.0,0.0,0.0,0.0,-3.081,-3.081,0.0,0.0,0.0,0.0,0.0,0.0,0.0,0.0,0.0,0.0,0.0,-2.0321,-2.1652,-2.1807,-2.1807,-2.1807,-2.1295,-2.0794,0.0,0.0,0.0,0.0,0.0,0.0,0.0,-2.5517,-2.5601,-2.5601,-2.5822,-2.5895,-2.5895,-2.5728,-2.5644,-2.5601,-2.4935,-2.4669,-2.4627,-2.4231,-2.3973,-2.3844,-2.3701,-2.2161,-1.9928,-1.9787,-1.98,-1.9806,-1.9187,-1.9005,-1.8962,-1.8374,0.0,0.0,0.0,0.0,0.0,0.0,0.0,0.0,0.0,0.0,0.0,0.0,0.0,0.0,0.0,0.0,0.0,0.0,0.0,0.0,0.0,0.0,0.0,0.0,-2.7233,-2.8231,-2.8738,-2.8803,-2.8803,-2.8803,-2.8803,-2.8825,-2.888,-2.888,-2.9088,-2.9532,-2.9565,-2.9773,-3.0264,0.0,0.0,0.0,0.0,-3.1138,-3.1138,-3.2022,-3.2459,-3.2459,-3.2874,-3.3124,-3.3124,-3.3124,-3.3124,-3.3124,-3.3124,-3.3124,-3.3124,-3.3124,-3.2831,-3.2405,-3.1848,-3.1618,-3.1618,-3.1618,-3.1618,-3.1618,0.0,0.0,0.0,0.0,0.0,0.0,0.0,0.0,0.0,-1.8922,-1.9502,-2.0321,-2.1652,-2.1807,-2.1807,-2.1807,-2.1535,-2.1301,0.0,0.0,0.0,0.0,0.0,0.0,0.0,0.0,-2.577,-2.5601,-2.5822,-2.5895,-2.5895,-2.5864,-2.5853,-2.5853,-2.5686,-2.5633,-2.5633,-2.5549,-2.4925,-2.4092,-2.4466,-2.3404,-2.1575,-2.1771,-2.1715,-2.15,-2.1219,-2.1493,-2.1745,-2.0281,-1.9571,-1.9117,-1.8099,0.0,0.0,0.0,0.0,0.0,0.0,0.0,0.0,0.0,0.0,0.0,0.0,0.0,0.0,0.0,0.0,0.0,0.0,0.0,0.0,-2.7327,-2.8012,-2.8426,-2.8735,-2.8803,-2.8803,-2.8803,-2.8803,-2.8957,-2.935,-2.9347,-2.9543,-3.0035,-3.0067,-3.0275,-3.0734,-3.1138,-3.1542,-3.1946,-3.2405,-3.2645,-3.2645,-3.2895,-3.2929,-3.2993,0.0,0.0,-3.3124,-3.3124,-3.3124,-3.3124,-3.3124,-3.3124,-3.3124,-3.3124,-3.307,-3.2842,-3.1968,-3.1618,-3.1618,-3.1618,-3.1618,-3.1618,0.0,0.0,0.0,0.0,0.0,0.0,0.0,0.0,0.0,0.0,-1.8798,-1.9373,-2.0431,-2.0722,-2.0763,-2.0585,-2.0937,0.0,0.0,0.0,0.0,0.0,0.0,0.0,0.0,0.0,0.0,-2.5728,-2.5853,-2.5895,-2.5895,-2.5895,-2.5895,-2.5895,-2.5895,-2.5895,-2.5895,-2.5895,-2.5549,-2.502,-2.5168,-2.4551,-2.34,-2.2828,-2.252,-2.2378,-2.2309,-2.2495,-2.2589,-2.121,-2.0926,-2.0863,-1.9459,-1.9082,-1.9101,0.0,0.0,0.0,0.0,0.0,0.0,0.0,0.0,0.0,0.0,0.0,0.0,0.0,0.0,-2.3951,0.0,0.0,-2.6454,-2.7654,-2.8058,-2.8337,-2.8757,-2.9011,-2.9164,-2.9164,-2.9164,-2.9314,-2.9794,-2.9849,-3.0046,-3.0526,-3.0777,-3.1127,-3.1607,-3.2088,-3.2459,-3.2721,-3.3004,-3.3124,-3.3124,-3.3311,-3.3431,-3.3431,-3.3683,-3.3792,-3.3792,-3.3792,-3.3792,-3.3792,-3.3792,-3.3792,-3.377,-3.353,-3.3431,-3.3355,-3.2634,-3.235,-3.235,-3.235,-3.235,-3.235,0.0,0.0,0.0,0.0,0.0,0.0,0.0,0.0,0.0,0.0,0.0,-1.8316,-1.9178,-1.9561,-1.9651,0.0,0.0,0.0,0.0,0.0,0.0,0.0,0.0,0.0,0.0,0.0,0.0,0.0,-2.5895,-2.5895,-2.5895,-2.5895,-2.5895,-2.5895,-2.5895,-2.5895,-2.5895,-2.5895,-2.5895,-2.5906,-2.5728,-2.5433,-2.4946,-2.3701,-2.3101,-2.2969,-2.2847,-2.2833,-2.2766,-2.1898,-2.2101,-2.248,-2.1116,-2.0867,-2.0946,-2.0518,-2.0689,0.0,0.0,0.0,0.0,0.0,0.0,0.0,0.0,0.0,-2.3504,-2.4444,-2.5316,-2.607,-2.654,-2.6897,-2.726,-2.7774,-2.7932,-2.8218,-2.883,-2.9237,-2.9554,-2.974,-2.9674,-2.9816,-3.0297,-3.0341,-3.0581,-3.1149,-3.1553,-3.199,-3.2492,-3.2951,-3.3256,-3.3256,-3.33,-3.3355,-3.3355,-3.3737,-3.3934,-3.3945,-3.4338,-3.4524,-3.4524,-3.4524,-3.4524,-3.4524,-3.4524,-3.4524,-3.4491,-3.4098,-3.3934,-3.3901,-3.3508,-3.3355,-3.3322,-3.319,-3.3124,-3.3124,0.0,0.0,0.0,0.0,0.0,0.0,0.0,0.0,0.0,0.0,0.0,0.0,0.0,0.0,0.0,0.0,0.0,0.0,0.0,0.0,0.0,0.0,0.0,0.0,0.0,0.0,0.0,0.0,-2.5895,-2.5895,-2.5895,-2.5895,-2.5895,-2.5895,-2.5895,-2.5895,-2.5895,-2.5895,-2.5895,-2.5895,-2.5864,-2.5812,-2.5728,-2.4946,-2.4251,-2.3627,-2.3003,-2.302,-2.3255,-2.279,-2.2515,-2.2388,-2.2693,-2.1714,-2.0542,-2.0685,0.0,-1.9871,-1.8914,-1.9955,-2.1531,-2.2495,-2.3726,-2.4863,0.0,0.0,-2.5589,-2.5681,-2.5802,-2.6083,-2.6751,-2.675,-2.7031,-2.8149,-2.8128,-2.8325,-2.9288,-2.9456,-2.9794,-3.0635,-3.0384,-3.0308,-3.0777,-3.0821,-3.1203,-3.2143,-3.2263,-3.2503,-3.3015,-3.3453,-3.3715,-3.3715,-3.413,-3.436,-3.436,-3.4414,-3.4447,-3.4447,-3.4491,-3.4524,-3.4524,-3.4524,-3.4524,-3.4524,-3.4524,-3.4524,-3.4524,-3.4458,-3.4447,-3.4436,-3.4382,-3.436,-3.4261,-3.3388,-3.3124,-3.3124,0.0,0.0,0.0,0.0,0.0,0.0,0.0,0.0,0.0,0.0,0.0,0.0,0.0,0.0,0.0,0.0,0.0,0.0,0.0,0.0,0.0,0.0,0.0,0.0,0.0,0.0,0.0,0.0,0.0,-2.5895,-2.5895,-2.5895,-2.5895,-2.5895,-2.5895,-2.5895,-2.5895,-2.5895,-2.5895,-2.5895,-2.5895,-2.5895,-2.5853,-2.5601,-2.5031,-2.4382,-2.3774,-2.3677,0.0,0.0,-2.3235,-2.3355,-2.3295,-2.2848,-2.2361,-2.2359,-2.2576,0.0,-2.3134,-2.3578,0.0,0.0,-2.5538,-2.6061,-2.6237,-2.6324,-2.6397,-2.6677,-2.6822,-2.6951,-2.7274,-2.7247,-2.7441,0.0,-2.8398,-2.8668,-2.9408,-2.9958,-3.045,-3.0843,-3.0974,-3.1225,-3.1717,-3.176,-3.2044,-3.2785,-3.3049,-3.3289,-3.3486,-3.3956,-3.4218,-3.4218,-3.4414,-3.4524,-3.4524,-3.4524,-3.4524,-3.4524,-3.4524,-3.4524,-3.4524,-3.4524,-3.4524,-3.4468,-3.43,-3.4367,-3.4468,-3.4311,-3.4367,-3.4524,-3.4524,-3.4524,-3.448,-3.4065,-3.3912,-3.3912,0.0,0.0,0.0,0.0,0.0,0.0,0.0,0.0,0.0,0.0,0.0,0.0,0.0,0.0,0.0,0.0,0.0,0.0,0.0,0.0,0.0,0.0,0.0,0.0,0.0,0.0,0.0,0.0,0.0,-2.5895,-2.5895,-2.5895,-2.5895,-2.5895,-2.5895,-2.5895,-2.5895,-2.5895,-2.5895,-2.5895,-2.5895,-2.5895,-2.5895,-2.5895,-2.5431,-2.4735,-2.4043,-2.3649,0.0,0.0,-2.3104,-2.3474,-2.3345,-2.33,-2.3289,-2.3362,-2.3773,-2.4375,-2.5608,0.0,0.0,-2.6306,-2.6662,-2.6801,-2.6848,-2.6848,-2.6905,-2.7284,-2.7452,-2.7547,-2.7678,-2.7631,-2.7815,-2.8567,-2.8784,-2.9037,-2.979,-3.0461,-3.0952,-3.1083,-3.1531,-3.2033,-3.2525,-3.2459,-3.2634,-3.3224,-3.3595,-3.3857,-3.3988,-3.4338,-3.4524,-3.4524,-3.4524,-3.4524,-3.4524,-3.4524,-3.4524,-3.4524,-3.4524,-3.4524,-3.4524,-3.4524,-3.4468,-3.4356,-3.4199,-3.4142,-3.4244,-3.403,-3.4142,-3.4412,-3.4412,-3.4412,-3.4524,-3.4524,-3.4524,-3.4524,0.0,0.0,0.0,0.0,0.0,0.0,0.0,0.0,0.0,0.0,0.0,0.0,0.0,0.0,0.0,0.0,0.0,0.0,0.0,0.0,0.0,0.0,0.0,0.0,0.0,0.0,0.0,0.0,0.0,0.0,-2.5895,-2.5895,-2.5895,-2.5895,-2.5895,-2.5895,-2.5895,-2.5895,-2.5895,-2.5895,-2.5895,-2.5895,-2.5895,-2.5895,-2.5362,-2.4466,-2.3339,0.0,0.0,0.0,-2.165,-2.2015,-2.2864,-2.2523,0.0,-2.2934,-2.2716,0.0,0.0,0.0,-2.4492,-2.5878,-2.6748,-2.7336,-2.7515,-2.7421,-2.7336,-2.7536,-2.7452,-2.7441,-2.7904,-2.7773,-2.8015,-2.9248,-2.9239,-2.9526,-3.0673,-3.0876,-3.1072,-3.1542,-3.2055,-3.2536,0.0,-3.2645,-3.2765,-3.3704,-3.3792,-3.3999,-3.448,-3.4513,-3.4524,-3.4524,-3.4524,-3.4524,-3.4524,-3.4524,-3.4524,-3.4524,-3.4524,-3.4524,-3.4524,-3.4524,-3.4367,-3.4086,-3.4086,-3.3918,-3.3625,-3.3625,-3.3805,-3.4086,-3.4086,-3.4255,-3.4524,-3.4524,-3.4524,-3.4524,0.0,0.0,0.0,0.0,0.0,0.0,0.0,0.0,0.0,0.0,0.0,0.0,0.0,0.0,0.0,0.0,0.0,0.0,0.0,0.0,0.0,0.0,0.0,0.0,0.0,0.0,0.0,0.0,0.0,0.0,-2.5895,-2.5895,-2.5895,-2.5895,-2.5895,-2.5895,-2.5895,-2.5895,-2.5895,-2.5895,-2.5895,-2.5895,-2.5874,-2.5546,-2.4906,-2.3943,0.0,0.0,0.0,0.0,0.0,0.0,-2.2623,0.0,-2.235,-2.2854,-2.3123,-2.3579,0.0,0.0,-2.5971,-2.69,-2.7232,-2.7347,-2.7536,-2.7536,-2.7499,-2.7394,-2.7584,-2.7809,-2.7998,-2.8026,-2.8348,-2.9132,-2.9536,-2.9963,-3.0565,-3.1081,-3.1433,-3.1607,-3.2077,0.0,0.0,0.0,0.0,-3.4229,-3.4272,-3.4349,-3.4513,-3.4524,-3.4524,-3.4524,-3.4524,-3.4524,-3.4524,-3.4524,-3.4524,-3.4524,-3.4524,-3.4524,-3.4524,-3.4524,-3.4356,-3.4097,-3.3861,-3.3681,-3.3568,-3.3409,-3.3523,-3.3805,-3.403,-3.4142,-3.4255,-3.4412,-3.4524,-3.4524,0.0,0.0,0.0,0.0,0.0,0.0,0.0,0.0,0.0,0.0,0.0,0.0,0.0,0.0,0.0,0.0,0.0,0.0,0.0,0.0,0.0,0.0,0.0,0.0,0.0,0.0,0.0,0.0,0.0,0.0,0.0,-2.5819,-2.5895,-2.5895,-2.5895,-2.5895,-2.5895,-2.5895,-2.5839,-2.5727,-2.5509,-2.5359,-2.5215,-2.4697,-2.3956,0.0,0.0,0.0,0.0,0.0,0.0,0.0,0.0,-2.2352,-2.2587,-2.3012,-2.3576,-2.4263,0.0,-2.6145,-2.6625,-2.7327,-2.7452,-2.7452,-2.7584,-2.7584,-2.7584,-2.7536,-2.7542,-2.7556,-2.7742,-2.7951,-2.8221,-2.8646,-2.9353,-3.003,-3.0454,-3.0919,-3.1298,-3.1586,-3.2219,-3.2743,0.0,0.0,0.0,-3.4502,-3.4524,-3.4524,-3.4524,-3.4524,-3.4524,-3.4524,-3.4524,-3.4524,-3.4524,-3.4524,-3.4524,-3.4524,-3.4412,-3.4367,-3.4356,-3.4244,-3.4019,-3.3759,-3.3523,-3.3409,-3.3296,-3.3069,-3.3182,-3.3466,-3.3692,-3.3928,-3.4142,-3.43,-3.4412,-3.4524,0.0,0.0,0.0,0.0,0.0,0.0,0.0,0.0,0.0,0.0,0.0,0.0,0.0,0.0,0.0,0.0,0.0,0.0,0.0,0.0,0.0,0.0,0.0,0.0,0.0,0.0,0.0,0.0,0.0,0.0,0.0,-2.56,-2.583,-2.5788,-2.5777,-2.5777,-2.5788,-2.5788,-2.5639,-2.5374,-2.4805,-2.4363,-2.4014,-2.3433,0.0,0.0,0.0,0.0,0.0,0.0,0.0,0.0,0.0,0.0,-2.2719,-2.3437,-2.3947,-2.4601,-2.5948,-2.6293,-2.6459,-2.7148,-2.7441,-2.7584,-2.7631,-2.7631,-2.7678,-2.7919,-2.7243,-2.6743,0.0,0.0,-2.7793,-2.8067,-2.8894,-2.9767,-3.0451,-3.0557,-3.0811,0.0,0.0,0.0,0.0,0.0,0.0,-3.4524,0.0,-3.4524,-3.4524,-3.4524,-3.4524,-3.4524,-3.4524,-3.4524,-3.4524,-3.4545,-3.4556,-3.4556,-3.4309,-3.4162,-3.4162,-3.3791,-3.3498,-3.3224,-3.3203,-3.3022,-3.2669,-3.2669,-3.2908,-3.3193,-3.3193,-3.3533,-3.4041,-3.4097,-3.4255,-3.4468,0.0,0.0,0.0,0.0,0.0,0.0,0.0,0.0,0.0,0.0,0.0,0.0,0.0,0.0,0.0,0.0,0.0,0.0,0.0,0.0,0.0,0.0,0.0,0.0,0.0,0.0,0.0,0.0,0.0,0.0,0.0,-2.4454,-2.4672,0.0,-2.443,-2.4471,-2.4309,-2.4188,-2.4153,-2.4247,0.0,-2.4023,-2.3623,0.0,0.0,0.0,0.0,0.0,0.0,0.0,0.0,0.0,0.0,-2.3674,-2.3677,-2.4357,-2.5043,-2.5643,-2.6074,-2.6853,-2.7557,-2.7515,-2.7547,-2.7631,-2.7857,-2.7715,-2.7537,-2.7294,-2.7079,-2.6982,0.0,0.0,0.0,-2.9164,-2.9829,0.0,-3.0922,-3.1016,0.0,-3.1545,0.0,-3.3124,-3.3124,-3.3945,0.0,0.0,-3.4524,-3.4524,-3.4524,-3.4524,-3.4524,-3.4524,-3.4524,-3.4524,-3.4524,-3.4862,-3.5037,-3.5037,-3.5121,-3.5121,-3.511,-3.4432,-3.3927,-3.3618,-3.334,-3.3022,-3.2669,-3.2669,-3.2727,-3.2851,-3.3079,-3.3306,-3.3477,-3.3918,-3.4142,-3.4255,0.0,0.0,0.0,0.0,0.0,0.0,0.0,0.0,0.0,0.0,0.0,0.0,0.0,0.0,0.0,0.0,0.0,0.0,0.0,0.0,0.0,0.0,0.0,0.0,0.0,0.0,0.0,0.0,0.0,0.0,0.0,-2.3303,-2.3623,-2.3384,-2.3615,-2.3695,-2.3655,0.0,0.0,0.0,0.0,0.0,0.0,0.0,0.0,0.0,0.0,0.0,0.0,0.0,0.0,-2.3841,-2.5018,-2.4988,-2.4682,-2.5713,0.0,-2.6381,-2.6863,-2.7458,-2.7951,-2.7678,-2.7783,-2.7808,-2.7349,-2.7345,-2.7218,-2.6536,-2.6272,0.0,0.0,0.0,0.0,0.0,0.0,0.0,-3.0673,-3.0845,-3.1048,0.0,-3.2481,0.0,-3.3124,-3.3945,-3.4524,0.0,-3.4524,-3.4524,-3.4524,-3.4524,-3.4524,-3.4524,-3.4524,-3.4622,-3.4829,-3.5081,-3.5321,-3.5539,-3.5348,-3.5301,-3.5232,-3.4508,-3.3995,-3.3601,0.0,-3.3085,-3.2669,-3.2669,-3.2669,-3.2737,-3.2908,-3.3079,-3.325,-3.3692,-3.3974,-3.4142,0.0,0.0,0.0,0.0,0.0,0.0,0.0,0.0,0.0,0.0,0.0,0.0,0.0,0.0,0.0,0.0,0.0,0.0,0.0,0.0,0.0,0.0,0.0,0.0,0.0,0.0,0.0,0.0,0.0,0.0,0.0,0.0,0.0,0.0,0.0,0.0,0.0,0.0,0.0,0.0,0.0,0.0,0.0,0.0,0.0,0.0,0.0,0.0,0.0,0.0,-2.452,-2.5015,-2.6208,-2.6082,-2.5752,-2.7147,-2.7172,-2.6977,-2.7798,-2.8045,-2.8045,-2.7726,-2.8019,-2.8054,-2.6658,-2.6802,-2.6852,-2.5716,0.0,-2.5199,-2.5493,0.0,-2.7059,-2.6838,0.0,-2.981,-3.0161,-3.0422,-3.0828,-3.1469,-3.2481,-3.3124,-3.3124,-3.3945,-3.4524,-3.4524,-3.4524,-3.4524,-3.4524,-3.4524,-3.4524,-3.4524,-3.4524,-3.4742,-3.5201,-3.5277,-3.5561,-3.6063,-3.5462,-3.5189,-3.5189,-3.4484,-3.3938,-3.3555,-3.343,-3.3161,-3.282,-3.2758,-3.2669,-3.2669,-3.2669,-3.2908,-3.3193,-3.3466,-3.3749,-3.4086,0.0,0.0,0.0,0.0,0.0,0.0,0.0,0.0,0.0,0.0,-2.1518,-2.0997,0.0,0.0,0.0,0.0,0.0,0.0,0.0,0.0,0.0,0.0,0.0,0.0,0.0,0.0,0.0,0.0,0.0,0.0,0.0,0.0,0.0,0.0,0.0,0.0,0.0,0.0,0.0,0.0,0.0,0.0,0.0,0.0,0.0,0.0,0.0,0.0,0.0,0.0,-2.4961,-2.6162,-2.7568,-2.7541,-2.7092,-2.7964,-2.7974,-2.7798,-2.7977,-2.8326,-2.856,-2.8045,-2.8149,-2.81,-2.6894,-2.6843,0.0,0.0,0.0,-2.519,-2.5253,-2.5732,0.0,-2.7822,0.0,0.0,0.0,0.0,-3.1149,0.0,0.0,0.0,0.0,0.0,0.0,0.0,0.0,-3.4524,-3.4524,-3.4524,-3.4524,-3.4524,-3.4524,-3.4742,-3.5201,-3.5627,-3.6085,-3.6577,-3.6299,-3.6178,-3.6096,-3.511,-3.465,-3.4536,-3.371,0.0,-3.3234,-3.2882,-3.2669,-3.2669,-3.2669,-3.2737,-3.2841,-3.3136,-3.3466,-3.3738,0.0,0.0,0.0,0.0,0.0,0.0,0.0,-2.2017,-2.2089,-2.1825,-2.1551,-2.1326,-2.1132,-2.0177,-1.9372,0.0,0.0,0.0,0.0,0.0,0.0,0.0,0.0,0.0,0.0,0.0,0.0,0.0,0.0,0.0,0.0,0.0,0.0,0.0,0.0,0.0,0.0,0.0,0.0,0.0,0.0,0.0,0.0,0.0,0.0,0.0,0.0,0.0,0.0,0.0,-2.4702,-2.6398,-2.7625,-2.7726,-2.7594,-2.8207,-2.8196,-2.8034,-2.8186,-2.8874,-2.9325,-2.842,-2.8781,-2.8764,-2.6485,0.0,0.0,0.0,0.0,-2.5094,-2.4871,0.0,0.0,0.0,0.0,0.0,0.0,0.0,0.0,0.0,0.0,0.0,0.0,0.0,0.0,0.0,0.0,-3.4524,-3.4524,-3.4524,-3.4524,-3.4524,-3.4524,-3.4873,-3.5594,-3.5845,-3.6278,-3.6828,-3.6692,-3.6484,-3.6106,-3.564,-3.5031,-3.4432,-3.3986,-3.3472,-3.3027,-3.282,-3.2669,-3.2669,-3.2669,-3.3058,-3.3604,-3.3296,-3.3794,-3.4502,0.0,0.0,0.0,0.0,0.0,0.0,0.0,-2.1825,-2.1873,-2.1464,-2.1404,-2.1337,-2.1191,-2.0678,-2.0077,0.0,0.0,0.0,0.0,0.0,0.0,0.0,0.0,0.0,0.0,0.0,0.0,0.0,0.0,0.0,0.0,0.0,0.0,0.0,0.0,0.0,0.0,0.0,0.0,0.0,0.0,0.0,0.0,0.0,0.0,0.0,0.0,0.0,0.0,0.0,-2.4233,-2.6018,-2.6817,-2.7165,-2.7437,-2.8,-2.8,-2.7881,-2.8362,-2.9325,-2.9909,-2.8746,-2.9371,-2.9341,-2.6065,-2.5979,0.0,0.0,-2.4138,-2.4843,-2.4542,0.0,0.0,0.0,0.0,0.0,0.0,0.0,0.0,0.0,0.0,0.0,0.0,0.0,0.0,0.0,0.0,0.0,-3.4524,-3.4524,-3.4524,-3.4524,-3.4524,-3.4993,-3.6012,-3.6023,-3.6328,-3.6982,-3.6861,-3.6545,-3.5983,-3.5755,-3.5133,-3.4266,-3.4069,-3.3689,-3.3194,-3.31,-3.3218,-3.3434,-3.3434,-3.4032,-3.4747,-3.3885,-3.4334,-3.5323,0.0,0.0,0.0,0.0,0.0,0.0,0.0,-2.1753,-2.1464,-2.1416,-2.1404,-2.1386,-2.1374,-2.0733,-2.0239,0.0,0.0,0.0,0.0,0.0,0.0,0.0,0.0,0.0,0.0,0.0,0.0,0.0,0.0,0.0,0.0,0.0,0.0,0.0,0.0,0.0,0.0,0.0,0.0,0.0,0.0,0.0,0.0,0.0,0.0,0.0,0.0,0.0,0.0,0.0,0.0,-2.483,-2.5295,-2.5839,-2.647,-2.7278,0.0,0.0,-2.8451,-2.9463,-2.9943,-2.9024,-2.9509,-2.9341,-2.6065,0.0,0.0,0.0,-2.3864,-2.4481,-2.45,-2.4556,0.0,0.0,0.0,0.0,0.0,0.0,0.0,0.0,0.0,0.0,0.0,0.0,0.0,0.0,0.0,0.0,-3.4524,-3.4524,-3.4524,-3.4524,-3.4524,-3.4993,-3.6012,-3.6023,-3.6446,-3.7325,-3.6728,-3.6423,-3.6351,-3.5369,-3.4837,-3.4712,-3.3803,-3.4007,0.0,-3.4486,-3.4958,-3.587,-3.587,-3.5979,-3.5925,-3.5068,-3.5035,-3.5422,0.0,0.0,0.0,0.0,0.0,0.0,-2.1765,-2.1813,-2.1765,-2.144,-2.1404,-2.1524,-2.1849,-2.133,-2.074,-2.0215,0.0,0.0,0.0,0.0,0.0,0.0,0.0,0.0,0.0,0.0,0.0,0.0,0.0,0.0,0.0,0.0,0.0,0.0,0.0,0.0,0.0,0.0,0.0,0.0,0.0,0.0,0.0,0.0,0.0,0.0,0.0,0.0,0.0,0.0,0.0,0.0,-2.3662,-2.4008,0.0,0.0,-2.7098,-2.7377,-2.9145,-3.0351,-3.0956,-3.0564,-3.0909,-3.0424,-2.6928,0.0,0.0,-2.3727,-2.4311,-2.5111,-2.4585,-2.4882,-2.5393,0.0,0.0,0.0,0.0,0.0,0.0,0.0,0.0,0.0,0.0,0.0,0.0,0.0,0.0,0.0,-3.5488,-3.4891,-3.4524,-3.4524,-3.4524,-3.484,-3.5506,-3.5506,-3.5787,-3.6286,-3.6167,-3.594,-3.5561,-3.5142,-3.4662,-3.4212,-3.4339,-3.4561,0.0,-3.5301,-3.5815,-3.6185,-3.6185,-3.663,-3.7126,-3.6251,-3.6588,-3.7406,0.0,0.0,0.0,0.0,0.0,-2.2065,-2.1692,-2.1825,-2.1825,-2.1452,-2.1404,-2.1548,-2.1921,-2.159,-2.1039,-2.0328,-2.0334,0.0,0.0,0.0,0.0,0.0,0.0,0.0,0.0,0.0,0.0,-2.1502,0.0,0.0,0.0,0.0,0.0,0.0,0.0,0.0,0.0,0.0,0.0,0.0,0.0,0.0,0.0,0.0,0.0,0.0,0.0,0.0,0.0,0.0,0.0,0.0,0.0,0.0,0.0,0.0,-2.6575,-2.7211,-2.9545,-3.085,-3.1621,-3.1621,-3.1884,-3.1311,0.0,0.0,0.0,-2.4036,-2.4625,-2.5345,-2.4639,-2.5047,-2.5554,0.0,0.0,0.0,0.0,0.0,0.0,0.0,0.0,0.0,0.0,0.0,0.0,0.0,0.0,0.0,-3.6134,-3.5433,-3.5168,-3.5466,-3.5157,-3.5235,-3.5689,-3.6027,-3.6001,-3.5663,-3.6118,-3.5943,-3.5125,-3.4811,-3.4509,-3.4353,-3.4764,-3.5167,0.0,-3.636,-3.69,-3.7233,-3.7233,-3.7725,-3.8332,-3.7554,-3.7926,-3.8727,0.0,0.0,0.0,0.0,0.0,0.0,-2.2185,-2.174,-2.1416,-2.1404,-2.1404,-2.1404,-2.1416,-2.1272,-2.0986,-2.0432,-2.0524,0.0,0.0,0.0,0.0,0.0,0.0,0.0,0.0,0.0,-2.0886,-2.1502,-2.1502,-2.1397,0.0,0.0,0.0,0.0,0.0,0.0,0.0,0.0,0.0,0.0,0.0,0.0,0.0,0.0,0.0,0.0,0.0,0.0,0.0,0.0,0.0,0.0,0.0,0.0,0.0,0.0,-2.5609,-2.6631,-2.9385,-3.0842,-3.1621,-3.1621,-3.1988,-3.163,0.0,0.0,-2.6742,-2.4713,-2.4675,-2.4886,-2.4576,-2.4792,-2.5046,-2.5167,0.0,0.0,0.0,0.0,0.0,0.0,0.0,0.0,0.0,0.0,0.0,0.0,0.0,0.0,-3.6134,-3.6177,-3.6708,-3.7849,-3.675,-3.6418,-3.6899,-3.7989,-3.7708,-3.6023,-3.6834,-3.6593,-3.5466,-3.4307,-3.4478,-3.5565,0.0,-3.5783,0.0,-3.7897,-3.8594,-3.9645,-3.9645,-3.9697,-3.9633,-3.9013,-3.8792,-3.8896,0.0,0.0,0.0,0.0,0.0,0.0,0.0,-2.2053,-2.1945,-2.1945,-2.1945,-2.1945,-2.1945,-2.1578,-2.1128,-2.056,-2.016,0.0,0.0,0.0,0.0,0.0,0.0,0.0,0.0,0.0,-2.0373,-2.0875,-2.1435,-2.1474,-2.0984,-2.1128,0.0,0.0,0.0,0.0,0.0,0.0,0.0,0.0,0.0,0.0,0.0,0.0,0.0,0.0,0.0,0.0,0.0,0.0,0.0,0.0,0.0,0.0,0.0,0.0,0.0,0.0,-2.7997,-2.8999,-2.9465,-2.974,-2.9591,-2.8848,-2.7073,0.0,-2.5704,-2.42,-2.4736,-2.5194,-2.4263,-2.4829,-2.5436,-2.5209,0.0,0.0,0.0,0.0,0.0,0.0,0.0,0.0,0.0,0.0,0.0,0.0,0.0,0.0,-3.84,-3.7808,-3.753,-3.7902,-3.753,-3.7453,-3.7554,-3.7941,-3.7863,-3.7271,-3.6746,-3.6647,-3.6801,-3.5502,-3.5413,0.0,0.0,0.0,-3.7938,-3.8764,-3.9362,-3.9749,-3.989,-3.9981,-3.9981,-4.016,-4.0262,-4.0313,0.0,0.0,0.0,0.0,0.0,0.0,0.0,-2.1897,-2.1969,-2.2161,-2.2197,-2.2197,-2.2197,-2.1506,-2.0871,-2.0548,-1.9729,0.0,0.0,0.0,0.0,0.0,0.0,0.0,0.0,-1.9234,-1.9756,-2.0194,-2.0862,-2.1094,-2.0877,-2.1068,-2.1235,-2.132,-2.1397,0.0,0.0,0.0,0.0,0.0,0.0,0.0,-2.1617,0.0,0.0,0.0,0.0,0.0,0.0,0.0,0.0,0.0,0.0,0.0,0.0,0.0,-2.4661,0.0,0.0,-2.841,-2.8759,-2.8858,-2.8927,0.0,0.0,0.0,-2.6069,-2.4465,-2.4926,-2.5265,-2.4125,-2.461,-2.5147,-2.4967,0.0,0.0,0.0,0.0,0.0,0.0,0.0,0.0,0.0,0.0,0.0,0.0,0.0,0.0,-3.9494,-3.8911,-3.8755,-3.9171,-3.8755,-3.8533,-3.8533,-3.8963,-3.8755,-3.789,-3.7595,-3.7554,-3.7607,-3.6545,-3.6545,0.0,0.0,-3.8161,0.0,-3.9505,-3.9839,-3.989,-4.0134,-4.0236,-4.0287,-4.0744,-4.0883,-4.0933,0.0,0.0,0.0,0.0,0.0,0.0,0.0,-2.138,-2.1584,-2.2077,-2.2173,-2.2197,-2.2197,-2.1117,-2.0384,-2.0384,0.0,0.0,0.0,0.0,0.0,0.0,0.0,0.0,0.0,-1.8594,-1.9123,-1.9543,-1.9961,-2.039,-2.0754,-2.0966,-2.1203,-2.1423,-2.1652,-2.1738,-2.1807,-2.1807,-2.1807,-2.1807,-2.1807,-2.1807,0.0,0.0,0.0,0.0,0.0,0.0,0.0,0.0,0.0,0.0,0.0,0.0,0.0,0.0,0.0,0.0,0.0,0.0,0.0,0.0,0.0,0.0,0.0,0.0,0.0,-2.5191,-2.5152,-2.5214,-2.409,-2.4234,0.0,0.0,0.0,0.0,0.0,0.0,0.0,0.0,0.0,0.0,0.0,0.0,0.0,0.0,0.0,0.0,-3.9661,-3.9712,-4.0198,-4.1261,-4.0249,-3.9712,-3.9712,-4.0782,-4.0249,-3.8166,-3.9119,-3.9067,-3.806,-3.7447,-3.7779,0.0,0.0,-3.8659,0.0,-3.9981,-4.0121,-4.0185,-4.044,-4.0555,-4.0555,-4.0846,-4.0933,-4.0933,0.0,0.0,0.0,0.0,0.0,0.0,0.0,0.0,0.0,0.0,-2.1945,-2.2197,-2.2197,-2.1117,-2.0384,0.0,0.0,0.0,0.0,0.0,0.0,0.0,0.0,0.0,-1.8221,-1.8387,-1.8904,-1.9798,-2.0088,-2.0244,-2.0362,-2.0616,-2.0761,-2.0825,-2.0862,-2.1223,-2.1807,-2.1807,-2.1807,-2.1807,-2.1807,-2.1807,0.0,0.0,0.0,0.0,-2.2365,-2.2621,0.0,0.0,0.0,0.0,0.0,0.0,0.0,0.0,-2.5016,-2.5277,-2.5877,0.0,-2.6728,-2.6146,0.0,0.0,0.0,0.0,0.0,0.0,0.0,0.0,0.0,0.0,0.0,0.0,0.0,0.0,0.0,0.0,0.0,0.0,0.0,0.0,0.0,0.0,0.0,0.0,0.0,-3.9712,-4.0833,-4.0896,-4.1047,-4.1261,-4.1047,-4.0896,-4.0896,-4.1161,-4.1047,-4.0516,-3.9686,-3.948,-3.9853,-3.8647,-3.8607,0.0,-3.9362,-3.9569,-4.0032,-4.0083,-4.0236,-4.0453,-4.0694,-4.0795,-4.0846,-4.111,-4.1211,-4.1211,0.0,0.0,0.0,0.0,0.0,0.0,0.0,0.0,0.0,0.0,0.0,0.0,0.0,0.0,0.0,0.0,0.0,0.0,0.0,0.0,0.0,0.0,0.0,-1.8237,-1.8128,-1.8305,-1.8757,-1.9424,-1.9732,-2.015,-2.0623,-2.0754,-2.0951,-2.1155,-2.1155,-2.1203,-2.1357,-2.1676,-2.1731,-2.1655,-2.1769,0.0,0.0,0.0,0.0,0.0,-2.308,-2.3465,0.0,-2.4338,-2.5374,-2.6211,0.0,0.0,0.0,0.0,-2.5571,-2.5571,-2.5571,-2.6069,-2.6369,-2.5331,-2.5894,-2.6492,0.0,0.0,0.0,0.0,0.0,0.0,0.0,0.0,0.0,0.0,0.0,0.0,0.0,0.0,0.0,0.0,0.0,0.0,0.0,0.0,0.0,0.0,0.0,-4.0668,-4.1261,-4.1311,-4.1311,-4.1311,-4.1311,-4.1311,-4.1311,-4.1311,-4.1311,-4.1261,-4.0415,-4.0224,-4.0643,-3.9659,-3.9453,-3.989,-3.9736,-3.9839,-4.0121,-4.0236,-4.044,-4.0694,-4.0997,-4.1097,-4.1097,-4.1261,-4.1311,-4.1311,0.0,0.0,0.0,0.0,0.0,0.0,0.0,0.0,0.0,0.0,0.0,0.0,0.0,0.0,0.0,0.0,0.0,0.0,0.0,0.0,0.0,0.0,0.0,-1.8292,-1.8041,-1.8344,-1.871,-1.9132,-1.9305,-1.9984,-2.1079,-2.0943,-2.1118,-2.1563,-2.1635,-2.1374,-2.0886,-2.1425,-2.159,-2.1448,-2.17,0.0,0.0,0.0,0.0,0.0,0.0,0.0,0.0,-2.5147,-2.6519,-2.769,-2.6494,0.0,0.0,0.0,0.0,0.0,-2.591,-2.6638,-2.705,-2.555,-2.6565,-2.7579,0.0,0.0,0.0,0.0,0.0,0.0,0.0,0.0,0.0,0.0,0.0,0.0,0.0,0.0,0.0,0.0,0.0,0.0,0.0,0.0,0.0,0.0,0.0,-4.1311,-4.1311,-4.1311,-4.1311,-4.1311,-4.1311,-4.1311,-4.1311,-4.1311,-4.1261,-4.1261,-4.0946,-4.0846,-4.0782,-4.0326,-4.007,-4.007,0.0,0.0,-4.0224,-4.044,-4.0694,-4.0997,-4.1211,-4.1311,-4.1311,-4.1311,-4.1311,-4.1311,0.0,0.0,0.0,0.0,0.0,0.0,0.0,0.0,0.0,0.0,0.0,0.0,0.0,0.0,0.0,0.0,0.0,0.0,0.0,0.0,0.0,0.0,-1.9596,-1.8824,-1.8673,-1.8683,-1.9196,-2.0258,-1.9412,-1.9685,-2.099,-2.0129,-2.0012,-2.0462,-2.0851,-2.1049,-2.104,-2.1022,-2.109,-2.1222,-2.1614,0.0,0.0,0.0,0.0,0.0,0.0,0.0,0.0,-2.5765,-2.7033,-2.8079,-2.6346,0.0,0.0,0.0,0.0,0.0,-2.591,-2.7138,-2.8151,-2.6773,-2.689,-2.7249,0.0,0.0,0.0,0.0,0.0,0.0,0.0,0.0,0.0,0.0,0.0,0.0,0.0,0.0,0.0,0.0,0.0,0.0,0.0,0.0,0.0,0.0,0.0,-4.1311,-4.1311,-4.1311,-4.1311,-4.1311,-4.1311,-4.1311,-4.1311,-4.1311,-4.1211,-4.0946,-4.0707,-4.044,-4.0224,-4.0134,-4.007,-4.0121,0.0,-4.0555,-4.0782,-4.0833,-4.0997,-4.1261,-4.1261,-4.1311,-4.1311,-4.1311,-4.1311,-4.1311,0.0,0.0,0.0,0.0,0.0,0.0,0.0,0.0,0.0,0.0,0.0,0.0,0.0,0.0,0.0,0.0,0.0,0.0,0.0,0.0,0.0,-2.125,-2.0537,-1.9998,-1.9682,-1.9706,-2.0118,-2.0918,-2.0431,-2.0505,-2.1107,-2.0617,-2.0303,-2.0232,-2.1074,-2.0928,-2.017,-2.1513,-2.1872,-2.1659,0.0,0.0,0.0,0.0,0.0,0.0,0.0,0.0,0.0,0.0,-2.7422,-2.8087,-2.6944,0.0,0.0,0.0,0.0,0.0,-2.6211,-2.6841,-2.7512,-2.7455,-2.825,-2.8988,0.0,0.0,0.0,0.0,0.0,0.0,0.0,0.0,0.0,0.0,0.0,0.0,0.0,0.0,0.0,0.0,0.0,0.0,0.0,0.0,0.0,0.0,0.0,0.0,-4.1311,-4.1311,-4.1311,-4.1311,-4.1311,-4.1311,-4.1311,-4.1311,-4.1161,-4.0883,-4.0643,-4.0351,-4.007,-4.007,-4.007,-4.0121,0.0,-4.0643,-4.0883,-4.0883,-4.1047,-4.1311,-4.1311,-4.1311,-4.1311,-4.1311,-4.1311,-4.1311,0.0,0.0,0.0,0.0,0.0,0.0,0.0,0.0,0.0,0.0,0.0,0.0,0.0,0.0,0.0,0.0,0.0,0.0,0.0,0.0,-2.1431,-2.1588,-2.1431,-2.1071,-2.0463,-2.0555,-2.0852,-2.1338,-2.1083,-2.1041,-2.1257,-2.1296,-2.0993,-2.0462,-2.1371,-2.0896,-1.9612,-2.1899,-2.2557,-2.2149,0.0,0.0,0.0,0.0,0.0,0.0,0.0,0.0,0.0,0.0,0.0,0.0,0.0,0.0,0.0,-2.6663,-2.6499,-2.6499,-2.6499,-2.6688,-2.7077,-2.7896,0.0,-2.974,0.0,0.0,0.0,0.0,0.0,0.0,0.0,0.0,0.0,0.0,0.0,0.0,0.0,0.0,0.0,0.0,0.0,0.0,0.0,0.0,0.0,0.0,0.0,0.0,-4.1311,-4.1311,-4.1311,-4.1311,-4.1311,-4.1311,-4.1311,-4.1261,-4.1047,-4.0795,-4.0605,-4.0351,-4.0032,-4.0134,-4.0185,-4.0236,-4.0542,-4.0795,-4.0997,-4.0997,-4.1097,-4.1311,-4.1311,-4.1311,-4.1311,-4.1311,-4.1311,-4.1311,0.0,0.0,0.0,0.0,0.0,0.0,0.0,0.0,0.0,0.0,0.0,0.0,0.0,0.0,0.0,0.0,0.0,0.0,0.0,0.0,-2.2123,-2.2123,-2.2123,-2.1643,-2.0603,-2.0594,-2.0873,-2.1383,-2.0387,-2.0403,-2.1397,-2.1819,-2.1666,-2.1034,-2.1237,-2.0927,-2.0315,-2.1604,-2.2136,-2.2214,-2.343,0.0,0.0,0.0,0.0,0.0,0.0,0.0,0.0,0.0,0.0,0.0,0.0,0.0,-2.7168,-2.6663,-2.6499,-2.6499,-2.6499,-2.7241,-2.8009,-2.8084,0.0,0.0,-2.9377,0.0,0.0,0.0,0.0,0.0,0.0,0.0,0.0,0.0,0.0,0.0,0.0,0.0,0.0,0.0,0.0,0.0,0.0,0.0,0.0,0.0,0.0,0.0,-4.1311,-4.1311,-4.1311,-4.1311,-4.1311,-4.1311,-4.1311,-4.1047,-4.0795,-4.0555,-4.0504,-4.0249,-3.9749,-4.0249,-4.0453,-4.0504,-4.101,-4.1261,-4.1261,-4.1261,-4.1261,-4.1311,-4.1311,-4.1311,-4.1311,-4.1311,-4.1311,-4.1311,0.0,0.0,0.0,0.0,0.0,0.0,0.0,0.0,0.0,0.0,0.0,0.0,0.0,0.0,0.0,0.0,0.0,0.0,0.0,0.0,-2.2197,-2.2197,-2.1873,-2.151,-2.1101,-2.1096,-2.1205,-2.1407,-2.1322,-2.1642,-2.233,-2.2173,-2.1889,-2.1551,-2.1711,-2.125,-2.0501,-2.2595,-2.3225,-2.2981,-2.4647,-2.543,0.0,0.0,0.0,0.0,0.0,0.0,0.0,0.0,-2.6474,-2.7077,0.0,-2.6801,-2.6763,-2.6549,-2.6499,-2.6499,-2.6499,-2.7268,-2.8109,-2.8109,0.0,0.0,0.0,0.0,0.0,0.0,0.0,0.0,0.0,0.0,0.0,0.0,0.0,0.0,0.0,0.0,0.0,0.0,0.0,0.0,0.0,0.0,0.0,0.0,0.0,0.0,-4.1311,-4.1311,-4.1311,-4.1311,-4.1311,-4.1311,-4.1311,-4.1047,-4.0833,-4.0744,-4.0605,-4.03,-3.9981,-4.0491,-4.0744,-4.0795,-4.1161,-4.1311,-4.1311,-4.1311,-4.1311,-4.1311,-4.1311,-4.1311,-4.1311,-4.1311,-4.1311,-4.1311,0.0,0.0,0.0,0.0,0.0,0.0,0.0,0.0,0.0,0.0,0.0,0.0,0.0,0.0,0.0,0.0,0.0,0.0,-2.2161,-2.2197,-2.2197,-2.2197,-2.1692,-2.132,-2.1163,-2.1151,-2.1235,-2.1404,-2.2123,-2.2697,-2.3169,-2.2798,-2.2355,-2.1857,-2.2273,-2.186,-2.1034,-2.3266,-2.4011,-2.3825,-2.5391,-2.5945,0.0,0.0,0.0,0.0,0.0,0.0,0.0,0.0,-2.6021,0.0,0.0,0.0,0.0,0.0,-2.6612,-2.6713,-2.6549,-2.7165,-2.7896,0.0,0.0,0.0,0.0,0.0,0.0,0.0,0.0,0.0,0.0,0.0,0.0,0.0,0.0,0.0,0.0,0.0,0.0,0.0,0.0,0.0,0.0,0.0,0.0,0.0,0.0,0.0,0.0,-4.1311,-4.1261,-4.1161,-4.1261,-4.1211,-4.106,-4.0946,-4.0833,-4.0795,-4.0643,-4.0491,-4.0236,-4.0681,-4.0883,-4.0883,-4.1161,-4.1311,-4.1311,-4.1311,-4.1311,-4.1311,-4.1311,-4.1311,-4.1311,-4.1311,-4.1311,-4.1311,0.0,0.0,0.0,0.0,0.0,0.0,0.0,0.0,0.0,0.0,0.0,0.0,0.0,0.0,0.0,0.0,0.0,0.0,-2.2161,-2.2197,-2.2197,-2.2185,-2.168,-2.1151,-2.0593,-2.0593,-2.0875,-2.1404,-2.2462,-2.3276,-2.3794,-2.3806,-2.3131,-2.1947,-2.2815,-2.2718,-2.2014,-2.341,-2.4183,-2.4566,-2.5317,-2.5606,-2.5545,0.0,0.0,0.0,0.0,0.0,0.0,0.0,-2.6009,-2.6587,0.0,0.0,0.0,0.0,-2.6889,-2.719,-2.6637,-2.6901,0.0,0.0,0.0,0.0,0.0,0.0,0.0,0.0,0.0,0.0,0.0,0.0,0.0,0.0,0.0,0.0,0.0,0.0,0.0,0.0,0.0,0.0,0.0,0.0,0.0,0.0,0.0,0.0,0.0,-4.1298,-4.1147,-4.092,-4.1147,-4.1047,-4.0491,-4.0769,-4.0769,-4.0491,-4.0782,-4.0732,-4.0504,-4.0795,-4.0883,-4.0933,-4.1161,-4.1311,-4.1311,-4.1311,-4.1311,-4.1311,-4.1311,-4.1311,-4.1311,-4.1311,-4.1311,-4.1311,0.0,0.0,0.0,0.0,0.0,0.0,0.0,0.0,0.0,0.0,0.0,0.0,0.0,0.0,0.0,0.0,0.0,0.0,-2.2125,-2.2197,-2.2029,-2.1656,-2.1127,-2.0779,-2.0581,-2.0983,-2.1247,-2.1404,-2.2462,-2.3095,-2.3264,-2.3625,-2.3386,-2.271,-2.2935,-2.2903,-2.2733,-2.3619,-2.4183,-2.4566,-2.5317,-2.5305,-2.4816,0.0,0.0,0.0,0.0,0.0,0.0,0.0,0.0,0.0,0.0,0.0,0.0,-2.6499,-2.6612,-2.67,-2.6537,0.0,0.0,0.0,0.0,0.0,0.0,0.0,0.0,0.0,0.0,0.0,0.0,0.0,0.0,0.0,0.0,0.0,0.0,0.0,0.0,0.0,0.0,0.0,0.0,0.0,0.0,0.0,0.0,0.0,0.0,-3.9803,-3.9852,-3.9963,-4.006,-4.0024,-3.9865,-3.9754,-3.9754,-3.9865,-3.9754,-4.007,-4.0795,-4.1047,-4.1161,-4.1211,-4.1261,-4.1311,-4.1311,-4.1311,-4.1311,-4.1311,-4.1311,-4.1311,-4.1311,-4.1311,-4.1311,-4.1311,0.0,0.0,0.0,0.0,0.0,0.0,0.0,0.0,0.0,0.0,0.0,0.0,0.0,0.0,0.0,0.0,0.0,0.0,0.0,-2.1962,-2.1668,-2.1314,-2.0596,-2.0337,-2.0581,-2.1139,-2.15,-2.1716,-2.257,-2.3011,-2.3035,-2.3725,-2.3568,-2.269,-2.3144,-2.3324,-2.3348,-2.376,-2.4283,-2.4843,-2.5068,-2.4911,-2.447,0.0,0.0,0.0,0.0,0.0,0.0,0.0,0.0,0.0,0.0,0.0,0.0,-2.6763,-2.6977,-2.719,-2.7381,0.0,0.0,0.0,0.0,0.0,0.0,0.0,0.0,0.0,0.0,0.0,0.0,0.0,0.0,0.0,0.0,0.0,0.0,0.0,0.0,0.0,0.0,0.0,0.0,0.0,0.0,0.0,0.0,0.0,0.0,-3.9358,-3.9394,-3.9455,-3.9551,-3.9516,-3.9275,-3.9358,-3.9407,-3.9455,-3.9407,-3.9709,-4.0372,-4.0533,-4.0762,-4.0971,-4.1206,-4.1311,-4.1311,-4.1311,-4.1311,-4.1311,-4.1311,-4.1311,-4.1311,-4.1311,-4.1311,-4.1311,0.0,0.0,0.0,0.0,0.0,0.0,0.0,0.0,0.0,0.0,0.0,0.0,0.0,0.0,0.0,0.0,0.0,0.0,0.0,0.0,-2.1164,-2.1057,-2.0187,-1.9988,-2.0653,-2.1211,-2.1716,-2.2197,-2.2678,-2.2939,-2.2963,-2.3917,-2.3592,-2.2246,-2.3324,-2.3806,-2.3806,-2.3806,-2.4338,-2.5192,-2.4662,-2.4422,-2.4278,-2.334,0.0,0.0,0.0,0.0,0.0,0.0,0.0,0.0,0.0,0.0,-2.66,-2.709,-2.7632,-2.821,0.0,0.0,0.0,0.0,0.0,0.0,0.0,0.0,0.0,0.0,0.0,0.0,0.0,0.0,0.0,0.0,0.0,0.0,0.0,0.0,0.0,0.0,0.0,0.0,0.0,0.0,0.0,0.0,0.0,0.0,0.0,-3.9407,-3.9298,-3.9093,-3.9298,-3.9216,-3.8733,-3.9216,-3.9298,-3.9093,-3.9346,-3.9455,-3.9455,-3.956,-3.9873,-4.037,-4.0919,-4.1193,-4.1232,-4.1232,-4.1259,-4.1311,-4.1311,-4.1311,-4.1311,-4.1311,-4.1311,-4.1311,0.0,0.0,0.0,0.0,0.0,0.0,0.0,0.0,0.0,0.0,0.0,0.0,0.0,0.0,0.0,0.0,0.0,0.0,0.0,0.0,-2.0831,-1.998,-2.022,-2.0665,-2.1223,-2.1753,-2.2077,-2.2197,-2.2306,-2.2366,-2.2378,-2.3015,-2.2907,-2.2246,-2.3324,-2.3806,-2.3806,-2.3806,-2.4121,-2.465,-2.4133,-2.3722,-2.3292,-2.3063,-2.3011,0.0,0.0,0.0,0.0,0.0,0.0,0.0,-2.6499,-2.6499,-2.6512,-2.6637,-2.7331,0.0,0.0,0.0,0.0,0.0,0.0,0.0,0.0,0.0,0.0,0.0,0.0,0.0,0.0,0.0,0.0,0.0,0.0,0.0,0.0,0.0,0.0,0.0,0.0,0.0,0.0,0.0,0.0,0.0,0.0,0.0,-3.7914,-3.7961,-3.802,-3.8173,-3.8219,-3.8219,-3.808,-3.8219,-3.8219,-3.8173,-3.8219,-3.8279,-3.8305,-3.9194,-3.9677,-3.9795,-3.9926,-4.0213,-4.0605,-4.0605,-4.0893,-4.1311,-4.1311,-4.1311,-4.1311,-4.1311,-4.1311,-4.1311,0.0,0.0,0.0,0.0,0.0,0.0,0.0,0.0,0.0,0.0,0.0,0.0,0.0,0.0,0.0,0.0,0.0,0.0,0.0,0.0,-2.0657,-1.9927,-2.075,-2.128,-2.1404,-2.1921,-2.2197,-2.2197,-2.2197,-2.2197,0.0,-2.2739,-2.2702,-2.2246,-2.3324,-2.3661,-2.3445,-2.3697,-2.395,-2.4109,-2.3637,-2.3264,-2.3011,-2.3011,-2.3011,-2.3047,-2.3353,0.0,0.0,0.0,0.0,0.0,0.0,0.0,-2.6549,-2.6813,-2.7291,-2.7946,0.0,0.0,0.0,0.0,0.0,0.0,0.0,0.0,0.0,0.0,0.0,0.0,0.0,0.0,0.0,0.0,0.0,0.0,0.0,0.0,0.0,0.0,0.0,0.0,0.0,0.0,0.0,0.0,0.0,-3.7551,-3.7703,-3.7703,-3.7762,-3.79,-3.79,-3.79,-3.79,-3.79,-3.79,-3.79,-3.79,-3.79,-3.7926,-3.8789,-3.9181,-3.9194,-3.9481,-3.9769,-4.003,-4.003,-4.037,-4.088,-4.088,-4.1063,-4.1311,-4.1311,-4.1311,-4.1311,0.0,0.0,0.0,0.0,0.0,0.0,0.0,0.0,0.0,0.0,0.0,0.0,0.0,0.0,0.0,0.0,0.0,0.0,0.0,0.0,0.0,-2.049,-2.1408,-2.1802,-2.1536,-2.1969,-2.2197,-2.2197,-2.2197,0.0,0.0,0.0,0.0,-2.2246,-2.3324,-2.3505,-2.3047,-2.3577,-2.3746,-2.3625,-2.3095,-2.2939,-2.3011,-2.3011,-2.3119,-2.3336,-2.3902,-2.4566,-2.52,-2.5358,0.0,0.0,0.0,0.0,-2.6587,-2.704,-2.7268,-2.7833,0.0,0.0,0.0,0.0,0.0,0.0,0.0,0.0,0.0,0.0,0.0,0.0,0.0,0.0,0.0,0.0,0.0,0.0,0.0,0.0,0.0,0.0,0.0,0.0,0.0,0.0,0.0,0.0,0.0,-3.79,-3.79,-3.79,-3.79,-3.79,-3.79,-3.79,-3.79,-3.79,-3.79,-3.79,-3.79,-3.79,-3.7926,-3.837,-3.8566,-3.8606,-3.9102,-3.9364,-3.9455,-3.9455,-3.9782,-4.0278,-4.0278,-4.0644,-4.1154,-4.1154,-4.1219,-4.1311,0.0,0.0,0.0,0.0,0.0,0.0,0.0,0.0,0.0,0.0,0.0,0.0,0.0,0.0,0.0,0.0,0.0,0.0,-2.0668,0.0,0.0,-2.1658,-2.1919,-2.208,-2.2108,-2.2149,-2.2197,-2.2197,0.0,0.0,0.0,0.0,0.0,-2.2246,0.0,-2.3505,-2.3047,-2.3577,-2.3541,-2.3071,-2.251,-2.2602,-2.3011,-2.3011,-2.3532,-2.4326,-2.4386,-2.4897,-2.5578,-2.5765,-2.5988,0.0,0.0,0.0,-2.6512,-2.6587,-2.7291,0.0,0.0,0.0,0.0,0.0,0.0,0.0,0.0,0.0,0.0,0.0,0.0,0.0,0.0,0.0,0.0,0.0,0.0,0.0,0.0,0.0,0.0,0.0,0.0,0.0,0.0,0.0,0.0,0.0,-3.79,-3.79,-3.79,-3.79,-3.79,-3.79,-3.79,-3.79,-3.79,-3.79,-3.79,-3.79,-3.79,-3.79,-3.79,-3.7978,-3.8018,-3.8018,-3.8096,-3.8397,-3.8828,-3.8828,-3.9181,-3.9716,-3.9716,-4.0056,-4.054,-4.054,-4.0867,-4.1311,0.0,0.0,0.0,0.0,0.0,0.0,0.0,0.0,0.0,0.0,0.0,0.0,0.0,0.0,0.0,-2.1202,-2.1221,-2.137,-2.1701,-2.2194,-2.2594,-2.2832,-2.3241,-2.3292,-2.2992,-2.2726,-2.2574,-2.2574,0.0,0.0,0.0,-2.2197,-2.2354,0.0,0.0,0.0,0.0,0.0,0.0,-2.3471,-2.3256,-2.3777,-2.4613,-2.4147,-2.4703,-2.5729,-2.5241,-2.5281,-2.5641,-2.584,-2.6015,-2.6236,-2.643,0.0,0.0,0.0,-2.6839,0.0,0.0,0.0,0.0,0.0,0.0,0.0,0.0,0.0,0.0,0.0,0.0,0.0,0.0,0.0,0.0,0.0,0.0,0.0,0.0,0.0,0.0,0.0,0.0,0.0,0.0,0.0,0.0,0.0,-3.79,-3.79,-3.79,-3.79,-3.79,-3.79,-3.79,-3.79,-3.79,-3.79,-3.79,-3.79,-3.79,-3.79,-3.79,-3.79,-3.79,-3.79,-3.79,-3.8031,-3.8266,-3.8266,-3.8593,-3.9102,-3.9102,-3.9455,-3.9965,-3.9965,-4.0135,-4.0396,0.0,0.0,0.0,0.0,0.0,0.0,0.0,0.0,0.0,0.0,0.0,0.0,0.0,0.0,0.0,0.0,-2.164,-2.2015,-2.2932,-2.3514,-2.3794,-2.3829,-2.4226,-2.4221,-2.3712,-2.3185,-2.2939,0.0,0.0,0.0,-2.242,-2.2554,-2.2938,0.0,-2.3896,0.0,0.0,0.0,0.0,-2.3935,-2.4316,-2.5192,-2.6187,-2.5684,-2.624,-2.7164,-2.6324,-2.5906,-2.5851,-2.6025,-2.6072,-2.6084,-2.6292,-2.6396,0.0,0.0,0.0,0.0,0.0,0.0,0.0,0.0,0.0,0.0,0.0,0.0,0.0,0.0,0.0,0.0,0.0,0.0,0.0,0.0,0.0,0.0,0.0,0.0,0.0,0.0,0.0,0.0,0.0,0.0,0.0,0.0,-3.79,-3.79,-3.79,-3.79,-3.79,-3.79,-3.79,-3.79,-3.79,-3.79,-3.79,-3.79,-3.79,-3.79,-3.79,-3.79,-3.79,-3.79,-3.79,-3.79,-3.79,-3.79,-3.8148,-3.8501,-3.8501,-3.8867,-3.9377,-3.9377,-3.9481,-3.9664,0.0,0.0,0.0,0.0,0.0,0.0,0.0,0.0,0.0,0.0,0.0,0.0,-2.1746,-2.1544,-2.1665,-2.2385,-2.234,-2.2766,-2.3947,-2.4055,-2.4188,-2.4443,-2.4366,0.0,-2.3992,-2.3275,0.0,0.0,0.0,0.0,-2.307,-2.3504,-2.4148,-2.488,-2.4784,-2.4739,-2.481,0.0,0.0,0.0,0.0,-2.6418,0.0,0.0,-2.808,0.0,-2.7708,-2.6955,-2.638,-2.6573,-2.6208,-2.5688,-2.5875,-2.6062,-2.6201,0.0,0.0,0.0,0.0,0.0,0.0,0.0,0.0,0.0,0.0,0.0,0.0,0.0,0.0,0.0,0.0,0.0,0.0,0.0,0.0,0.0,0.0,0.0,0.0,0.0,0.0,0.0,0.0,0.0,0.0,0.0,-3.79,-3.79,-3.79,-3.79,-3.79,-3.79,-3.79,-3.79,-3.79,-3.79,-3.79,-3.79,-3.79,-3.79,-3.79,-3.79,-3.79,-3.79,-3.79,-3.79,-3.79,-3.79,-3.7926,-3.7952,-3.7952,-3.8279,-3.8762,-3.8762,-3.9115,-3.9612,0.0,0.0,0.0,0.0,0.0,0.0,0.0,0.0,0.0,0.0,0.0,0.0,0.0,-2.1972,-2.2212,-2.2367,-2.3114,-2.3755,-2.4205,-2.471,-2.4997,-2.495,-2.4907,-2.4793,-2.4637,-2.4089,0.0,0.0,0.0,-2.3487,-2.4133,-2.4442,-2.5331,-2.6693,-2.6231,-2.6039,-2.609,-2.6303,0.0,0.0,0.0,0.0,0.0,0.0,0.0,0.0,0.0,0.0,0.0,-2.7391,-2.6621,-2.5641,-2.598,-2.6131,-2.6236,-2.6339,0.0,0.0,0.0,0.0,0.0,0.0,0.0,0.0,0.0,0.0,0.0,0.0,0.0,0.0,0.0,0.0,0.0,0.0,0.0,0.0,0.0,0.0,0.0,0.0,0.0,0.0,0.0,0.0,0.0,0.0,0.0,-3.79,-3.79,-3.79,-3.79,-3.79,-3.79,-3.79,-3.79,-3.79,-3.79,-3.79,-3.79,-3.79,-3.79,-3.79,-3.79,-3.79,-3.79,-3.79,-3.79,-3.79,-3.79,-3.79,-3.79,-3.8018,-3.8187,-3.8187,-3.8331,-3.8566,0.0,0.0,0.0,0.0,0.0,0.0,0.0,0.0,0.0,0.0,0.0,0.0,0.0,0.0,-2.264,-2.268,-2.385,-2.46,-2.46,-2.5177,-2.5453,-2.537,-2.5328,-2.53,-2.523,-2.4478,0.0,0.0,0.0,0.0,0.0,-2.5654,-2.6559,-2.7762,-2.7696,-2.7554,0.0,0.0,0.0,-2.6833,0.0,0.0,-3.0051,0.0,0.0,0.0,0.0,0.0,0.0,0.0,-2.8542,-2.7609,-2.714,-2.6544,-2.605,-2.6258,0.0,0.0,0.0,0.0,0.0,0.0,0.0,0.0,0.0,0.0,0.0,0.0,0.0,0.0,0.0,0.0,0.0,0.0,0.0,0.0,0.0,0.0,0.0,0.0,0.0,0.0,0.0,0.0,0.0,0.0,0.0,0.0,-3.7599,-3.7795,-3.79,-3.79,-3.79,-3.79,-3.79,-3.79,-3.79,-3.79,-3.79,-3.79,-3.79,-3.79,-3.79,-3.79,-3.79,-3.79,-3.79,-3.79,-3.79,-3.79,-3.79,-3.79,-3.79,-3.79,-3.79,-3.7952,0.0,0.0,0.0,0.0,0.0,0.0,0.0,0.0,0.0,-2.1654,0.0,0.0,0.0,0.0,0.0,-2.3411,-2.4532,-2.5202,-2.5202,-2.5397,-2.5564,-2.5674,-2.5564,-2.5564,-2.5674,-2.4353,0.0,0.0,0.0,0.0,0.0,0.0,-2.7824,-2.7985,-2.9104,-2.9184,-2.8502,0.0,-2.7919,-2.7019,0.0,-3.0731,-3.0344,0.0,0.0,0.0,-3.1166,-3.082,0.0,-3.1688,0.0,0.0,0.0,0.0,-2.5653,-2.5828,0.0,0.0,0.0,0.0,0.0,0.0,0.0,0.0,0.0,0.0,0.0,0.0,0.0,0.0,0.0,0.0,0.0,0.0,0.0,0.0,0.0,0.0,0.0,0.0,0.0,0.0,0.0,0.0,0.0,0.0,-3.6645,-3.6972,-3.6972,-3.7547,-3.7874,-3.7874,-3.79,-3.79,-3.79,-3.79,-3.79,-3.79,-3.79,-3.79,-3.79,-3.79,-3.79,-3.79,-3.79,-3.79,-3.79,-3.79,-3.79,-3.79,-3.79,-3.79,-3.79,-3.79,-3.79,-3.79,0.0,0.0,0.0,0.0,0.0,0.0,-2.2144,-2.2174,-2.2244,0.0,0.0,0.0,-2.2421,-2.2883,-2.3705,-2.4967,-2.5149,-2.5272,-2.5397,-2.5467,-2.5522,-2.5536,-2.5383,-2.53,-2.5342,-2.4954,0.0,0.0,0.0,0.0,0.0,0.0,0.0,0.0,-2.947,-2.9257,-2.8627,-2.8222,0.0,0.0,-2.983,-3.0602,0.0,0.0,0.0,0.0,0.0,-3.25,-3.2458,0.0,-3.1637,-2.9857,0.0,0.0,0.0,0.0,0.0,0.0,-2.6361,0.0,0.0,0.0,0.0,0.0,0.0,0.0,0.0,0.0,0.0,0.0,0.0,0.0,0.0,0.0,0.0,0.0,0.0,0.0,0.0,0.0,0.0,0.0,0.0,0.0,0.0,0.0,-3.5944,-3.6358,-3.6358,-3.692,-3.726,-3.726,-3.7678,-3.79,-3.79,-3.79,-3.79,-3.79,-3.79,-3.79,-3.79,-3.79,-3.79,-3.79,-3.79,-3.79,-3.79,-3.79,-3.79,-3.79,-3.79,-3.79,-3.79,-3.79,-3.79,-3.79,0.0,0.0,0.0,0.0,0.0,-2.1589,-2.2257,-2.2278,-2.2484,0.0,0.0,0.0,-2.3264,-2.3695,-2.436,-2.5255,-2.5384,-2.5467,-2.5592,-2.5647,-2.5674,-2.5674,-2.555,-2.5481,-2.5425,-2.5177,-2.5467,0.0,0.0,0.0,0.0,0.0,0.0,0.0,0.0,0.0,0.0,0.0,0.0,0.0,-2.9864,0.0,0.0,-3.2569,-3.3489,0.0,0.0,0.0,-3.3994,-3.432,-3.289,0.0,0.0,0.0,0.0,0.0,0.0,0.0,0.0,0.0,0.0,0.0,0.0,0.0,-2.8599,-2.9315,0.0,0.0,0.0,0.0,0.0,0.0,0.0,0.0,0.0,0.0,0.0,0.0,0.0,0.0,0.0,0.0,0.0,-3.4543,-3.4878,-3.4695,-3.5357,-3.5861,-3.6096,-3.6436,-3.6619,-3.6619,-3.7207,-3.7521,-3.7521,-3.7782,-3.79,-3.79,-3.79,-3.79,-3.79,-3.79,-3.79,-3.79,-3.79,-3.79,-3.79,-3.79,-3.79,-3.79,-3.79,-3.79,-3.79,-3.79,-3.79,-3.79,0.0,0.0,0.0,-1.9886,-2.0497,-2.137,-2.2035,-2.2264,-2.2764,0.0,-2.3592,-2.3547,-2.4219,-2.4581,-2.485,-2.4919,-2.5381,-2.5702,-2.5729,-2.5839,-2.5893,-2.5893,-2.5893,-2.5839,-2.5799,-2.5269,-2.5562,0.0,0.0,0.0,0.0,0.0,0.0,0.0,0.0,0.0,0.0,0.0,0.0,-2.7173,-2.9891,-3.0716,0.0,0.0,-3.3326,-3.3326,-3.3326,-3.4133,-3.5336,-3.6041,-3.4897,0.0,0.0,0.0,0.0,0.0,-2.5819,0.0,0.0,0.0,0.0,0.0,0.0,0.0,-2.8938,-2.9389,-3.0018,0.0,0.0,0.0,0.0,0.0,0.0,0.0,0.0,0.0,0.0,0.0,0.0,0.0,0.0,0.0,-3.4356,-3.4397,-3.4397,-3.4397,-3.4894,-3.5404,-3.5887,-3.5979,-3.6018,-3.6018,-3.6593,-3.6907,-3.6907,-3.7495,-3.7808,-3.7808,-3.7874,-3.79,-3.79,-3.79,-3.79,-3.79,-3.79,-3.79,-3.79,-3.79,-3.79,-3.79,-3.79,-3.79,-3.79,-3.79,-3.79,-3.79,0.0,0.0,-2.1371,-2.1686,-2.222,-2.2826,-2.3501,-2.3531,-2.3733,-2.4443,-2.4578,-2.4866,-2.5472,-2.5098,-2.5044,-2.5642,-2.5687,-2.5757,-2.5839,-2.5893,-2.5893,-2.5893,-2.5811,-2.5953,-2.6413,-2.6315,-2.6608,0.0,0.0,0.0,0.0,0.0,0.0,0.0,0.0,0.0,0.0,0.0,0.0,-2.7924,-2.9683,0.0,-3.1163,-3.3334,-3.4158,-3.4158,-3.4158,-3.4969,-3.607,-3.6108,-3.543,-3.417,0.0,0.0,0.0,-2.7287,0.0,0.0,0.0,0.0,0.0,0.0,0.0,0.0,-2.6783,-2.6918,-2.7328,0.0,0.0,0.0,0.0,0.0,0.0,0.0,0.0,0.0,0.0,0.0,0.0,0.0,0.0,0.0,-3.416,-3.4314,-3.4397,-3.4397,-3.4502,-3.462,-3.4724,-3.5195,-3.5456,-3.5456,-3.5992,-3.6279,-3.6279,-3.6881,-3.7181,-3.7181,-3.7678,-3.79,-3.79,-3.79,-3.79,-3.79,-3.79,-3.79,-3.79,-3.79,-3.79,-3.79,-3.79,-3.79,-3.79,-3.79,-3.79,-3.79,0.0,0.0,-2.1694,-2.2343,-2.3142,-2.3984,-2.4857,-2.4866,-2.4964,-2.551,-2.5509,-2.543,-2.543,-2.5643,-2.5735,-2.5708,-2.5993,-2.6076,-2.5737,-2.5833,-2.5893,-2.5893,-2.5839,-2.5951,-2.6232,-2.6246,-2.6539,-2.7155,0.0,0.0,0.0,0.0,0.0,0.0,0.0,0.0,0.0,0.0,-2.7582,-2.8138,-2.9611,0.0,-3.1889,-3.3705,-3.4414,-3.4414,-3.4414,-3.5227,-3.6323,-3.6599,-3.5891,0.0,-3.326,-3.2321,-3.1243,0.0,-2.8551,-2.8582,0.0,0.0,0.0,-2.6188,0.0,0.0,0.0,-2.7151,-2.7499,0.0,0.0,0.0,0.0,0.0,0.0,0.0,0.0,0.0,0.0,0.0,0.0,0.0,0.0,0.0,-3.4243,-3.4356,-3.4397,-3.4397,-3.4397,-3.4397,-3.4397,-3.4685,-3.4842,-3.4842,-3.5404,-3.5704,-3.5704,-3.6266,-3.6554,-3.6567,-3.7168,-3.7456,-3.7469,-3.7769,-3.8148,-3.8549,-3.8549,-3.8549,-3.8549,-3.8549,-3.8549,-3.8549,-3.8549,-3.8549,-3.8607,-3.9073,-3.9251,-3.9251,-2.0555,0.0,0.0,-2.2727,-2.3909,-2.5048,-2.5818,-2.5866,-2.5977,0.0,0.0,0.0,0.0,0.0,0.0,0.0,-2.6826,-2.6887,-2.6003,-2.6158,-2.6156,-2.5893,-2.5893,-2.595,-2.6062,-2.6062,-2.6315,-2.6807,0.0,0.0,0.0,0.0,0.0,0.0,0.0,0.0,0.0,0.0,0.0,-2.8679,0.0,-3.1025,-3.245,-3.3854,-3.4414,-3.4428,-3.4559,-3.5328,-3.6388,-3.6889,-3.6187,-3.5032,-3.4828,-3.3702,0.0,0.0,0.0,0.0,0.0,0.0,0.0,0.0,0.0,-2.6759,0.0,0.0,0.0,0.0,0.0,0.0,0.0,0.0,0.0,0.0,0.0,0.0,0.0,0.0,0.0,0.0,0.0,0.0,0.0,-3.4071,-3.4204,-3.4384,-3.4243,-3.4204,-3.4384,-3.4397,-3.4397,-3.4397,-3.4868,-3.5129,-3.5129,-3.5838,-3.6187,-3.6187,-3.6806,-3.7237,-3.752,-3.7844,-3.8545,-3.9461,-3.9461,-3.9461,-3.9461,-3.9461,-3.9461,-3.9461,-3.9285,-3.9285,-3.9549,-4.0332,-4.0603,-4.0603,-2.1452,-2.2848,0.0,0.0,-2.5,-2.6139,-2.579,-2.602,0.0,0.0,0.0,0.0,0.0,0.0,0.0,0.0,0.0,0.0,-2.7613,0.0,-2.7088,-2.5949,-2.5893,-2.6146,-2.6694,-2.6708,-2.6736,-2.6807,0.0,0.0,0.0,0.0,0.0,0.0,-2.9803,0.0,0.0,0.0,-2.9049,0.0,-3.0344,-3.1025,0.0,-3.3854,-3.4414,-3.4486,-3.5087,-3.5706,-3.628,0.0,-3.6136,-3.5869,0.0,-3.4689,-3.486,-3.0186,0.0,0.0,0.0,0.0,0.0,0.0,-2.6337,0.0,0.0,0.0,-2.6459,-2.6584,0.0,0.0,0.0,0.0,0.0,0.0,0.0,0.0,0.0,0.0,0.0,0.0,0.0,0.0,0.0,-3.2947,-3.3487,-3.4332,-3.3645,-3.3513,-3.4345,-3.4397,-3.4397,-3.4397,-3.4463,-3.4502,-3.4502,-3.5782,-3.6452,-3.6452,-3.7086,-3.8053,-3.927,-3.864,-3.9127,-4.0418,-4.0418,-4.0418,-4.0418,-4.0418,-4.0418,-4.0375,-3.9505,-3.9724,-4.0461,-4.0546,-4.0603,-4.0603,-2.2311,-2.3433,0.0,0.0,-2.558,-2.6632,-2.6333,-2.6236,0.0,0.0,0.0,0.0,0.0,0.0,0.0,0.0,0.0,-2.9655,0.0,0.0,0.0,-2.6435,-2.6084,-2.602,-2.6273,-2.6287,-2.6287,-2.6287,-2.7537,0.0,0.0,0.0,0.0,0.0,-3.0171,0.0,-2.9393,0.0,-2.9891,0.0,0.0,0.0,0.0,-3.3999,-3.4414,-3.4443,-3.4719,-3.5212,-3.5807,0.0,-3.5666,0.0,0.0,0.0,0.0,-3.2517,0.0,0.0,0.0,0.0,0.0,0.0,0.0,0.0,-2.6571,0.0,-2.6213,0.0,0.0,0.0,0.0,0.0,0.0,0.0,-2.7324,0.0,0.0,0.0,0.0,0.0,0.0,0.0,0.0,0.0,0.0,0.0,-3.3433,-3.3289,-3.4332,-3.4868,-3.5155,-3.5155,-3.5615,-3.5642,-3.5155,-3.6209,-3.6493,-3.6049,-3.7099,-3.7977,-3.8541,-3.8547,-3.9368,-4.0836,-4.0836,-4.105,-4.1421,-4.1421,-4.1421,-4.138,-4.0986,-4.1071,-4.1463,-4.1976,-4.2181,-4.2181,-2.3875,0.0,0.0,0.0,0.0,-2.6826,-2.6769,0.0,0.0,0.0,0.0,0.0,-2.7847,-2.8812,0.0,0.0,-3.1182,-3.1415,0.0,0.0,-2.9136,0.0,0.0,0.0,-2.6689,-2.6172,-2.5893,-2.5893,-2.7186,0.0,0.0,0.0,0.0,0.0,0.0,-3.0463,-2.991,0.0,0.0,-3.165,-3.151,-3.2213,-3.3415,-3.4134,-3.4414,-3.4481,-3.4414,-3.4854,-3.5505,-3.5691,-3.525,0.0,-3.6838,0.0,-3.4775,0.0,0.0,0.0,-2.967,0.0,0.0,0.0,0.0,0.0,0.0,0.0,0.0,0.0,0.0,0.0,0.0,0.0,0.0,0.0,0.0,-2.7927,0.0,0.0,0.0,0.0,0.0,0.0,0.0,0.0,0.0,-3.3822,-3.2908,-3.3014,-3.4678,-3.5114,-3.5548,-3.6002,-3.6385,-3.6399,-3.6042,-3.6869,-3.6947,-3.6387,-3.7425,-3.8129,-3.8535,-3.866,-3.9576,-4.1105,-4.1105,-4.147,-4.2111,-4.2111,-4.2213,-4.2374,-4.2374,-4.2374,-4.2456,-4.309,-4.329,-4.329,-2.6499,-2.5991,0.0,0.0,0.0,0.0,0.0,0.0,0.0,0.0,0.0,0.0,0.0,0.0,0.0,0.0,0.0,-3.4822,-3.2911,0.0,-3.1523,0.0,0.0,-2.7302,0.0,-2.6858,-2.5893,-2.5893,0.0,0.0,0.0,0.0,0.0,0.0,0.0,-3.0463,-2.9938,-3.0737,-3.1854,-3.3077,-3.2504,-3.2829,-3.3743,0.0,-3.4515,-3.4664,-3.4481,0.0,0.0,-3.4709,-3.5088,0.0,0.0,0.0,0.0,0.0,0.0,0.0,0.0,0.0,0.0,-2.8472,0.0,0.0,0.0,0.0,-2.707,0.0,0.0,0.0,0.0,0.0,0.0,0.0,0.0,0.0,0.0,0.0,0.0,0.0,0.0,0.0,0.0,0.0,-3.0467,-3.262,-3.1832,-3.2545,-3.5507,-3.4868,-3.5182,-3.6802,-3.6122,-3.6082,-3.6841,-3.7706,-3.8165,-3.8127,-3.8179,-3.8942,-4.0286,-3.9437,-3.9933,-4.1376,-4.1376,-4.1788,-4.2387,-4.2387,-4.2722,-4.325,-4.325,-4.325,-4.325,-4.329,-4.329,-4.329,0.0,0.0,0.0,0.0,0.0,0.0,0.0,-2.6035,0.0,0.0,0.0,0.0,0.0,-3.2682,-3.3591,0.0,0.0,-3.5401,-3.4482,-3.3245,0.0,0.0,0.0,-2.7884,0.0,0.0,0.0,0.0,0.0,0.0,0.0,0.0,0.0,0.0,0.0,-3.0768,0.0,0.0,0.0,0.0,0.0,-3.3054,-3.3718,0.0,-3.3908,-3.4083,-3.4541,-3.4848,0.0,-3.5307,-3.5056,-3.492,-3.6491,-3.6384,-3.5716,-3.6043,-3.5863,-3.5204,0.0,0.0,-3.449,-3.1117,0.0,0.0,0.0,0.0,0.0,0.0,0.0,0.0,0.0,0.0,0.0,0.0,0.0,0.0,0.0,0.0,0.0,0.0,0.0,0.0,0.0,0.0,0.0,-3.262,-3.2876,-3.3781,-3.5614,-3.6452,-3.7169,-3.7744,-3.8008,-3.8008,-3.7744,-3.8575,-3.8738,-3.8202,-3.8738,-3.9275,-3.9717,-3.9431,-3.9825,-4.0726,-4.0726,-4.11,-4.1752,-4.1752,-4.2141,-4.2686,-4.2686,-4.2955,-4.329,-4.329,-4.329,-4.329,-2.7172,0.0,0.0,0.0,0.0,0.0,0.0,0.0,0.0,0.0,-3.0879,0.0,-3.3425,0.0,-3.4983,0.0,-3.6512,-3.6492,-3.5606,-3.4743,0.0,-3.3382,-3.0944,0.0,0.0,0.0,0.0,0.0,0.0,-2.7428,0.0,0.0,0.0,0.0,0.0,0.0,-3.0831,0.0,-3.2745,0.0,0.0,-3.3081,0.0,0.0,-3.3466,-3.3809,0.0,-3.4883,-3.4957,-3.5503,-3.5304,-3.5162,-3.6837,-3.6645,-3.6056,-3.7139,-3.681,-3.6012,-3.5316,-3.6018,0.0,-3.3261,-3.3344,0.0,-3.0072,0.0,-2.8921,0.0,0.0,0.0,0.0,0.0,0.0,0.0,0.0,0.0,0.0,-2.8476,0.0,0.0,0.0,0.0,0.0,0.0,-3.1065,-3.2769,-3.3339,-3.431,-3.5808,-3.7068,-3.8023,-3.8627,-3.8848,-3.8848,-3.8627,-3.9156,-3.9156,-3.8612,-3.9156,-3.9388,-3.9388,-3.9388,-3.9649,-4.0053,-4.0053,-4.0427,-4.1025,-4.1025,-4.1452,-4.2051,-4.2051,-4.2267,-4.2686,-4.3125,-4.329,-4.326,0.0,0.0,0.0,0.0,-2.5326,0.0,0.0,0.0,-2.9127,0.0,-3.1983,-3.2788,-3.4257,-3.5594,-3.6421,-3.6421,-3.7883,-3.809,-3.6415,-3.6538,0.0,0.0,-3.4434,-3.4112,-3.5514,0.0,0.0,0.0,0.0,0.0,0.0,0.0,0.0,0.0,-2.8984,0.0,-3.0276,-3.1432,-3.2988,-3.4526,-3.3314,-3.2989,-3.3192,-3.3083,-3.3338,-3.3809,-3.4633,-3.5034,-3.5228,-3.5258,-3.5821,-3.6492,-3.6552,-3.6985,-3.7584,-3.8197,-3.8392,-3.8222,-3.7486,-3.7734,-3.7573,-3.4882,-3.4612,0.0,0.0,0.0,-3.1598,0.0,0.0,0.0,0.0,0.0,0.0,0.0,0.0,0.0,0.0,0.0,0.0,0.0,0.0,0.0,0.0,-2.9594,-3.0088,-3.294,-3.3213,-3.4143,0.0,-3.6698,-3.7695,-3.9337,-3.8664,-3.8627,-3.9388,-3.9388,-3.9388,-3.9388,-3.9388,-3.9388,-3.9388,-3.9388,-3.9388,-3.9388,-3.9388,-3.9768,-4.0352,-4.0352,-4.0741,-4.1324,-4.1324,-4.1354,-4.1534,-4.2737,-4.32,-4.311,-2.7136,-2.6587,-2.6206,0.0,-2.5899,-2.615,0.0,0.0,0.0,0.0,-3.3843,-3.514,-3.7107,-3.7834,-3.8139,-3.8139,-3.8564,0.0,0.0,0.0,0.0,-3.729,-3.5172,-3.4646,-3.6056,-3.2679,-3.0923,-3.0932,0.0,0.0,-2.814,0.0,0.0,0.0,0.0,0.0,-3.0002,-3.0574,-3.1878,-3.3587,-3.3372,-3.3192,-3.3143,0.0,-3.4038,-3.405,-3.499,-3.5294,-3.5302,-3.5959,-3.6309,-3.6656,-3.7599,-3.8003,-3.8167,-3.8347,-3.8392,-3.8347,-3.8162,-3.8237,-3.8167,-3.731,-3.6801,-3.6009,0.0,0.0,0.0,0.0,0.0,0.0,0.0,0.0,0.0,0.0,0.0,0.0,0.0,0.0,0.0,-2.9135,0.0,0.0,-2.8857,-2.9697,-3.0877,-3.236,-3.3367,-3.5049,-3.7541,0.0,-3.7923,-3.9343,-3.9192,-3.9192,-3.9388,-3.9388,-3.9388,-3.9388,-3.9388,-3.9388,-3.9388,-3.9388,-3.9388,-3.9388,-3.9388,-3.9514,-3.9679,-3.9679,-4.0053,-4.0651,-4.0651,-4.095,-4.1429,-4.1758,-4.1878,-4.1863,-2.7689,0.0,0.0,-2.7183,0.0,0.0,-2.8785,-2.9509,0.0,-3.3524,-3.5033,0.0,-3.7541,-3.8472,-3.9013,-3.9013,-3.9013,0.0,-3.8071,0.0,0.0,-3.775,-3.6898,-3.6816,-3.7593,-3.4994,0.0,-3.2635,0.0,0.0,-2.8509,0.0,0.0,0.0,0.0,-2.8469,0.0,-3.1131,-3.257,-3.3683,-3.4122,-3.4243,0.0,-3.4682,-3.4968,-3.5157,-3.6027,-3.6105,-3.5851,-3.6324,-3.6671,-3.7015,-3.7734,-3.7958,-3.8018,-3.8302,-3.8392,-3.8452,-3.8751,-3.8841,-3.873,-3.8376,-3.8171,-3.7608,-3.5986,-3.5676,-3.5523,0.0,-3.4649,-3.4665,0.0,0.0,0.0,0.0,0.0,0.0,0.0,0.0,0.0,0.0,-2.9901,0.0,-2.8912,-3.0033,-3.1367,-3.2686,-3.3481,-3.4567,0.0,0.0,-3.7764,-3.8512,-3.8811,-3.911,-3.9388,-3.9125,-3.9125,-3.9388,-3.9388,-3.9388,-3.9388,-3.9388,-3.9388,-3.9388,-3.9388,-3.9388,-3.9388,-3.9388,-3.9634,-3.9963,-3.9963,-4.0187,-4.0531,-4.0531,-4.0891,-4.1339,-2.8928,0.0,0.0,0.0,0.0,0.0,0.0,-3.1388,0.0,-3.4289,0.0,-3.694,-3.7157,-3.8537,-3.9481,-3.958,0.0,-3.9158,-3.8202,-3.895,-3.9009,-3.8038,-3.8844,-3.9299,-3.9299,-3.7633,-3.6023,0.0,0.0,0.0,0.0,0.0,0.0,0.0,0.0,0.0,0.0,-3.2256,-3.392,-3.4445,-3.5226,-3.5518,-3.5534,-3.5626,-3.609,-3.6755,-3.731,-3.714,-3.6625,-3.6705,-3.709,-3.7554,-3.7644,-3.7674,-3.7764,-3.8242,-3.8392,-3.8527,-3.9125,-3.929,-3.917,-3.8646,-3.8901,-3.8841,-3.712,-3.709,-3.7285,-3.6836,-3.6282,-3.6193,-3.7225,0.0,0.0,0.0,0.0,0.0,0.0,0.0,0.0,0.0,0.0,0.0,-3.0068,-3.0509,-3.1499,-3.3226,-3.3304,-3.3455,0.0,0.0,-3.7315,-3.7659,-3.8227,-3.8766,-3.9239,-3.8781,-3.8781,-3.929,-3.9379,-3.9388,-3.9388,-3.9388,-3.9388,-3.9388,-3.9388,-3.9388,-3.9388,-3.9388,-3.9388,-3.9388,-3.9388,-3.9388,-3.9388,-3.9388,-4.0142,-4.104,0.0,0.0,0.0,0.0,0.0,-3.3087,-3.4253,-3.4471,-3.4929,-3.61,-3.7046,-3.8136,-3.9615,-4.0034,-4.0442,-4.0978,-4.1028,0.0,0.0,0.0,0.0,-3.908,-3.9206,-3.9299,-3.9299,-3.7822,-3.6299,0.0,0.0,0.0,0.0,0.0,0.0,0.0,0.0,0.0,-3.0758,-3.2136,0.0,-3.5235,-3.5943,-3.6211,-3.6274,-3.6841,-3.7503,-3.8163,-3.8259,-3.7841,-3.734,-3.788,-3.8123,-3.8317,-3.8886,-3.9065,-3.8975,-3.8527,-3.8392,-3.8422,-3.8542,-3.8571,-3.8676,-3.9125,-3.8901,-3.8482,-3.8138,-3.7719,-3.7539,-3.7958,-3.7958,-3.7778,-3.7464,0.0,0.0,0.0,0.0,0.0,0.0,0.0,0.0,0.0,0.0,-3.2466,0.0,-3.097,-3.1304,-3.2591,-3.2153,-3.3259,0.0,0.0,-3.6836,0.0,-3.917,0.0,0.0,0.0,-3.902,-3.8571,-3.9155,-3.9388,-3.9388,-3.9388,-3.9388,-3.9388,-3.9388,-3.9388,-3.9388,-3.9388,-3.9388,-3.9388,-3.9388,-3.9388,-3.9388,-3.9388,-3.9574,-3.9753,0.0,0.0,0.0,0.0,0.0,0.0,0.0,-3.7059,-3.7754,-3.7318,-3.7919,-3.8684,-3.9528,-4.0381,-4.1044,-4.1375,-4.1409,-4.1276,-4.0945,-4.0912,-4.0597,-3.9912,-3.9879,-3.9696,-3.9315,-3.8619,-3.7135,-3.4899,0.0,0.0,0.0,0.0,0.0,0.0,0.0,-2.9674,0.0,0.0,0.0,-3.6444,-3.7122,-3.7383,-3.7463,-3.8168,-3.8649,-3.9079,-3.9786,-3.9828,-3.9519,-3.9499,-3.9508,-3.9545,-3.9879,-3.9717,-3.9349,-3.902,-3.8931,-3.8931,-3.8931,-3.8931,-3.8916,-3.8901,-3.8901,-3.8826,-3.8467,-3.8138,-3.8003,-3.8317,-3.8123,-3.7584,-3.6611,-3.5654,0.0,0.0,0.0,0.0,0.0,0.0,-3.4896,0.0,0.0,0.0,0.0,0.0,0.0,0.0,0.0,-3.2781,-3.5729,0.0,-3.6387,0.0,0.0,0.0,-3.8931,0.0,-3.8901,-3.8931,-3.926,-3.9388,-3.9388,-3.9388,-3.9388,-3.9388,-3.9388,-3.9388,-3.9388,-3.9388,-3.9388,-3.9388,-3.9388,-3.9388,-3.9388,-3.9388,-3.9388,-3.9388,0.0,-3.2999,0.0,0.0,-3.5558,0.0,-3.7052,-3.9067,-4.0062,-3.8552,-3.8985,-3.9484,-3.966,-4.0821,-4.1678,-4.1844,-4.186,-4.1794,-4.1629,-4.1612,-4.1342,-4.063,-4.0492,-4.0144,-3.9547,-3.9381,-3.8022,0.0,0.0,0.0,0.0,0.0,0.0,0.0,0.0,0.0,0.0,0.0,-3.6659,-3.7764,-3.8307,-3.8616,-3.8828,-3.9398,-3.9805,-4.0212,-4.1322,-4.1827,-4.1866,-4.1354,-4.0953,-4.0703,-4.0703,-4.0216,-3.961,-3.961,-3.9517,-3.9388,-3.9388,-3.9388,-3.9254,-3.8736,-3.8901,-3.905,-3.8512,-3.8287,-3.8182,-3.8182,-3.7764,-3.706,-3.5923,-3.5714,0.0,0.0,0.0,0.0,0.0,0.0,0.0,0.0,0.0,0.0,-3.3978,0.0,0.0,0.0,0.0,-3.2751,-3.4592,-3.5205,-3.6088,0.0,0.0,-3.8377,-3.8796,0.0,-3.8811,-3.92,-3.9313,-3.9388,-3.9388,-3.9388,-3.9388,-3.9388,-3.9388,-3.9388,-3.9388,-3.9388,-3.9388,-3.9388,-3.9388,-3.9388,-3.9388,-3.9388,-3.9388,-3.9388,0.0,0.0,0.0,0.0,0.0,0.0,-3.8743,-4.0249,-4.1044,-4.0255,-4.0751,-4.1418,-4.208,-4.2307,-4.2655,-4.3333,-4.3383,-4.3102,-4.2423,-4.239,-4.2059,-4.1342,-4.0713,-4.0376,-4.031,-3.9647,-3.852,0.0,0.0,-3.3437,0.0,0.0,0.0,0.0,0.0,0.0,0.0,-3.6155,-3.7359,-3.9119,-3.9185,-3.9615,-4.0211,-4.0277,-4.1092,-4.2233,-4.2352,-4.2831,-4.3393,-4.3317,-4.2442,-4.1393,-4.1393,-4.094,-4.0409,-4.0409,-3.9915,-3.9388,-3.9388,-3.9388,-3.9373,-3.9298,-3.8901,-3.8467,-3.8407,-3.7928,-3.7494,-3.7494,-3.7449,-3.721,-3.6522,-3.6402,-3.6178,0.0,0.0,0.0,0.0,0.0,-3.7689,-3.6537,0.0,0.0,0.0,-3.3619,0.0,0.0,-3.3679,-3.3933,-3.5325,-3.5474,-3.6088,-3.7375,-3.7464,-3.727,-3.6776,-3.8467,-3.9035,-3.8497,-3.9125,-3.9388,-3.9388,-3.9388,-3.9388,-3.9388,-3.9388,-3.9388,-3.9388,-3.9388,-3.9388,-3.9388,-3.9388,-3.9388,-3.9388,-3.9388,-3.9388,-3.9388,0.0,0.0,0.0,0.0,0.0,0.0,0.0,-4.1397,-4.1972,-4.1707,-4.1905,-4.2324,-4.3069,-4.3151,-4.3267,-4.3565,-4.3598,-4.3466,-4.3168,-4.3151,-4.282,-4.2075,-4.1806,-4.1458,-4.1011,-4.0326,-3.9249,0.0,0.0,0.0,0.0,0.0,0.0,0.0,0.0,-3.5182,-3.6838,-3.7719,-3.855,-3.9332,-3.9779,-4.0144,-4.0492,-4.1342,-4.2021,-4.2555,-4.2986,-4.335,-4.3598,-4.3598,-4.2974,-4.2158,-4.2158,-4.1656,-4.1093,-4.1093,-4.0891,-4.0668,-4.0668,-4.0668,-4.0668,-4.0668,-4.0452,-4.0149,-3.9753,-3.9146,-3.8417,-3.7582,-3.6806,-3.6193,-3.5938,-3.5893,-3.5938,-3.6073,0.0,0.0,0.0,0.0,0.0,-3.6596,0.0,-3.5639,0.0,0.0,0.0,0.0,0.0,-3.326,-3.5385,-3.5115,-3.5669,-3.736,0.0,-3.7883,-3.7629,-3.8811,-3.929,-3.9005,-3.929,-3.9388,-3.9388,-3.9388,-3.9388,-3.9388,-3.9388,-3.9388,-3.9388,-3.9388,-3.9388,-3.9388,-3.9388,-3.9388,-3.9388,-3.9388,-3.9388,-3.9388,-3.87,0.0,-3.8986,0.0,-4.0445,-4.0652,-4.1569,-4.2484,-4.2978,-4.2833,-4.2949,-4.3194,-4.3562,-4.3598,-4.3598,-4.3598,-4.3598,-4.3598,-4.3598,-4.3598,-4.3367,-4.2837,-4.2605,0.0,-4.1711,-4.1044,-4.0083,-3.8858,-3.7367,0.0,0.0,0.0,0.0,0.0,-3.6235,-3.6992,-3.7831,-3.91,-3.963,-3.9696,-4.0426,-4.0812,-4.1127,-4.2137,-4.2622,-4.2886,-4.34,-4.3598,-4.3598,-4.3598,-4.3295,-4.2881,-4.2881,-4.2412,-4.1819,-4.1819,-4.1656,-4.1492,-4.1492,-4.1492,-4.1492,-4.1492,-4.1492,-4.1393,-4.0907,-4.0432,-3.9709,-3.8284,-3.697,-3.6023,-3.5795,-3.5619,-3.5594,-3.5863,0.0,0.0,0.0,-3.7319,0.0,-3.6567,-3.6051,-3.5595,-3.5117,-3.3694,0.0,0.0,0.0,-3.3021,-3.5085,-3.4936,-3.5504,0.0,0.0,0.0,-3.8108,-3.8975,-3.9388,-3.9388,-3.9388,-3.9388,-3.9388,-3.9388,-3.9388,-3.9388,-3.9388,-3.9388,-3.9388,-3.9388,-3.9388,-3.9388,-3.9388,-3.9388,-3.9388,-3.9388,-3.9388,-3.9388,-4.0612,-4.048,-4.0704,-4.2364,-4.2236,-4.1999,-4.2415,-4.3509,-4.4121,-4.3641,-4.3977,-4.4093,-4.3658,-4.3598,-4.3598,-4.3598,-4.3598,-4.3598,-4.3598,-4.3598,-4.3598,0.0,0.0,-4.2489,-4.2473,-4.1744,-4.1061,-4.0376,0.0,0.0,-3.7036,0.0,-3.5678,-3.7069,-3.7102,-3.7897,-3.9332,-4.0078,-4.0393,-4.0459,-4.1127,-4.1811,-4.2473,-4.2489,-4.2936,-4.3582,-4.3598,-4.3598,-4.3598,-4.3598,-4.3598,-4.3598,-4.3598,-4.3143,-4.2585,-4.2585,-4.2078,-4.1492,-4.1492,-4.1492,-4.1492,-4.1492,-4.1492,-4.1492,-4.1492,-4.1477,-4.1082,-3.9661,-3.8372,-3.7263,-3.6522,-3.591,-3.5295,-3.4638,0.0,0.0,0.0,-3.7138,0.0,-3.6553,-3.6399,-3.6392,-3.6469,-3.4651,0.0,0.0,0.0,0.0,0.0,0.0,0.0,-3.6477,-3.7105,0.0,-3.7419,-3.8751,-3.9388,-3.9388,-3.9388,-3.9388,-3.9388,-3.9388,-3.9388,-3.9388,-3.9388,-3.9388,-3.9388,-3.9388,-3.9388,-3.9388,-3.9388,-3.9388,-3.9388,-3.9388,-3.9388,-3.9388,-4.2888,-4.2829,-4.2951,-4.3724,-4.3718,-4.3706,-4.4078,-4.4455,-4.4652,-4.4513,-4.4625,-4.4652,-4.4513,-4.3977,-4.3598,0.0,-4.3598,-4.3598,0.0,-4.3598,-4.3598,-4.3598,-4.3367,-4.3251,-4.3251,-4.2522,-4.2054,-4.1839,0.0,0.0,0.0,-3.8354,-3.8659,-4.0017,-3.9553,-3.9852,-4.0746,-4.0978,-4.1077,-4.1143,-4.1844,-4.2274,-4.2539,-4.3052,-4.34,-4.3598,-4.3598,-4.3598,-4.3598,-4.3598,-4.3598,-4.3598,-4.3598,-4.3462,-4.3265,-4.3265,-4.3113,-4.2927,-4.2927,-4.2927,-4.2927,-4.2927,-4.2927,-4.2803,-4.2349,-4.1502,-4.0688,-4.0246,-3.9109,-3.8089,-3.7885,-3.7248,-3.6722,-3.6503,-3.681,0.0,-3.6787,0.0,-3.6636,-3.5754,-3.5125,-3.5009,-3.5604,-3.4614,0.0,0.0,0.0,0.0,0.0,0.0,0.0,0.0,-3.7524,0.0,-3.8078,-3.8975,-3.9388,-3.9388,-3.9388,-3.9388,-3.9388,-3.9388,-3.9388,-3.9388,-3.9388,-3.9388,-3.9388,-3.9388,-3.9388,-3.9388,-3.9388,-3.9388,-3.9388,-3.9388,-3.9388,-3.9388,-4.4343,-4.4571,-4.4778,-4.4834,-4.4845,-4.4854,-4.4895,-4.5045,-4.5098,-4.4937,-4.5045,-4.5098,-4.491,-4.4429,0.0,-4.3877,-4.3717,-4.3598,-4.3598,-4.3598,-4.3598,-4.3598,-4.3598,-4.3598,-4.3598,-4.3135,0.0,-4.2489,-4.1342,-4.0763,-4.0763,-4.0282,-4.0564,-4.1364,-4.0961,-4.1011,-4.1425,-4.1678,-4.1794,-4.1889,-4.2605,-4.2903,-4.2953,-4.3416,-4.3598,-4.3598,-4.3598,-4.3598,-4.3598,-4.3598,-4.3598,-4.3598,-4.3598,-4.3598,-4.3598,-4.3598,-4.3598,-4.3598,-4.3598,-4.3598,-4.3598,-4.3598,-4.3598,-4.3492,-4.3066,-4.2291,-4.1575,-4.1302,-4.0169,-3.9184,-3.8882,-3.8052,-3.7399,-3.7399,-3.7605,-3.7626,-3.7313,0.0,-3.6669,0.0,0.0,0.0,0.0,-3.5256,-3.5118,0.0,0.0,0.0,0.0,0.0,-3.6522,-3.7973,-3.877,-3.9193,-3.9193,-3.9328,-3.9388,-3.9388,-3.9388,-3.9388,-3.9424,-3.9681,-3.9646,-3.9424,-3.9681,-3.9646,-3.9388,-3.9388,-3.9388,-3.9388,-3.9388,-3.9388,-3.9388,-3.9388,-3.9388,-3.9388,-4.5185,-4.5723,-4.6073,-4.5727,-4.5632,-4.5503,-4.5045,-4.5354,-4.5485,-4.5045,-4.5381,-4.5477,-4.5045,-4.4964,-4.4818,-4.4435,0.0,0.0,-4.37,-4.37,-4.3671,-4.3658,-4.3658,-4.3611,-4.3598,-4.3598,-4.3251,-4.2572,-4.1877,-4.1546,-4.1546,-4.1508,-4.1496,-4.1546,-4.1508,-4.1496,-4.1595,-4.2274,-4.2572,-4.2638,-4.3317,-4.3598,-4.3598,-4.3598,-4.3598,-4.3598,-4.3598,-4.3598,-4.3598,-4.3598,-4.3598,-4.3598,-4.3598,-4.3598,-4.3598,-4.3598,-4.3598,-4.3598,-4.3598,-4.3598,-4.3598,-4.3598,-4.3598,-4.3598,-4.3598,-4.3598,-4.34,-4.2704,-4.1537,-4.042,-3.9661,-3.8469,-3.7594,-3.7546,-3.7962,-3.7987,-3.7189,-3.7664,-3.7613,0.0,0.0,0.0,-3.652,-3.6515,-3.6756,0.0,0.0,0.0,0.0,0.0,-3.792,-4.0404,-4.0567,-4.0581,-4.0581,-3.9844,-3.9496,-3.9496,-3.9496,-3.9517,-3.9589,-4.025,-4.0181,-3.9589,-4.0216,-4.0111,-3.9481,-3.9409,-3.9388,-3.9388,-3.9388,-3.9388,-3.9388,-3.9388,-3.9388,-3.9388,0.0,0.0,-4.6172,-4.6073,-4.6073,-4.6005,-4.5905,-4.598,-4.6023,-4.5905,-4.598,-4.6023,-4.5887,-4.5632,-4.5398,-4.5292,-4.4855,-4.458,-4.458,-4.458,-4.4457,-4.4167,-4.4121,-4.3964,-4.3598,-4.3598,-4.3515,-4.3333,-4.3151,-4.3069,-4.3069,-4.2489,-4.2539,-4.3035,-4.2473,-4.2539,-4.3085,-4.3267,-4.3333,-4.335,-4.3532,-4.3598,-4.3598,-4.3598,-4.3598,-4.3598,-4.3598,-4.3598,-4.3598,-4.3598,-4.3598,-4.3598,-4.3598,-4.3598,-4.3598,-4.3598,-4.3598,-4.3598,-4.3598,-4.3598,-4.3598,-4.3598,-4.3598,-4.3598,-4.3598,-4.3598,-4.3549,-4.3367,-4.265,-4.1791,-4.1049,-4.0257,-3.9499,-3.8942,-3.84,-3.8017,-3.7923,-3.7508,-3.7122,0.0,-3.6788,-3.7016,-3.7701,-3.7687,-3.7546,0.0,0.0,-3.8476,-3.9231,-3.95,-3.9918,-4.0467,-4.0982,-4.126,-4.126,-4.0581,-4.025,-4.025,-4.025,-4.0512,-4.0992,-4.1194,-4.116,-4.0992,-4.065,-4.0409,-4.0216,-3.961,-3.9388,-3.9388,-3.9388,-3.9388,-3.9388,-3.9388,-3.9388,-3.9388,-4.6196,-4.6196,-4.6196,-4.6196,-4.6196,-4.6196,-4.6196,-4.6196,-4.6196,-4.6196,-4.6196,-4.6196,-4.6196,-4.6023,-4.5879,-4.5879,-4.5275,-4.491,-4.491,-4.491,-4.4801,-4.4569,-4.4569,-4.4361,-4.3935,-4.3906,-4.3818,-4.3598,-4.3598,-4.3598,-4.3582,-4.3184,-4.3218,-4.3582,-4.3168,-4.3218,-4.3598,-4.3598,-4.3598,-4.3598,-4.3598,-4.3598,-4.3598,-4.3598,-4.3598,-4.3598,-4.3598,-4.3598,-4.3598,-4.3598,-4.3598,-4.3598,-4.3598,-4.3598,-4.3598,-4.3598,-4.3598,-4.3598,-4.3598,-4.3598,-4.3598,-4.3598,-4.3598,-4.3598,-4.3598,-4.3598,-4.3598,-4.3598,-4.3002,-4.2373,-4.1976,-4.1077,-4.0276,-3.9879,-3.8838,-3.8107,-3.8107,-3.7463,-3.7133,-3.7463,-3.7496,-3.7819,-3.8626,-3.8954,-3.8984,-3.8734,-3.9373,0.0,-4.0832,-4.1258,-4.1605,-4.1923,-4.1965,-4.2013,-4.2013,-4.1294,-4.0974,-4.0974,-4.0974,-4.116,-4.1525,-4.1852,-4.1819,-4.1492,-4.1459,-4.1276,-4.094,-4.0547,-4.0374,-4.0374,-4.0374,-4.0181,-3.9915,-3.9915,-3.9681,-3.9445,-4.6319,-4.6295,-4.627,-4.627,-4.6221,-4.6196,-4.6246,-4.6221,-4.6196,-4.6246,-4.6221,-4.6196,-4.6196,-4.6196,-4.6196,-4.6196,-4.5511,-4.5098,-4.5098,-4.5098,-4.5072,-4.5018,-4.5018,-4.4818,-4.4406,-4.4378,-4.4207,-4.3789,-4.373,-4.3717,-4.37,-4.3611,-4.3598,-4.3598,-4.3598,-4.3598,-4.3598,-4.3598,-4.3598,-4.3598,-4.3598,-4.3598,-4.3598,-4.3598,-4.3598,-4.3598,-4.3598,-4.3598,-4.3598,-4.3598,-4.3598,-4.3598,-4.3598,-4.3598,-4.3598,-4.3598,-4.3598,-4.3598,-4.3598,-4.3598,-4.3598,-4.3598,-4.3598,-4.3598,-4.3598,-4.3598,-4.3598,-4.3598,-4.3085,-4.2622,-4.2506,-4.1524,-4.0625,-4.0293,-3.9063,-3.81,-3.789,0.0,-3.734,-3.8121,-3.8381,-3.8825,-3.9564,-4.0194,-4.0531,-4.0531,-4.1177,-4.1827,-4.2456,-4.2605,-4.2936,-4.3582,-4.3035,-4.271,-4.2617,-4.1981,-4.1656,-4.1656,-4.1656,-4.1722,-4.1852,-4.2491,-4.2412,-4.1852,-4.238,-4.2253,-4.1656,-4.1558,-4.1492,-4.1492,-4.1492,-4.1093,-4.0512,-4.0512,-4.0021,-3.9517,-4.6865,-4.6684,-4.6542,-4.6542,-4.6368,-4.627,-4.6495,-4.6343,-4.627,-4.6495,-4.6343,-4.6196,-4.6196,-4.6196,-4.6196,-4.6196,-4.6073,-4.6005,-4.6005,-4.6005,-4.5854,-4.5503,-4.5503,-4.5275,-4.4801,-4.4801,-4.4773,-4.4691,-4.4361,-4.4196,-4.4179,-4.3789,-4.3598,-4.3598,-4.3598,-4.3598,-4.3598,-4.3598,-4.3598,-4.3598,-4.3598,-4.3598,-4.3598,-4.3598,-4.3598,-4.3598,-4.3598,-4.3598,-4.3598,-4.3598,-4.3598,-4.3598,-4.3598,-4.3598,-4.3598,-4.3598,-4.3598,-4.3598,-4.3598,-4.3598,-4.3598,-4.3598,-4.3598,-4.3598,-4.3598,-4.3598,-4.3598,-4.3598,-4.3499,-4.3234,-4.2605,-4.2307,-4.1591,-3.9779,-3.8662,-3.784,-3.7316,0.0,-3.747,-3.8931,-3.9669,-4.0315,-4.1011,-4.1193,-4.1243,-4.1243,-4.191,-4.2373,-4.2489,-4.3085,-4.3466,-4.3598,-4.3492,-4.3174,-4.2617,-4.2491,-4.2412,-4.2412,-4.2412,-4.271,-4.3265,-4.3402,-4.3386,-4.3235,-4.2803,-4.2554,-4.238,-4.1754,-4.1492,-4.1492,-4.1492,-4.1093,-4.0512,-4.0512,-4.0021,-3.9517,-4.6998,-4.6888,-4.6772,-4.6637,-4.6495,-4.6447,-4.659,-4.6495,-4.6495,-4.6795,-4.6702,-4.6584,-4.6423,-4.6416,-4.6368,-4.6196,-4.6196,-4.6196,-4.6196,-4.6196,-4.6122,-4.593,-4.593,-4.5709,-4.5275,-4.5018,-4.491,-4.491,-4.4691,-4.4625,-4.4625,-4.4401,-4.4191,-4.3993,-4.3993,-4.3848,-4.3598,-4.3598,-4.3598,-4.3598,-4.3598,-4.3598,-4.3598,-4.3598,-4.3598,-4.3598,-4.3598,-4.3598,-4.3598,-4.3598,-4.3598,-4.3598,-4.3598,-4.3598,-4.3598,-4.3598,-4.3598,-4.3598,-4.3598,-4.3598,-4.3598,-4.3598,-4.3598,-4.3598,-4.3598,-4.3598,-4.3598,-4.3598,-4.3598,-4.3499,-4.3151,-4.2754,-4.2054,-4.0663,-3.9781,-3.9202,-3.8924,-3.8821,-3.9202,-4.0299,-4.0729,-4.1061,-4.1375,-4.1744,-4.1976,-4.1976,-4.2671,-4.3085,-4.3085,-4.3416,-4.3598,-4.3598,-4.3598,-4.3462,-4.3143,-4.3143,-4.3143,-4.3143,-4.3143,-4.3295,-4.3598,-4.3598,-4.3598,-4.3582,-4.3265,-4.3143,-4.3096,-4.2772,-4.2632,-4.2632,-4.2632,-4.2221,-4.1624,-4.1624,-4.116,-4.0634,-4.716,-4.7116,-4.6985,-4.6801,-4.6731,-4.6708,-4.6754,-4.6731,-4.6778,-4.7048,-4.7025,-4.6911,-4.6725,-4.6684,-4.6613,-4.6416,-4.6392,-4.6368,-4.6295,-4.6295,-4.627,-4.6196,-4.6196,-4.6073,-4.5752,-4.5381,-4.5205,-4.5205,-4.5098,-4.5072,-4.5045,-4.4964,-4.4735,-4.4435,-4.435,-4.4109,-4.3759,-4.3658,-4.3598,-4.3598,-4.3598,-4.3598,-4.3598,-4.3598,-4.3598,-4.3598,-4.3598,-4.3598,-4.3598,-4.3598,-4.3598,-4.3598,-4.3598,-4.3598,-4.3598,-4.3598,-4.3598,-4.3598,-4.3598,-4.3598,-4.3598,-4.3598,-4.3598,-4.3598,-4.3598,-4.3598,-4.3598,-4.3598,-4.3598,-4.3598,-4.3598,-4.3135,-4.2456,-4.1558,0.0,-4.0591,-4.0426,-4.0409,-4.0696,-4.1574,-4.1674,-4.1711,-4.1877,-4.2406,-4.2754,-4.2754,-4.3267,-4.3598,-4.3598,-4.3598,-4.3598,-4.3598,-4.3598,-4.3598,-4.3598,-4.3598,-4.3598,-4.3598,-4.3598,-4.3598,-4.3598,-4.3598,-4.3598,-4.3598,-4.3598,-4.3598,-4.3598,-4.3598,-4.3598,-4.3598,-4.3598,-4.3204,-4.2617,-4.2617,-4.2126,-4.1591,-4.7654,-4.7446,-4.7258,-4.7236,-4.7075,-4.7025,-4.7214,-4.7075,-4.7048,-4.7254,-4.7116,-4.6998,-4.6957,-4.6957,-4.6957,-4.6934,-4.6952,-4.6842,-4.659,-4.6566,-4.6447,-4.6196,-4.6196,-4.6189,-4.6147,-4.6122,-4.6097,-4.6097,-4.5735,-4.5555,-4.5555,-4.5098,-4.4882,-4.4828,-4.4491,-4.4265,-4.4224,-4.3789,-4.3598,-4.3598,-4.3598,-4.3598,-4.3598,-4.3598,-4.3598,-4.3598,-4.3598,-4.3598,-4.3598,-4.3598,-4.3598,-4.3598,-4.3598,-4.3598,-4.3598,-4.3598,-4.3598,-4.3598,-4.3598,-4.3598,-4.3598,-4.3598,-4.3598,-4.3598,-4.3598,-4.3598,-4.3598,-4.3598,-4.3598,-4.3598,-4.3598,-4.3549,-4.3035,-4.1612,0.0,0.0,-4.0492,-4.0409,-4.0895,-4.2241,-4.2406,-4.2688,-4.3367,-4.3482,-4.3515,-4.3515,-4.3565,-4.3598,-4.3598,-4.3598,-4.3598,-4.3598,-4.3598,-4.3598,-4.3598,-4.3598,-4.3598,-4.3598,-4.3598,-4.3598,-4.3598,-4.3598,-4.3598,-4.3598,-4.3598,-4.3598,-4.3598,-4.3598,-4.3598,-4.3598,-4.3598,-4.3204,-4.2617,-4.2617,-4.2126,-4.1591,-4.7717,-4.7615,-4.749,-4.7341,-4.7232,-4.7209,-4.728,-4.7232,-4.7276,-4.7511,-4.7468,-4.7359,-4.7209,-4.7187,-4.7138,-4.7002,-4.6998,-4.6975,-4.6865,-4.6842,-4.6655,-4.6221,-4.6196,-4.6196,-4.6196,-4.6196,-4.6196,-4.6196,-4.6048,-4.5955,-4.5955,-4.5786,-4.5563,-4.5328,-4.5186,-4.4927,-4.4652,-4.4485,-4.4401,-4.4373,-4.415,-4.4023,-4.3993,-4.37,-4.3598,-4.3598,-4.3598,-4.3598,-4.3598,-4.3598,-4.3598,-4.3598,-4.3598,-4.3598,-4.3598,-4.3598,-4.3598,-4.3598,-4.3598,-4.3598,-4.3598,-4.3598,-4.3598,-4.3598,-4.3598,-4.3598,-4.3598,-4.3598,-4.3598,-4.3598,-4.3598,-4.3598,-4.3267,-4.2241,0.0,-4.2535,-4.1806,-4.2104,-4.2585,-4.3118,-4.3168,-4.3284,-4.3565,-4.3598,-4.3598,-4.3598,-4.3598,-4.3598,-4.3598,-4.3598,-4.3598,-4.3598,-4.3598,-4.3598,-4.3598,-4.3598,-4.3598,-4.3598,-4.3598,-4.3598,-4.3598,-4.3598,-4.3598,-4.3598,-4.3598,-4.3598,-4.3598,-4.3598,-4.3598,-4.3598,-4.3598,-4.3432,-4.3235,-4.3235,-4.3035,-4.2834,-4.7717,-4.7717,-4.7636,-4.7468,-4.7446,-4.7446,-4.7446,-4.7446,-4.749,-4.7696,-4.7717,-4.7636,-4.7446,-4.7446,-4.7381,-4.7227,-4.7223,-4.7183,-4.7093,-4.6957,-4.6749,-4.6464,-4.644,-4.6416,-4.6343,-4.6319,-4.6295,-4.6196,-4.6196,-4.6196,-4.6196,-4.6196,-4.6048,-4.576,-4.5675,-4.5407,-4.5098,-4.4964,-4.491,-4.4882,-4.4597,-4.4474,-4.4446,-4.4133,-4.3919,-4.3818,-4.3818,-4.3747,-4.3598,-4.3598,-4.3598,-4.3598,-4.3598,-4.3598,-4.3598,-4.3598,-4.3598,-4.3598,-4.3598,-4.3598,-4.3598,-4.3598,-4.3598,-4.3598,-4.3598,-4.3598,-4.3598,-4.3598,-4.3598,-4.3598,-4.3598,-4.3598,-4.3416,-4.292,-4.3267,-4.3416,-4.292,-4.3267,-4.3598,-4.3598,-4.3598,-4.3598,-4.3598,-4.3598,-4.3598,-4.3598,-4.3598,-4.3598,-4.3598,-4.3598,-4.3598,-4.3598,-4.3598,-4.3598,-4.3598,-4.3598,-4.3598,-4.3598,-4.3598,-4.3598,-4.3598,-4.3598,-4.3598,-4.3598,-4.3598,-4.3598,-4.3598,-4.3598,-4.3598,-4.3598,-4.3598,-4.3598,-4.3598,-4.3598,-4.3598,-4.3598,-4.7717,-4.7717,-4.7717,-4.7717,-4.7717,-4.7717,-4.7717,-4.7717,-4.7717,-4.7717,-4.7717,-4.7717,-4.7717,-4.7717,-4.7717,-4.7717,-4.7717,-4.7593,-4.7302,-4.6852,-4.6731,-4.698,-4.6998,-4.6865,-4.6613,-4.659,-4.6471,-4.6214,-4.6214,-4.6214,-4.6214,-4.6214,-4.6214,-4.6196,-4.5803,-4.5606,-4.558,-4.5098,-4.491,-4.491,-4.491,-4.491,-4.491,-4.491,-4.4652,-4.4293,-4.4293,-4.3993,-4.3598,-4.3598,-4.3598,-4.3598,-4.3598,-4.3598,-4.3598,-4.3598,-4.3598,-4.3598,-4.3598,-4.3598,-4.3598,-4.3598,-4.3598,-4.3598,-4.3598,-4.3598,-4.3598,-4.3598,-4.3598,-4.3598,-4.3598,-4.3598,-4.3598,-4.3598,-4.3598,-4.3598,-4.3598,-4.3598,-4.3598,-4.3598,-4.3598,-4.3598,-4.3598,-4.3598,-4.3598,-4.3598,-4.3598,-4.3598,-4.3598,-4.3598,-4.3598,-4.3598,-4.3598,-4.3598,-4.3598,-4.3598,-4.3598,-4.3598,-4.3598,-4.3598,-4.3598,-4.3598,-4.3598,-4.3598,-4.3598,-4.3598,-4.3598,-4.3598,-4.3598,-4.3598,-4.3598,-4.3598,-4.3598,-4.3598,-4.3598,-4.3598,-4.7717,-4.7717,-4.7717,-4.7717,-4.7717,-4.7717,-4.7717,-4.7717,-4.7717,-4.7717,-4.7717,-4.7717,-4.7717,-4.7717,-4.7717,-4.7717,-4.7717,-4.7675,-4.7593,-4.7446,-4.7403,-4.7486,-4.7002,-4.6684,-4.659,-4.6778,-4.6842,-4.6749,-4.6749,-4.6749,-4.6749,-4.6749,-4.6749,-4.6749,-4.6637,-4.6495,-4.6284,-4.6144,-4.597,-4.5786,-4.5485,-4.5381,-4.5354,-4.5018,-4.4828,-4.4735,-4.4735,-4.4446,-4.408,-4.408,-4.3877,-4.3598,-4.3598,-4.3598,-4.3598,-4.3598,-4.3598,-4.3598,-4.3598,-4.3598,-4.3598,-4.3598,-4.3598,-4.3598,-4.3598,-4.3598,-4.3598,-4.3598,-4.3598,-4.3598,-4.3598,-4.3598,-4.3598,-4.3598,-4.3598,-4.3598,-4.3598,-4.3598,-4.3598,-4.3598,-4.3598,-4.3598,-4.3598,-4.3598,-4.3598,-4.3598,-4.3598,-4.3598,-4.3598,-4.3598,-4.3598,-4.3598,-4.3598,-4.3598,-4.3598,-4.3598,-4.3598,-4.3598,-4.3598,-4.3598,-4.3598,-4.3598,-4.3598,-4.3598,-4.3598,-4.3598,-4.3598,-4.3598,-4.3598,-4.3598,-4.3598,-4.3598,-4.3598,-4.3598,-4.3598,-4.3598,-4.7717,-4.7717,-4.7717,-4.7717,-4.7717,-4.7717,-4.7717,-4.7717,-4.7717,-4.7717,-4.7717,-4.7717,-4.7717,-4.7717,-4.7717,-4.7717,-4.7717,-4.7717,-4.7717,-4.7615,-4.7533,-4.7533,-4.712,-4.6893,-4.6893,-4.703,-4.707,-4.6998,-4.6998,-4.6998,-4.6998,-4.6998,-4.6998,-4.6998,-4.6998,-4.6911,-4.6754,-4.6754,-4.6661,-4.6488,-4.6235,-4.6161,-4.6137,-4.5852,-4.5631,-4.5459,-4.5459,-4.5214,-4.4828,-4.4735,-4.4429,-4.4047,-4.37,-4.3747,-4.3848,-4.3658,-4.3598,-4.3598,-4.3598,-4.3598,-4.3598,-4.3598,-4.3598,-4.3598,-4.3598,-4.3598,-4.3598,-4.3598,-4.3598,-4.3598,-4.3598,-4.3598,-4.3598,-4.3598,-4.3598,-4.3598,-4.3598,-4.3598,-4.3598,-4.3598,-4.3598,-4.3598,-4.3598,-4.3598,-4.3598,-4.3598,-4.3598,-4.3598,-4.3598,-4.3598,-4.3598,-4.3598,-4.3598,-4.3598,-4.3598,-4.3598,-4.3598,-4.3598,-4.3598,-4.3598,-4.3598,-4.3598,-4.3598,-4.3598,-4.3598,-4.3598,-4.3598,-4.3598,-4.3598,-4.3598,-4.3598,-4.3598,-4.3598,-4.3598,-4.3598,-4.3598,-4.7699,-4.7717,-4.7717,-4.7717,-4.7717,-4.7717,-4.7717,-4.7717,-4.7717,-4.7717,-4.7717,-4.7717,-4.7717,-4.7717,-4.7717,-4.7717,-4.7717,-4.7717,-4.7717,-4.7468,-4.7341,-4.7341,-4.7341,-4.7341,-4.7341,-4.7341,-4.7232,-4.7066,-4.7066,-4.7066,-4.7066,-4.7066,-4.7066,-4.7066,-4.7066,-4.7048,-4.7043,-4.7043,-4.702,-4.6998,-4.6998,-4.6998,-4.6998,-4.6998,-4.6719,-4.6358,-4.6358,-4.6116,-4.5699,-4.5433,-4.5171,-4.4811,-4.396,-4.4006,-4.4265,-4.3789,-4.3658,-4.3658,-4.3658,-4.3658,-4.3658,-4.3658,-4.3658,-4.3628,-4.3598,-4.3598,-4.3598,-4.3598,-4.3598,-4.3598,-4.3598,-4.3598,-4.3598,-4.3598,-4.3598,-4.3598,-4.3598,-4.3598,-4.3598,-4.3598,-4.3598,-4.3598,-4.3598,-4.3598,-4.3598,-4.3598,-4.3598,-4.3598,-4.3598,-4.3628,-4.3628,-4.3628,-4.3628,-4.3658,-4.3658,-4.3658,-4.3628,-4.3598,-4.3598,-4.3598,-4.3598,-4.3598,-4.3598,-4.3598,-4.3598,-4.3598,-4.3598,-4.3598,-4.3598,-4.3598,-4.3598,-4.3598,-4.3598,-4.3598,-4.3598,-4.3598,-4.7741,-4.7717,-4.7717,-4.7717,-4.7717,-4.7717,-4.7717,-4.7717,-4.7717,-4.7717,-4.7717,-4.7717,-4.7717,-4.7717,-4.7717,-4.7717,-4.7717,-4.7717,-4.7717,-4.7636,-4.7615,-4.7615,-4.7615,-4.7615,-4.7615,-4.7615,-4.7593,-4.7551,-4.7551,-4.7551,-4.7551,-4.7551,-4.7551,-4.7551,-4.7551,-4.7425,-4.7214,-4.7214,-4.7143,-4.6998,-4.6998,-4.6998,-4.6998,-4.6998,-4.6934,-4.6847,-4.6847,-4.6578,-4.6098,-4.5724,-4.5571,-4.5433,-4.4811,-4.4691,-4.468,-4.4138,-4.3981,-4.3981,-4.3981,-4.3981,-4.3981,-4.3981,-4.3981,-4.3923,-4.3658,-4.3598,-4.3598,-4.3598,-4.3598,-4.3598,-4.3598,-4.3598,-4.3598,-4.3598,-4.3598,-4.3598,-4.3598,-4.3598,-4.3598,-4.3598,-4.3598,-4.3598,-4.3598,-4.3598,-4.3598,-4.3598,-4.3598,-4.3598,-4.3598,-4.3763,-4.3822,-4.3822,-4.3939,-4.3981,-4.3981,-4.3981,-4.3864,-4.3598,-4.3598,-4.3598,-4.3598,-4.3598,-4.3598,-4.3598,-4.3598,-4.3598,-4.3598,-4.3598,-4.3598,-4.3598,-4.3598,-4.3598,-4.3598,-4.3598,-4.3598,-4.3598,-4.817,-4.8012,-4.7891,-4.7891,-4.7804,-4.7717,-4.7717,-4.7717,-4.7717,-4.7717,-4.7717,-4.7717,-4.7717,-4.7717,-4.7717,-4.7717,-4.7717,-4.7717,-4.7717,-4.7717,-4.7717,-4.7717,-4.7717,-4.7717,-4.7717,-4.7717,-4.7717,-4.7717,-4.7717,-4.7717,-4.7717,-4.7717,-4.7717,-4.7717,-4.7717,-4.7615,-4.749,-4.749,-4.7425,-4.7334,-4.7334,-4.7334,-4.7334,-4.7334,-4.7334,-4.7334,-4.7334,-4.708,-4.6707,-4.631,-4.6255,-4.62,-4.5485,-4.5407,-4.5433,-4.4708,-4.4474,-4.4435,-4.4184,-4.4097,-4.4097,-4.4097,-4.4056,-4.3969,-4.3864,-4.3835,-4.3835,-4.3835,-4.3793,-4.3734,-4.3734,-4.3734,-4.3734,-4.3734,-4.3805,-4.3805,-4.3763,-4.3734,-4.3704,-4.3628,-4.3598,-4.3598,-4.3598,-4.3598,-4.3598,-4.3598,-4.3687,-4.3734,-4.3734,-4.3839,-4.3898,-4.3898,-4.3881,-4.3864,-4.3864,-4.3969,-4.391,-4.3734,-4.3805,-4.3822,-4.3734,-4.3734,-4.3687,-4.3598,-4.3598,-4.3598,-4.3598,-4.3598,-4.3598,-4.3598,-4.3598,-4.3598,-4.3598,-4.3598,-4.3598,-4.3598,-4.8605,-4.8383,-4.8192,-4.8192,-4.8012,-4.7847,-4.7847,-4.7847,-4.7827,-4.7783,-4.7783,-4.7762,-4.7717,-4.7717,-4.7717,-4.7717,-4.7717,-4.7717,-4.7717,-4.7717,-4.7717,-4.7717,-4.7717,-4.7717,-4.7717,-4.7717,-4.7717,-4.7717,-4.7717,-4.7717,-4.7717,-4.7717,-4.7717,-4.7717,-4.7717,-4.7717,-4.7717,-4.7717,-4.7717,-4.7717,-4.7717,-4.7717,-4.7717,-4.7717,-4.7717,-4.7717,-4.7717,-4.7572,-4.732,-4.6976,-4.6989,-4.6962,-4.6165,-4.6123,-4.6238,-4.5355,-4.5108,-4.4974,-4.4446,-4.431,-4.4281,-4.4212,-4.4114,-4.4056,-4.4253,-4.4138,-4.401,-4.401,-4.3939,-4.3868,-4.3868,-4.3868,-4.3868,-4.3868,-4.3939,-4.3998,-4.3898,-4.3898,-4.3868,-4.3717,-4.3687,-4.3687,-4.3687,-4.3687,-4.3687,-4.3687,-4.3852,-4.3927,-4.3927,-4.3956,-4.3969,-4.3969,-4.3835,-4.3776,-4.3776,-4.3939,-4.4015,-4.4015,-4.4114,-4.4068,-4.3927,-4.3927,-4.3822,-4.3658,-4.3658,-4.3628,-4.3598,-4.3598,-4.3598,-4.3598,-4.3598,-4.3598,-4.3598,-4.3598,-4.3598,-4.3598,-4.8641,-4.8569,-4.8532,-4.8532,-4.8495,-4.8476,-4.8476,-4.8476,-4.8383,-4.8075,-4.8035,-4.7953,-4.772,-4.7717,-4.7717,-4.7717,-4.7717,-4.7717,-4.7717,-4.7717,-4.7717,-4.7717,-4.7717,-4.7717,-4.7717,-4.7717,-4.7717,-4.7717,-4.7717,-4.7717,-4.7717,-4.7717,-4.7717,-4.7717,-4.7717,-4.7717,-4.7717,-4.7717,-4.7717,-4.7717,-4.7717,-4.7717,-4.7717,-4.7717,-4.7717,-4.7717,-4.7717,-4.7696,-4.7636,-4.7575,-4.7593,-4.749,-4.6908,-4.6794,-4.6707,-4.6098,-4.5925,-4.5825,-4.5276,-4.5135,-4.5045,-4.4637,-4.453,-4.4609,-4.5045,-4.4373,-4.3658,-4.3658,-4.3658,-4.3628,-4.3628,-4.3628,-4.3628,-4.3628,-4.3658,-4.3717,-4.3868,-4.3898,-4.3927,-4.401,-4.4039,-4.4039,-4.4039,-4.4039,-4.4039,-4.4039,-4.4068,-4.4068,-4.4068,-4.4167,-4.4253,-4.4253,-4.4384,-4.4457,-4.4457,-4.4485,-4.4502,-4.4485,-4.4355,-4.4196,-4.4068,-4.4068,-4.3998,-4.3868,-4.3868,-4.3763,-4.3598,-4.3598,-4.3598,-4.3598,-4.3598,-4.3598,-4.3598,-4.3598,-4.3598,-4.3598,-4.9131,-4.8942,-4.8819,-4.8819,-4.8695,-4.8605,-4.8605,-4.8605,-4.855,-4.8402,-4.8212,-4.8055,-4.7951,-4.7785,-4.7717,-4.7717,-4.7717,-4.7717,-4.7717,-4.7717,-4.7717,-4.7717,-4.7717,-4.7717,-4.7717,-4.7717,-4.7717,-4.7717,-4.7717,-4.7717,-4.7717,-4.7717,-4.7717,-4.7717,-4.7717,-4.7717,-4.7717,-4.7717,-4.7717,-4.7717,-4.7717,-4.7717,-4.7717,-4.7717,-4.7717,-4.7717,-4.7717,-4.7717,-4.7717,-4.7717,-4.7717,-4.7657,-4.7407,-4.7341,-4.7236,-4.6707,-4.6566,-4.643,-4.59,-4.5767,-4.5691,-4.5477,-4.539,-4.539,-4.5588,-4.5197,-4.4712,-4.4563,-4.4248,-4.3993,-4.3993,-4.3993,-4.3993,-4.3993,-4.4097,-4.4155,-4.4126,-4.4126,-4.4126,-4.4097,-4.4097,-4.4097,-4.4097,-4.4097,-4.4097,-4.4097,-4.4184,-4.4196,-4.4196,-4.4281,-4.431,-4.431,-4.4327,-4.4315,-4.4315,-4.4384,-4.444,-4.444,-4.4468,-4.4327,-4.4097,-4.4027,-4.3881,-4.3734,-4.3734,-4.3687,-4.3598,-4.3598,-4.3598,-4.3598,-4.3598,-4.3598,-4.3598,-4.3598,-4.3598,-4.3598]},{"header":{"parameterUnit":"m.s-1","parameterCategory":1,"la1":30.6,"la2":28.766,"lo1":-90.7593,"lo2":-88.6598,"dy":0.0162,"dx":0.0183,"nx":116,"ny":114,"refTime":"2023-06-07T18:00:00:Z","depth":0,"parameterNumber":3,"parameterNumberName":"V-component_of_WINDS"},"data":[0.0,0.0,0.0,0.0,0.0,0.0,0.0,0.0,0.0,0.0,0.0,0.0,0.0,0.0,0.0,0.0,0.0,0.0,0.0,0.0,0.0,0.0,0.0,0.0,0.0,0.0,0.0,0.0,0.0,0.0,0.0,0.0,0.0,0.0,0.0,0.0,0.0,0.0,0.0,0.0,0.0,0.0,0.0,0.0,0.0,0.0,0.0,0.0,0.0,0.0,0.0,0.0,0.0,0.0,0.0,0.0,0.0,0.0,0.0,0.0,0.0,0.0,0.0,0.0,0.0,0.0,0.0,0.0,0.0,0.0,0.0,0.0,0.0,0.0,0.0,0.0,0.0,0.0,0.0,0.0,0.0,0.0,0.0,0.0,0.0,0.0,0.0,0.0,0.0,0.0,0.0,0.0,0.0,0.0,0.0,0.0,0.0,0.0,0.0,0.0,0.0,0.0,0.0,0.0,0.0,0.0,0.0,0.0,0.0,0.0,0.0,0.0,0.0,0.0,0.0,0.0,0.0,0.0,0.0,0.0,0.0,0.0,0.0,0.0,0.0,0.0,0.0,0.0,0.0,0.0,0.0,0.0,0.0,0.0,0.0,0.0,0.0,0.0,0.0,0.0,0.0,0.0,0.0,0.0,0.0,0.0,0.0,0.0,0.0,0.0,0.0,0.0,0.0,0.0,0.0,0.0,0.0,0.0,0.0,0.0,0.0,0.0,0.0,0.0,0.0,0.0,0.0,0.0,0.0,0.0,0.0,0.0,0.0,0.0,0.0,0.0,0.0,0.0,0.0,0.0,0.0,0.0,0.0,0.0,0.0,0.0,0.0,0.0,0.0,0.0,0.0,0.0,0.0,0.0,0.0,0.0,0.0,0.0,0.0,0.0,0.0,0.0,0.0,0.0,0.0,0.0,0.0,0.0,0.0,0.0,0.0,0.0,0.0,0.0,0.0,0.0,0.0,0.0,0.0,0.0,0.0,0.0,0.0,0.0,0.0,0.0,0.0,0.0,0.0,0.0,0.0,0.0,0.0,0.0,0.0,0.0,0.0,0.0,0.0,0.0,0.0,0.0,0.0,0.0,0.0,0.0,0.0,0.0,0.0,0.0,0.0,0.0,0.0,0.0,0.0,0.0,0.0,0.0,0.0,0.0,0.0,0.0,0.0,0.0,0.0,0.0,0.0,0.0,0.0,0.0,0.0,0.0,0.0,0.0,0.0,0.0,0.0,0.0,0.0,0.0,0.0,0.0,0.0,0.0,0.0,0.0,0.0,0.0,0.0,0.0,0.0,0.0,0.0,0.0,0.0,0.0,0.0,0.0,0.0,0.0,0.0,0.0,0.0,0.0,0.0,0.0,0.0,0.0,0.0,0.0,0.0,0.0,0.0,0.0,0.0,0.0,0.0,0.0,0.0,0.0,0.0,0.0,0.0,0.0,0.0,0.0,0.0,0.0,0.0,0.0,0.0,0.0,0.0,0.0,0.0,0.0,0.0,0.0,0.0,0.0,0.0,0.0,0.0,0.0,0.0,0.0,0.0,0.0,0.0,0.0,0.0,0.0,0.0,0.0,0.0,0.0,0.0,0.0,0.0,0.0,0.0,0.0,0.0,0.0,0.0,0.0,0.0,0.0,0.0,0.0,0.0,0.0,0.0,0.0,0.0,0.0,0.0,0.0,0.0,0.0,0.0,0.0,0.0,0.0,0.0,0.0,0.0,0.0,0.0,0.0,0.0,0.0,0.0,0.0,0.0,0.0,0.0,0.0,0.0,0.0,0.0,0.0,0.0,0.0,0.0,0.0,0.0,0.0,0.0,0.0,0.0,0.0,0.0,0.0,0.0,0.0,0.0,0.0,0.0,0.0,0.0,0.0,0.0,0.0,0.0,0.0,0.0,0.0,0.0,0.0,0.0,0.0,0.0,0.0,0.0,0.0,0.0,0.0,0.0,0.0,0.0,0.0,0.0,0.0,0.0,0.0,0.0,0.0,0.0,0.0,0.0,0.0,0.0,0.0,0.0,0.0,0.0,0.0,0.0,0.0,0.0,0.0,0.0,0.0,0.0,0.0,0.0,0.0,0.0,0.0,0.0,0.0,0.0,0.0,0.0,0.0,0.0,0.0,0.0,0.0,0.0,0.0,0.0,0.0,0.0,0.0,0.0,0.0,0.0,0.0,0.0,0.0,0.0,0.0,0.0,0.0,0.0,0.0,0.0,0.0,0.0,0.0,0.0,0.0,0.0,0.0,0.0,0.0,0.0,0.0,0.0,0.0,0.0,0.0,0.0,0.0,0.0,0.0,0.0,0.0,0.0,0.0,0.0,0.0,0.0,0.0,0.0,0.0,0.0,0.0,0.0,0.0,0.0,0.0,0.0,0.0,0.0,0.0,0.0,0.0,0.0,0.0,0.0,0.0,0.0,0.0,0.0,0.0,0.0,0.0,0.0,0.0,0.0,0.0,0.0,0.0,0.0,0.0,0.0,0.0,0.0,0.0,0.0,0.0,0.0,0.0,0.0,0.0,0.0,0.0,0.0,0.0,0.0,0.0,0.0,0.0,0.0,0.0,0.0,0.0,0.0,0.0,0.0,0.0,0.0,0.0,0.0,0.0,0.0,0.0,0.0,0.0,0.0,0.0,0.0,0.0,0.0,0.0,0.0,0.0,0.0,0.0,0.0,0.0,0.0,0.0,0.0,0.0,0.0,0.0,0.0,0.0,0.0,0.0,0.0,0.0,0.0,0.0,0.0,0.0,0.0,0.0,0.0,0.0,0.0,0.0,0.0,0.0,0.0,0.0,0.0,0.0,0.0,0.0,0.0,0.0,0.0,0.0,0.0,0.0,0.0,0.0,0.0,0.0,0.0,0.0,0.0,0.0,0.0,0.0,0.0,0.0,0.0,0.0,0.0,0.0,0.0,0.0,0.0,0.0,0.0,0.0,0.0,0.0,0.0,0.0,0.0,0.0,0.0,0.0,0.0,0.0,0.0,0.0,0.0,0.0,0.0,0.0,0.0,0.0,0.0,0.0,0.0,0.0,0.0,0.0,0.0,0.0,0.0,0.0,0.0,0.0,0.0,0.0,0.0,0.0,0.0,0.0,0.0,0.0,0.0,0.0,0.0,0.0,0.0,0.0,0.0,0.0,0.0,0.0,0.0,0.0,0.0,0.0,0.0,0.0,0.0,0.0,0.0,0.0,0.0,0.0,0.0,0.0,0.0,0.0,0.0,0.0,0.0,0.0,0.0,0.0,0.0,0.0,0.0,0.0,0.0,0.0,0.0,0.0,0.0,0.0,0.0,0.0,0.0,0.0,0.0,0.0,0.0,0.0,0.0,0.0,0.0,0.0,0.0,0.0,0.0,0.0,0.0,0.0,0.0,0.0,0.0,0.0,0.0,0.0,0.0,0.0,0.0,0.0,0.0,0.0,0.0,0.0,0.0,0.0,0.0,0.0,0.0,0.0,0.0,0.0,0.0,0.0,0.0,0.0,0.0,0.0,0.0,0.0,0.0,0.0,0.0,0.0,0.0,0.0,0.0,0.0,0.0,0.0,0.0,0.0,0.0,0.0,0.0,0.0,0.0,0.0,0.0,0.0,0.0,0.0,0.0,0.0,0.0,0.0,0.0,0.0,0.0,0.0,0.0,0.0,0.0,0.0,0.0,0.0,0.0,0.0,0.0,0.0,0.0,0.0,0.0,0.0,0.0,0.0,0.0,0.0,0.0,0.0,0.0,0.0,0.0,0.0,0.0,0.0,0.0,0.0,0.0,0.0,0.0,0.0,0.0,0.0,0.0,0.0,0.0,0.0,0.0,0.0,0.0,0.0,0.0,0.0,0.0,0.0,0.0,0.0,0.0,0.0,0.0,0.0,0.0,0.0,0.0,0.0,0.0,0.0,0.0,0.0,0.0,0.0,0.0,0.0,0.0,0.0,0.0,0.0,0.0,0.0,0.0,0.0,0.0,0.0,0.0,0.0,0.0,0.0,0.0,0.0,0.0,0.0,0.0,0.0,0.0,0.0,0.0,0.0,0.0,0.0,0.0,0.0,0.0,0.0,0.0,0.0,0.0,0.0,0.0,0.0,0.0,0.0,0.0,0.0,0.0,0.0,0.0,0.0,0.0,0.0,0.0,0.0,0.0,0.0,0.0,0.0,0.0,0.0,0.0,0.0,0.0,0.0,0.0,0.0,0.0,0.0,0.0,0.0,0.0,0.0,0.0,0.0,0.0,0.0,0.0,0.0,0.0,0.0,0.0,0.0,0.0,0.0,0.0,0.0,0.0,0.0,0.0,0.0,0.0,0.0,0.0,0.0,0.0,0.0,0.0,0.0,0.0,0.0,0.0,0.0,0.0,0.0,0.0,0.0,0.0,0.0,0.0,0.0,0.0,0.0,0.0,0.0,0.0,0.0,0.0,0.0,0.0,0.0,0.0,0.0,0.0,0.0,0.0,0.0,0.0,0.0,0.0,0.0,0.0,0.0,0.0,0.0,0.0,0.0,0.0,0.0,0.0,0.0,0.0,0.0,0.0,0.0,0.0,0.0,0.0,0.0,0.0,0.0,0.0,0.0,0.0,0.0,0.0,0.0,0.0,0.0,0.0,0.0,0.0,0.0,0.0,0.0,0.0,0.0,0.0,0.0,0.0,0.0,0.0,0.0,0.0,0.0,0.0,0.0,0.0,0.0,0.0,0.0,0.0,0.0,0.0,0.0,0.0,0.0,0.0,0.0,0.0,0.0,0.0,0.0,0.0,0.0,0.0,0.0,0.0,0.0,0.0,0.0,0.0,0.0,0.0,0.0,0.0,0.0,0.0,0.0,0.0,0.0,0.0,0.0,0.0,0.0,0.0,0.0,0.0,0.0,0.0,0.0,0.0,0.0,0.0,0.0,0.0,0.0,0.0,0.0,0.0,0.0,0.0,0.0,0.0,0.0,0.0,0.0,0.0,0.0,0.0,0.0,0.0,0.0,0.0,0.0,0.0,0.0,0.0,0.0,0.0,0.0,0.0,0.0,0.0,0.0,0.0,0.0,0.0,0.0,0.0,0.0,0.0,0.0,0.0,0.0,0.0,0.0,0.0,0.0,0.0,0.0,0.0,0.0,0.0,0.0,0.0,0.0,0.0,0.0,0.0,0.0,0.0,0.0,0.0,0.0,0.0,0.0,0.0,0.0,0.0,0.0,0.0,0.0,0.0,0.0,0.0,0.0,0.0,0.0,0.0,0.0,0.0,0.0,0.0,0.0,0.0,0.0,0.0,0.0,0.0,0.0,0.0,0.0,0.0,0.0,0.0,0.0,0.0,0.0,0.0,0.0,0.0,0.0,0.0,0.0,0.0,0.0,0.0,0.0,0.0,0.0,0.0,0.0,0.0,0.0,0.0,0.0,0.0,0.0,0.0,0.0,0.0,0.0,0.0,0.0,0.0,0.0,0.0,0.0,0.0,0.0,0.0,0.0,0.0,0.0,0.0,0.0,0.0,0.0,0.0,0.0,0.0,0.0,0.0,0.0,0.0,0.0,0.0,0.0,0.0,0.0,0.0,0.0,0.0,0.0,0.0,0.0,0.0,0.0,0.0,0.0,0.0,0.0,0.0,0.0,0.0,0.0,0.0,0.0,0.0,0.0,0.0,0.0,0.0,0.0,0.0,0.0,0.0,0.0,0.0,0.0,0.0,0.0,0.0,0.0,0.0,0.0,0.0,0.0,0.0,0.0,0.0,0.0,0.0,0.0,0.0,0.0,0.0,0.0,0.0,0.0,0.0,0.0,0.0,0.0,0.0,0.0,0.0,0.0,0.0,0.0,0.0,0.0,0.0,0.0,0.0,0.0,0.0,0.0,0.0,0.0,0.0,0.0,0.0,0.0,0.0,0.0,0.0,0.0,0.0,0.0,0.0,0.0,0.0,0.0,0.0,0.0,0.0,0.0,0.0,0.0,0.0,0.0,0.0,0.0,0.0,0.0,0.0,0.0,0.0,0.0,0.0,0.0,0.0,0.0,0.0,0.0,0.0,0.0,0.0,0.0,0.0,0.0,0.0,0.0,0.0,0.0,0.0,0.0,0.0,0.0,0.0,0.0,0.0,0.0,0.0,0.0,0.0,0.0,0.0,0.0,0.0,0.0,-3.6888,0.0,0.0,0.0,0.0,0.0,0.0,0.0,0.0,0.0,0.0,0.0,0.0,0.0,0.0,0.0,0.0,0.0,0.0,0.0,0.0,0.0,0.0,0.0,0.0,0.0,0.0,0.0,0.0,0.0,0.0,0.0,0.0,0.0,0.0,0.0,0.0,0.0,0.0,0.0,0.0,0.0,0.0,0.0,0.0,0.0,0.0,0.0,0.0,0.0,0.0,0.0,0.0,0.0,0.0,0.0,0.0,0.0,0.0,0.0,0.0,0.0,0.0,0.0,0.0,0.0,0.0,0.0,0.0,0.0,0.0,0.0,0.0,0.0,0.0,0.0,0.0,0.0,0.0,0.0,0.0,0.0,0.0,0.0,0.0,0.0,0.0,0.0,0.0,0.0,0.0,0.0,0.0,0.0,0.0,0.0,0.0,0.0,0.0,0.0,0.0,0.0,0.0,0.0,0.0,0.0,0.0,0.0,0.0,0.0,0.0,0.0,0.0,0.0,0.0,0.0,0.0,-3.7703,0.0,0.0,0.0,0.0,0.0,0.0,0.0,0.0,0.0,0.0,0.0,0.0,0.0,0.0,0.0,0.0,0.0,0.0,0.0,0.0,0.0,0.0,0.0,0.0,0.0,0.0,0.0,0.0,0.0,0.0,0.0,0.0,0.0,0.0,0.0,0.0,0.0,0.0,0.0,0.0,0.0,0.0,0.0,0.0,0.0,0.0,0.0,0.0,0.0,0.0,0.0,0.0,0.0,0.0,0.0,0.0,0.0,0.0,0.0,0.0,0.0,0.0,0.0,0.0,0.0,0.0,0.0,0.0,0.0,0.0,0.0,0.0,0.0,0.0,0.0,0.0,0.0,0.0,0.0,0.0,0.0,0.0,0.0,0.0,0.0,0.0,0.0,0.0,0.0,0.0,0.0,0.0,0.0,0.0,0.0,0.0,0.0,0.0,0.0,0.0,0.0,0.0,0.0,0.0,0.0,0.0,0.0,0.0,-3.9297,-3.9165,-3.9165,-3.8927,-3.9092,-3.9654,-4.028,-3.9534,-3.7868,-3.71,0.0,0.0,0.0,0.0,0.0,0.0,0.0,0.0,0.0,0.0,0.0,0.0,0.0,0.0,0.0,0.0,0.0,0.0,0.0,0.0,0.0,0.0,0.0,0.0,0.0,0.0,0.0,0.0,0.0,0.0,0.0,0.0,0.0,0.0,0.0,0.0,0.0,0.0,-3.5018,-3.4642,-3.4499,-3.4526,-3.4972,0.0,0.0,0.0,0.0,0.0,0.0,0.0,0.0,0.0,0.0,0.0,0.0,0.0,0.0,0.0,0.0,0.0,0.0,0.0,0.0,0.0,0.0,0.0,0.0,0.0,0.0,0.0,0.0,0.0,0.0,0.0,0.0,0.0,0.0,0.0,0.0,0.0,0.0,0.0,0.0,0.0,0.0,0.0,-3.8797,-3.8156,0.0,0.0,0.0,0.0,0.0,0.0,0.0,0.0,0.0,0.0,0.0,0.0,0.0,-3.9298,-3.932,-3.9622,-3.975,-3.9767,-4.0621,-4.1024,-4.1057,-4.1699,-4.2022,-4.2119,-4.2216,0.0,-3.8747,-3.7548,0.0,0.0,0.0,0.0,0.0,0.0,0.0,0.0,0.0,0.0,0.0,0.0,0.0,0.0,0.0,0.0,0.0,0.0,0.0,0.0,0.0,0.0,0.0,0.0,0.0,0.0,0.0,0.0,0.0,0.0,0.0,0.0,0.0,0.0,0.0,0.0,-3.6026,-3.665,-3.7233,-3.7087,-3.7199,-3.7577,-3.7774,-3.6876,-3.5214,-3.4642,0.0,0.0,0.0,0.0,0.0,0.0,0.0,0.0,0.0,0.0,0.0,0.0,0.0,0.0,0.0,0.0,0.0,0.0,0.0,0.0,0.0,0.0,0.0,0.0,0.0,0.0,0.0,0.0,0.0,0.0,0.0,0.0,0.0,0.0,0.0,0.0,0.0,0.0,0.0,-3.8185,-3.8826,-3.8437,-3.851,-3.8301,0.0,0.0,0.0,0.0,0.0,0.0,0.0,0.0,0.0,-3.9187,-3.9985,-4.0451,-4.0565,-4.1092,-4.136,-4.1376,-4.1842,-4.2056,-4.2072,-4.2442,-4.2602,-4.2602,-4.2602,-4.2006,-4.0899,-3.9481,-3.838,-3.7511,0.0,0.0,0.0,0.0,-3.6204,-3.6176,0.0,0.0,0.0,0.0,0.0,0.0,0.0,0.0,0.0,0.0,0.0,0.0,0.0,0.0,0.0,-3.051,0.0,0.0,0.0,0.0,0.0,0.0,0.0,0.0,0.0,0.0,0.0,0.0,-3.7738,-3.8362,-3.8996,-3.8887,-3.9061,-3.9454,-3.9454,-3.8484,-3.6775,-3.5861,-3.537,0.0,0.0,0.0,0.0,0.0,0.0,0.0,0.0,0.0,0.0,0.0,0.0,0.0,0.0,0.0,0.0,0.0,0.0,0.0,0.0,0.0,0.0,0.0,0.0,0.0,0.0,0.0,0.0,0.0,0.0,0.0,0.0,0.0,0.0,0.0,0.0,0.0,0.0,-3.8654,-3.9479,-3.9084,-3.9158,-3.898,0.0,0.0,0.0,0.0,0.0,0.0,-3.8816,-3.9698,-4.02,-4.0266,-4.106,-4.1548,-4.1718,-4.2281,-4.2602,-4.2602,-4.2602,-4.2602,-4.2602,-4.2602,-4.2602,-4.2602,-4.2602,-4.2602,-4.2489,-4.0958,-3.9935,-3.9253,-3.8431,-3.8065,-3.8008,-3.8151,-3.818,-3.8151,0.0,0.0,0.0,0.0,0.0,0.0,0.0,0.0,0.0,0.0,0.0,0.0,0.0,0.0,-3.1974,-3.269,-3.2768,-3.255,0.0,0.0,0.0,0.0,0.0,0.0,0.0,0.0,0.0,-3.7569,-3.8116,-3.8595,-3.8996,-3.86,-3.8628,-3.9023,-3.9023,-3.8456,-3.7487,-3.7916,-3.7315,-3.5962,0.0,0.0,0.0,0.0,0.0,0.0,0.0,0.0,0.0,0.0,0.0,0.0,0.0,0.0,0.0,0.0,0.0,0.0,0.0,0.0,0.0,0.0,0.0,0.0,0.0,0.0,0.0,0.0,0.0,0.0,0.0,0.0,0.0,0.0,0.0,0.0,0.0,0.0,0.0,-4.094,-4.0956,0.0,0.0,0.0,0.0,-3.9289,-4.0057,-4.033,-3.9923,-4.1301,-4.1898,-4.1529,-4.2179,-4.2537,-4.2554,-4.2586,-4.2602,-4.2602,-4.2602,-4.2602,-4.2602,-4.2602,-4.2602,-4.2602,-4.2602,-4.2602,-4.2489,-4.1079,-4.0375,-4.0123,-3.8885,-3.8221,-3.8008,-3.8151,-3.8123,-3.8036,0.0,0.0,0.0,0.0,0.0,0.0,0.0,0.0,0.0,0.0,0.0,0.0,0.0,-3.1929,-3.3194,-3.346,-3.3925,-3.3937,-3.3334,0.0,0.0,0.0,0.0,0.0,0.0,0.0,-3.7293,-3.8243,-3.8515,-3.8914,-3.9391,-3.9232,-3.9549,-4.0229,-4.0229,-4.0014,-3.9621,-3.8606,-3.8071,-3.7798,-3.674,-3.5735,0.0,0.0,0.0,0.0,0.0,0.0,0.0,0.0,0.0,0.0,0.0,0.0,0.0,0.0,0.0,0.0,0.0,0.0,0.0,0.0,0.0,0.0,0.0,0.0,0.0,0.0,0.0,0.0,0.0,0.0,0.0,0.0,0.0,0.0,0.0,0.0,0.0,-4.1456,-4.1533,0.0,-4.0529,-3.9723,-3.9391,-3.9792,-4.0619,-4.1102,-4.1043,-4.1924,-4.24,-4.2261,-4.2473,-4.2602,-4.2602,-4.2602,-4.2829,-4.3298,-4.3298,-4.3573,-4.4026,-4.4026,-4.4026,-4.4026,-4.4026,-4.4026,-4.3978,-4.346,-4.2683,-4.1732,-4.1292,-4.1021,-4.0976,-4.1007,-4.1007,-4.0976,0.0,0.0,0.0,0.0,0.0,0.0,0.0,0.0,0.0,0.0,0.0,-3.0406,-3.1087,-3.2973,-3.417,-3.417,-3.4618,-3.4549,-3.3683,0.0,0.0,0.0,0.0,0.0,0.0,-3.6827,-3.7781,-3.8588,-3.8628,-3.886,-3.9206,-3.9232,-3.9575,-4.0129,-4.0254,-4.0419,-4.049,-3.932,-3.9152,-3.9568,-3.8313,-3.7068,-3.6018,0.0,0.0,0.0,0.0,0.0,0.0,0.0,0.0,0.0,0.0,0.0,0.0,0.0,0.0,0.0,0.0,0.0,0.0,0.0,0.0,0.0,0.0,0.0,0.0,0.0,0.0,0.0,0.0,0.0,0.0,0.0,0.0,0.0,0.0,0.0,-4.1339,-4.1744,-4.1838,-4.1687,-4.12,-4.0648,-4.0489,-4.0863,-4.1434,-4.183,-4.1921,-4.2344,-4.2602,-4.2602,-4.2829,-4.2958,-4.2958,-4.3201,-4.3605,-4.4075,-4.4075,-4.4334,-4.4787,-4.4787,-4.4787,-4.4787,-4.4787,-4.4787,-4.4787,-4.4787,-4.4221,-4.3331,-4.3331,-4.3331,-4.3331,-4.3331,-4.3331,-4.3331,0.0,0.0,0.0,0.0,0.0,0.0,0.0,0.0,0.0,0.0,-3.0755,-3.2205,-3.3794,-3.4522,-3.4899,-3.4899,-3.4899,-3.4333,-3.3018,-3.2901,0.0,0.0,0.0,0.0,-3.7128,-3.6984,-3.7429,-3.8604,-3.8476,-3.8391,-3.842,-3.8532,-3.8616,-3.8644,-3.9034,-3.9461,-3.9901,-4.0163,-4.0638,-4.107,-3.9773,-3.881,-3.8028,0.0,0.0,0.0,0.0,0.0,0.0,0.0,0.0,0.0,0.0,0.0,0.0,0.0,0.0,0.0,0.0,0.0,0.0,0.0,0.0,0.0,0.0,0.0,0.0,0.0,0.0,0.0,0.0,0.0,0.0,0.0,0.0,0.0,-3.9587,-4.1521,-4.2595,-4.1911,-4.1927,-4.2075,-4.2196,-4.1736,-4.1767,-4.2554,-4.2602,-4.2619,-4.2635,-4.2635,-4.2635,-4.2667,-4.3379,-4.3735,-4.3735,-4.4431,-4.4804,-4.482,-4.482,-4.4836,-4.4852,-4.4852,-4.4852,-4.4852,-4.4852,-4.4852,-4.4852,-4.4852,-4.4852,-4.4852,-4.4804,-4.4787,-4.4787,-4.4787,-4.4787,-4.4787,0.0,0.0,0.0,0.0,0.0,0.0,0.0,0.0,0.0,0.0,-3.0435,-3.2006,-3.3101,-3.4223,-3.4899,-3.4899,-3.4899,-3.4525,-3.3603,0.0,0.0,0.0,0.0,0.0,-3.7053,-3.7844,-3.8412,-3.8766,-3.8616,-3.8644,-3.8849,-3.8876,-3.905,-3.9339,-3.9454,-3.9558,-3.9679,-3.9756,-4.0294,-4.1024,-4.0762,-3.994,-3.8883,0.0,0.0,0.0,0.0,0.0,0.0,0.0,0.0,0.0,0.0,0.0,0.0,0.0,0.0,0.0,0.0,0.0,0.0,0.0,0.0,0.0,0.0,0.0,0.0,0.0,0.0,0.0,0.0,0.0,0.0,0.0,0.0,-4.1247,-4.1477,-4.1671,-4.1938,-4.2339,-4.2413,-4.245,-4.2481,-4.2342,-4.2361,-4.2586,-4.2602,-4.2829,-4.3363,-4.3379,-4.3654,-4.4172,-4.4383,-4.4496,-4.4496,-4.469,-4.503,-4.5532,-4.5532,-4.5807,-4.6309,-4.6309,-4.6309,-4.6309,-4.6309,-4.6309,-4.6309,-4.6309,-4.6309,-4.6212,-4.5192,-4.4787,-4.4787,-4.4787,-4.4787,-4.4787,0.0,0.0,0.0,0.0,0.0,0.0,0.0,0.0,0.0,0.0,-3.0663,-3.2133,-3.3582,-3.4432,-3.4899,-3.4899,-3.4681,-3.4207,-3.346,0.0,0.0,0.0,0.0,0.0,0.0,-3.8379,-3.8711,-3.8711,-3.8588,-3.8588,-3.8738,-3.8821,-3.8969,-3.9179,-3.9348,-3.9428,-3.9454,-3.9542,-3.9927,-4.0424,-4.058,-4.0297,-3.9761,-3.9866,-3.9168,-3.8113,-3.81,-3.8422,-3.8779,-3.8587,0.0,0.0,0.0,0.0,0.0,0.0,0.0,0.0,0.0,0.0,0.0,0.0,0.0,0.0,0.0,0.0,0.0,0.0,0.0,0.0,0.0,0.0,0.0,0.0,-4.1016,-4.204,-4.2321,-4.2111,-4.2072,-4.2554,-4.2602,-4.2602,-4.2602,-4.2602,-4.2732,-4.3023,-4.3055,-4.3363,-4.4123,-4.4156,-4.4366,-4.4787,-4.5063,-4.5208,-4.5208,-4.5824,-4.6342,-4.673,-4.7022,-4.7362,-4.7783,-4.7783,-4.7783,-4.7783,-4.7783,-4.7783,-4.7783,-4.7783,-4.7605,0.0,0.0,0.0,0.0,0.0,-4.5678,-4.5678,0.0,0.0,0.0,0.0,0.0,0.0,0.0,0.0,0.0,0.0,0.0,-3.2442,-3.4651,-3.4899,-3.4899,-3.4899,-3.4413,-3.385,0.0,0.0,0.0,0.0,0.0,0.0,0.0,-3.8644,-3.8588,-3.8588,-3.8464,-3.8391,-3.8391,-3.8504,-3.856,-3.8588,-3.8952,-3.9098,-3.9125,-3.9348,-3.9506,-3.9584,-3.9738,-4.0082,-4.0521,-4.0569,-4.004,-3.9294,-3.9557,-3.9623,-3.9644,-3.9855,0.0,0.0,0.0,0.0,0.0,0.0,0.0,0.0,0.0,0.0,0.0,0.0,0.0,0.0,0.0,0.0,0.0,0.0,0.0,0.0,0.0,0.0,0.0,0.0,-4.1537,-4.1952,-4.2505,-4.2602,-4.2602,-4.2602,-4.2602,-4.2635,-4.2716,-4.2716,-4.3023,-4.3783,-4.3832,-4.414,-4.4868,0.0,0.0,0.0,0.0,-4.6164,-4.6164,-4.7475,-4.8123,-4.8123,-4.8738,-4.8994,-4.8994,-4.8994,-4.8994,-4.8994,-4.8994,-4.8994,-4.8994,-4.8994,-4.8673,-4.8042,-4.7216,-4.6876,-4.6876,-4.6876,-4.6876,-4.6876,0.0,0.0,0.0,0.0,0.0,0.0,0.0,0.0,0.0,-3.0208,-3.1135,-3.2442,-3.4651,-3.4899,-3.4899,-3.4899,-3.4885,-3.4845,0.0,0.0,0.0,0.0,0.0,0.0,0.0,0.0,-3.8476,-3.8588,-3.8464,-3.8391,-3.8391,-3.8436,-3.842,-3.842,-3.8532,-3.8544,-3.8544,-3.86,-3.8936,-3.9411,-3.9249,-3.9732,-4.0578,-4.0517,-4.0414,-4.033,-4.0545,-4.0422,-4.0154,-4.0127,-4.0239,-4.0305,-3.983,0.0,0.0,0.0,0.0,0.0,0.0,0.0,0.0,0.0,0.0,0.0,0.0,0.0,0.0,0.0,0.0,0.0,0.0,0.0,0.0,-4.0324,-4.1628,-4.2644,-4.2601,-4.2602,-4.2602,-4.2602,-4.2602,-4.2829,-4.3411,-4.3508,-4.38,-4.4528,-4.4577,-4.4885,-4.5565,-4.6164,-4.6763,-4.7362,-4.8042,-4.8398,-4.8398,-4.8654,-4.8819,-4.8799,0.0,0.0,-4.8994,-4.8994,-4.8994,-4.8994,-4.8994,-4.8994,-4.8994,-4.8994,-4.8913,-4.869,-4.7394,-4.6876,-4.6876,-4.6876,-4.6876,-4.6876,0.0,0.0,0.0,0.0,0.0,0.0,0.0,0.0,0.0,0.0,-3.0377,-3.1307,-3.3178,-3.3733,-3.38,-3.3428,-3.4083,0.0,0.0,0.0,0.0,0.0,0.0,0.0,0.0,0.0,0.0,-3.8504,-3.842,-3.8391,-3.8391,-3.8391,-3.8391,-3.8391,-3.8391,-3.8391,-3.8391,-3.8391,-3.86,-3.8898,-3.8849,-3.9195,-3.9825,-4.0246,-4.0419,-4.0476,-4.0558,-4.0478,-4.0336,-4.0528,-4.0521,-4.04,-4.012,-3.9673,-3.9056,0.0,0.0,0.0,0.0,0.0,0.0,0.0,0.0,0.0,0.0,0.0,0.0,0.0,0.0,-3.9085,0.0,0.0,-4.1227,-4.0998,-4.2091,-4.2914,-4.2634,-4.291,-4.3136,-4.3136,-4.3136,-4.346,-4.4172,-4.4253,-4.4544,-4.5257,-4.5629,-4.6147,-4.686,-4.7572,-4.8123,-4.8512,-4.8816,-4.8994,-4.8994,-4.9386,-4.9564,-4.9564,-4.9936,-5.0098,-5.0098,-5.0098,-5.0098,-5.0098,-5.0098,-5.0098,-5.0066,-4.971,-4.9564,-4.9451,-4.8382,-4.7961,-4.7961,-4.7961,-4.7961,-4.7961,0.0,0.0,0.0,0.0,0.0,0.0,0.0,0.0,0.0,0.0,0.0,-2.9962,-3.145,-3.2314,-3.2625,0.0,0.0,0.0,0.0,0.0,0.0,0.0,0.0,0.0,0.0,0.0,0.0,0.0,-3.8391,-3.8391,-3.8391,-3.8391,-3.8391,-3.8391,-3.8391,-3.8391,-3.8391,-3.8391,-3.8391,-3.8408,-3.8504,-3.8699,-3.8969,-3.9738,-4.0113,-4.0188,-4.028,-4.0153,-4.0034,-4.0648,-4.0494,-4.0039,-4.0135,-3.9979,-3.9497,-3.8086,-3.8504,0.0,0.0,0.0,0.0,0.0,0.0,0.0,0.0,0.0,-3.9605,-4.0682,-4.0514,-4.0336,-4.0869,-4.1615,-4.2078,-4.1764,-4.2502,-4.3039,-4.2843,-4.3346,-4.3816,-4.4091,-4.3994,-4.4204,-4.4917,-4.4982,-4.5338,-4.618,-4.6779,-4.7427,-4.8171,-4.8852,-4.9188,-4.9188,-4.937,-4.9451,-4.9451,-5.0017,-5.0309,-5.0325,-5.0908,-5.1183,-5.1183,-5.1183,-5.1183,-5.1183,-5.1183,-5.1183,-5.1135,-5.0552,-5.0309,-5.026,-4.9677,-4.9451,-4.9402,-4.9091,-4.8994,-4.8994,0.0,0.0,0.0,0.0,0.0,0.0,0.0,0.0,0.0,0.0,0.0,0.0,0.0,0.0,0.0,0.0,0.0,0.0,0.0,0.0,0.0,0.0,0.0,0.0,0.0,0.0,0.0,0.0,-3.8391,-3.8391,-3.8391,-3.8391,-3.8391,-3.8391,-3.8391,-3.8391,-3.8391,-3.8391,-3.8391,-3.8391,-3.8436,-3.8448,-3.8504,-3.8969,-3.9382,-3.9714,-4.0146,-3.9573,-3.8799,-3.9976,-3.9795,-3.9171,-3.9806,-3.9993,-3.9884,-3.9524,0.0,-3.8999,-3.9212,-3.9482,-3.9759,-3.9963,-4.0178,-4.0473,0.0,0.0,-4.115,-4.1299,-4.1293,-4.1139,-4.0802,-4.1687,-4.2226,-4.1536,-4.2396,-4.3203,-4.3524,-4.367,-4.4172,-4.5419,-4.5046,-4.4933,-4.5629,-4.5694,-4.6261,-4.7653,-4.7831,-4.8188,-4.8832,-4.9596,-4.9985,-4.9985,-5.06,-5.094,-5.094,-5.1021,-5.107,-5.107,-5.1135,-5.1183,-5.1183,-5.1183,-5.1183,-5.1183,-5.1183,-5.1183,-5.1183,-5.1086,-5.107,-5.1054,-5.0973,-5.094,-5.0795,-4.9499,-4.8994,-4.8994,0.0,0.0,0.0,0.0,0.0,0.0,0.0,0.0,0.0,0.0,0.0,0.0,0.0,0.0,0.0,0.0,0.0,0.0,0.0,0.0,0.0,0.0,0.0,0.0,0.0,0.0,0.0,0.0,0.0,-3.8391,-3.8391,-3.8391,-3.8391,-3.8391,-3.8391,-3.8391,-3.8391,-3.8391,-3.8391,-3.8391,-3.8391,-3.8391,-3.842,-3.8588,-3.8914,-3.9209,-3.8987,-3.8543,0.0,0.0,-3.8765,-3.8488,-3.9547,-3.9875,-3.9725,-3.912,-3.94,0.0,-4.0993,-4.0942,0.0,0.0,-4.1572,-4.1707,-4.1988,-4.2026,-4.2142,-4.2589,-4.2613,-4.2508,-4.2301,-4.2667,-4.2867,0.0,-4.3108,-4.3725,-4.3702,-4.4415,-4.5144,-4.5726,-4.5921,-4.6293,-4.7022,-4.7087,-4.7508,-4.8492,-4.8997,-4.9354,-4.9645,-5.0341,-5.073,-5.073,-5.1021,-5.1183,-5.1183,-5.1183,-5.1183,-5.1183,-5.1183,-5.1183,-5.1183,-5.1183,-5.1183,-5.1221,-5.1333,-5.1312,-5.1221,-5.135,-5.1312,-5.1183,-5.1183,-5.1183,-5.1118,-5.0503,-5.0276,-5.0276,0.0,0.0,0.0,0.0,0.0,0.0,0.0,0.0,0.0,0.0,0.0,0.0,0.0,0.0,0.0,0.0,0.0,0.0,0.0,0.0,0.0,0.0,0.0,0.0,0.0,0.0,0.0,0.0,0.0,-3.8391,-3.8391,-3.8391,-3.8391,-3.8391,-3.8391,-3.8391,-3.8391,-3.8391,-3.8391,-3.8391,-3.8391,-3.8391,-3.8391,-3.8391,-3.8513,-3.8547,-3.7923,-3.7755,0.0,0.0,-3.7611,-3.7934,-3.8471,-3.9067,-3.9438,-3.8689,-3.9467,-4.0769,-4.1483,0.0,0.0,-4.2406,-4.2667,-4.2787,-4.2758,-4.2758,-4.2953,-4.3453,-4.3509,-4.3449,-4.3342,-4.3372,-4.3347,-4.316,-4.3695,-4.4184,-4.4269,-4.516,-4.5888,-4.6083,-4.6747,-4.7491,-4.822,-4.8123,-4.8382,-4.9256,-4.9807,-5.0196,-5.039,-5.0908,-5.1183,-5.1183,-5.1183,-5.1183,-5.1183,-5.1183,-5.1183,-5.1183,-5.1183,-5.1183,-5.1183,-5.1183,-5.1221,-5.1296,-5.1424,-5.1462,-5.1371,-5.1536,-5.1462,-5.1258,-5.1258,-5.1258,-5.1183,-5.1183,-5.1183,-5.1183,0.0,0.0,0.0,0.0,0.0,0.0,0.0,0.0,0.0,0.0,0.0,0.0,0.0,0.0,0.0,0.0,0.0,0.0,0.0,0.0,0.0,0.0,0.0,0.0,0.0,0.0,0.0,0.0,0.0,0.0,-3.8391,-3.8391,-3.8391,-3.8391,-3.8391,-3.8391,-3.8391,-3.8391,-3.8391,-3.8391,-3.8391,-3.8391,-3.8391,-3.8391,-3.8137,-3.7675,-3.735,0.0,0.0,0.0,-3.63,-3.7468,-3.615,-3.7393,0.0,-3.874,-3.9545,0.0,0.0,0.0,-4.2422,-4.2645,-4.3119,-4.3535,-4.3399,-4.3459,-4.3535,-4.3432,-4.3509,-4.3492,-4.3174,-4.3281,-4.345,-4.3669,-4.3863,-4.4399,-4.5582,-4.5775,-4.6067,-4.6763,-4.7524,-4.8236,0.0,-4.8398,-4.8576,-4.9969,-5.0098,-5.0406,-5.1118,-5.1167,-5.1183,-5.1183,-5.1183,-5.1183,-5.1183,-5.1183,-5.1183,-5.1183,-5.1183,-5.1183,-5.1183,-5.1183,-5.1312,-5.1499,-5.1499,-5.161,-5.1778,-5.1778,-5.1684,-5.1499,-5.1499,-5.1387,-5.1183,-5.1183,-5.1183,-5.1183,0.0,0.0,0.0,0.0,0.0,0.0,0.0,0.0,0.0,0.0,0.0,0.0,0.0,0.0,0.0,0.0,0.0,0.0,0.0,0.0,0.0,0.0,0.0,0.0,0.0,0.0,0.0,0.0,0.0,0.0,-3.8391,-3.8391,-3.8391,-3.8391,-3.8391,-3.8391,-3.8391,-3.8391,-3.8391,-3.8391,-3.8391,-3.8391,-3.8359,-3.7873,-3.7362,-3.678,0.0,0.0,0.0,0.0,0.0,0.0,-3.6737,0.0,-3.8132,-3.8606,-3.9354,-4.0128,0.0,0.0,-4.2589,-4.3048,-4.337,-4.3552,-4.3432,-4.3432,-4.3479,-4.3522,-4.3402,-4.3235,-4.3113,-4.3676,-4.4072,-4.391,-4.4837,-4.5702,-4.596,-4.6296,-4.6601,-4.686,-4.7556,0.0,0.0,0.0,0.0,-5.0746,-5.0811,-5.0924,-5.1167,-5.1183,-5.1183,-5.1183,-5.1183,-5.1183,-5.1183,-5.1183,-5.1183,-5.1183,-5.1183,-5.1183,-5.1183,-5.1183,-5.1296,-5.1515,-5.1647,-5.1741,-5.1815,-5.1941,-5.1868,-5.1684,-5.1536,-5.1462,-5.1387,-5.1258,-5.1183,-5.1183,0.0,0.0,0.0,0.0,0.0,0.0,0.0,0.0,0.0,0.0,0.0,0.0,0.0,0.0,0.0,0.0,0.0,0.0,0.0,0.0,0.0,0.0,0.0,0.0,0.0,0.0,0.0,0.0,0.0,0.0,0.0,-3.8278,-3.8391,-3.8391,-3.8391,-3.8391,-3.8391,-3.8391,-3.8218,-3.7963,-3.8087,-3.7952,-3.7648,-3.7313,-3.6888,0.0,0.0,0.0,0.0,0.0,0.0,0.0,0.0,-3.72,-3.806,-3.8489,-3.9335,-4.0381,0.0,-4.2045,-4.2713,-4.331,-4.3509,-4.3509,-4.3402,-4.3402,-4.3402,-4.3432,-4.3128,-4.284,-4.272,-4.3143,-4.3457,-4.3178,-4.4138,-4.5049,-4.547,-4.584,-4.6291,-4.6828,-4.7767,-4.8544,0.0,0.0,0.0,-5.1151,-5.1183,-5.1183,-5.1183,-5.1183,-5.1183,-5.1183,-5.1183,-5.1183,-5.1183,-5.1183,-5.1183,-5.1183,-5.1258,-5.1312,-5.1296,-5.1371,-5.152,-5.1737,-5.1868,-5.1941,-5.2013,-5.2158,-5.2086,-5.1904,-5.1758,-5.1626,-5.1462,-5.1333,-5.1258,-5.1183,0.0,0.0,0.0,0.0,0.0,0.0,0.0,0.0,0.0,0.0,0.0,0.0,0.0,0.0,0.0,0.0,0.0,0.0,0.0,0.0,0.0,0.0,0.0,0.0,0.0,0.0,0.0,0.0,0.0,0.0,0.0,-3.7954,-3.8294,-3.8322,-3.8306,-3.8306,-3.8322,-3.8322,-3.7834,-3.7093,-3.7476,-3.7159,-3.6453,-3.6783,0.0,0.0,0.0,0.0,0.0,0.0,0.0,0.0,0.0,0.0,-3.8957,-3.8529,-3.9659,-4.1044,-4.1224,-4.1976,-4.2862,-4.3446,-4.3492,-4.3402,-4.3372,-4.3372,-4.3342,-4.3094,-4.2762,-4.2385,0.0,0.0,-4.1892,-4.1709,-4.2139,-4.3008,-4.441,-4.4669,-4.5252,0.0,0.0,0.0,0.0,0.0,0.0,-5.1183,0.0,-5.1183,-5.1183,-5.1183,-5.1183,-5.1183,-5.1183,-5.1183,-5.1183,-5.1216,-5.1232,-5.1232,-5.1468,-5.1613,-5.1613,-5.1786,-5.1953,-5.2152,-5.2119,-5.2211,-5.2409,-5.2409,-5.2283,-5.2102,-5.2102,-5.1884,-5.1552,-5.1515,-5.1387,-5.1221,0.0,0.0,0.0,0.0,0.0,0.0,0.0,0.0,0.0,0.0,0.0,0.0,0.0,0.0,0.0,0.0,0.0,0.0,0.0,0.0,0.0,0.0,0.0,0.0,0.0,0.0,0.0,0.0,0.0,0.0,0.0,-3.6512,-3.6837,0.0,-3.6998,-3.6971,-3.7077,-3.7157,-3.7016,-3.6721,0.0,-3.6728,-3.6638,0.0,0.0,0.0,0.0,0.0,0.0,0.0,0.0,0.0,0.0,-3.8728,-3.9502,-3.9844,-4.0568,-4.1438,-4.2136,-4.2662,-4.3048,-4.3399,-4.3449,-4.3372,-4.3204,-4.3295,-4.3224,-4.2637,-4.2404,-4.2048,0.0,0.0,0.0,-4.3136,-4.4854,0.0,-4.6497,-4.6528,0.0,-4.6878,0.0,-4.8994,-4.8994,-5.0325,0.0,0.0,-5.1183,-5.1183,-5.1183,-5.1183,-5.1183,-5.1183,-5.1183,-5.1183,-5.1183,-5.1685,-5.1944,-5.1944,-5.2687,-5.3062,-5.3046,-5.2768,-5.2746,-5.2897,-5.2333,-5.2211,-5.2409,-5.2409,-5.2373,-5.2318,-5.2175,-5.203,-5.1921,-5.161,-5.1462,-5.1387,0.0,0.0,0.0,0.0,0.0,0.0,0.0,0.0,0.0,0.0,0.0,0.0,0.0,0.0,0.0,0.0,0.0,0.0,0.0,0.0,0.0,0.0,0.0,0.0,0.0,0.0,0.0,0.0,0.0,0.0,0.0,-3.5798,-3.6289,-3.6884,-3.6713,-3.6662,-3.6687,0.0,0.0,0.0,0.0,0.0,0.0,0.0,0.0,0.0,0.0,0.0,0.0,0.0,0.0,-3.9677,-3.994,-4.0281,-4.0675,-4.1049,0.0,-4.2014,-4.2679,-4.2996,-4.3143,-4.3342,-4.3298,-4.3026,-4.2416,-4.2209,-4.2012,-4.1453,-4.1042,0.0,0.0,0.0,0.0,0.0,0.0,0.0,-4.6123,-4.6054,-4.6248,0.0,-4.8155,0.0,-4.8994,-5.0325,-5.1183,0.0,-5.1183,-5.1183,-5.1183,-5.1183,-5.1183,-5.1183,-5.1183,-5.1329,-5.1637,-5.2009,-5.2365,-5.2689,-5.3404,-5.3716,-5.3738,-5.3649,-5.349,-5.3254,0.0,-5.2564,-5.2409,-5.2409,-5.2409,-5.239,-5.2283,-5.2175,-5.2066,-5.1758,-5.1573,-5.1462,0.0,0.0,0.0,0.0,0.0,0.0,0.0,0.0,0.0,0.0,0.0,0.0,0.0,0.0,0.0,0.0,0.0,0.0,0.0,0.0,0.0,0.0,0.0,0.0,0.0,0.0,0.0,0.0,0.0,0.0,0.0,0.0,0.0,0.0,0.0,0.0,0.0,0.0,0.0,0.0,0.0,0.0,0.0,0.0,0.0,0.0,0.0,0.0,0.0,0.0,-4.0111,-4.1021,-4.1337,-4.174,-4.2127,-4.2104,-4.2344,-4.2653,-4.301,-4.3082,-4.3082,-4.3312,-4.3146,-4.2586,-4.1444,-4.0978,-4.0665,-4.0076,0.0,-3.927,-3.9824,0.0,-4.1766,-4.1327,0.0,-4.4091,-4.5032,-4.4997,-4.5383,-4.6765,-4.8155,-4.8994,-4.8994,-5.0325,-5.1183,-5.1183,-5.1183,-5.1183,-5.1183,-5.1183,-5.1183,-5.1183,-5.1183,-5.1507,-5.2187,-5.23,-5.2721,-5.3466,-5.396,-5.4186,-5.4186,-5.4522,-5.4311,-5.3699,-5.35,-5.3069,-5.2523,-5.2423,-5.2409,-5.2409,-5.2409,-5.2283,-5.2102,-5.1904,-5.1721,-5.1499,0.0,0.0,0.0,0.0,0.0,0.0,0.0,0.0,0.0,0.0,-2.8686,-2.89,0.0,0.0,0.0,0.0,0.0,0.0,0.0,0.0,0.0,0.0,0.0,0.0,0.0,0.0,0.0,0.0,0.0,0.0,0.0,0.0,0.0,0.0,0.0,0.0,0.0,0.0,0.0,0.0,0.0,0.0,0.0,0.0,0.0,0.0,0.0,0.0,0.0,0.0,-4.0733,-4.238,-4.2553,-4.292,-4.3251,-4.2855,-4.2872,-4.301,-4.308,-4.2898,-4.2743,-4.3082,-4.3037,-4.2555,-4.1314,-4.1533,0.0,0.0,0.0,-3.9924,-3.9166,-4.039,0.0,-4.2435,0.0,0.0,0.0,0.0,-4.6838,0.0,0.0,0.0,0.0,0.0,0.0,0.0,0.0,-5.1183,-5.1183,-5.1183,-5.1183,-5.1183,-5.1183,-5.1507,-5.2187,-5.2819,-5.3499,-5.4227,-5.5234,-5.5709,-5.5716,-5.5512,-5.5317,-5.5135,-5.3947,0.0,-5.3185,-5.2622,-5.2409,-5.2409,-5.2409,-5.239,-5.2302,-5.2139,-5.1904,-5.1704,0.0,0.0,0.0,0.0,0.0,0.0,0.0,-2.8181,-2.8273,-2.7934,-2.8023,-2.8365,-2.9019,-2.9289,-2.9337,0.0,0.0,0.0,0.0,0.0,0.0,0.0,0.0,0.0,0.0,0.0,0.0,0.0,0.0,0.0,0.0,0.0,0.0,0.0,0.0,0.0,0.0,0.0,0.0,0.0,0.0,0.0,0.0,0.0,0.0,0.0,0.0,0.0,0.0,0.0,-4.0708,-4.2762,-4.3051,-4.3312,-4.3419,-4.3023,-4.3007,-4.3066,-4.299,-4.2507,-4.2174,-4.2836,-4.257,-4.1754,-4.0205,0.0,0.0,0.0,0.0,-3.8827,-3.904,0.0,0.0,0.0,0.0,0.0,0.0,0.0,0.0,0.0,0.0,0.0,0.0,0.0,0.0,0.0,0.0,-5.1183,-5.1183,-5.1183,-5.1183,-5.1183,-5.1183,-5.1701,-5.277,-5.3142,-5.3911,-5.5117,-5.57,-5.6046,-5.6267,-5.6078,-5.5655,-5.497,-5.4258,-5.3566,-5.2854,-5.2523,-5.2409,-5.2409,-5.2409,-5.2142,-5.1745,-5.2013,-5.1668,-5.1151,0.0,0.0,0.0,0.0,0.0,0.0,0.0,-2.7934,-2.7996,-2.7473,-2.7396,-2.7744,-2.8637,-2.9057,-2.9144,0.0,0.0,0.0,0.0,0.0,0.0,0.0,0.0,0.0,0.0,0.0,0.0,0.0,0.0,0.0,0.0,0.0,0.0,0.0,0.0,0.0,0.0,0.0,0.0,0.0,0.0,0.0,0.0,0.0,0.0,0.0,0.0,0.0,0.0,0.0,-4.033,-4.2354,-4.2916,-4.3158,-4.3171,-4.2808,-4.2808,-4.2933,-4.2851,-4.2174,-4.1738,-4.2618,-4.2142,-4.1039,-3.9194,-3.9158,0.0,0.0,-3.7259,-3.7802,-3.9086,0.0,0.0,0.0,0.0,0.0,0.0,0.0,0.0,0.0,0.0,0.0,0.0,0.0,0.0,0.0,0.0,0.0,-5.1183,-5.1183,-5.1183,-5.1183,-5.1183,-5.1879,-5.3265,-5.3281,-5.4112,-5.5742,-5.5823,-5.6006,-5.6346,-5.626,-5.5682,-5.4705,-5.439,-5.3522,-5.2356,-5.2208,-5.2017,-5.1855,-5.1855,-5.1417,-5.0914,-5.1561,-5.1263,-5.0563,0.0,0.0,0.0,0.0,0.0,0.0,0.0,-2.7842,-2.7473,-2.7411,-2.7396,-2.7434,-2.7543,-2.7955,-2.8243,0.0,0.0,0.0,0.0,0.0,0.0,0.0,0.0,0.0,0.0,0.0,0.0,0.0,0.0,0.0,0.0,0.0,0.0,0.0,0.0,0.0,0.0,0.0,0.0,0.0,0.0,0.0,0.0,0.0,0.0,0.0,0.0,0.0,0.0,0.0,0.0,-4.1019,-4.1788,-4.2372,-4.2671,-4.2206,0.0,0.0,-4.258,-4.2077,-4.1689,-4.2429,-4.2045,-4.1039,-3.9194,0.0,0.0,0.0,-3.7458,-3.806,-3.9113,-3.8546,0.0,0.0,0.0,0.0,0.0,0.0,0.0,0.0,0.0,0.0,0.0,0.0,0.0,0.0,0.0,0.0,-5.1183,-5.1183,-5.1183,-5.1183,-5.1183,-5.1879,-5.3265,-5.3281,-5.4033,-5.5466,-5.5886,-5.6086,-5.6109,-5.5787,-5.5615,-5.5416,-5.4096,-5.2996,0.0,-5.1491,-5.0745,-5.0057,-5.0057,-4.9978,-5.0017,-5.0669,-5.0739,-5.047,0.0,0.0,0.0,0.0,0.0,0.0,-2.7857,-2.7919,-2.7857,-2.7442,-2.7396,-2.755,-2.7965,-2.7798,-2.7585,-2.7319,0.0,0.0,0.0,0.0,0.0,0.0,0.0,0.0,0.0,0.0,0.0,0.0,0.0,0.0,0.0,0.0,0.0,0.0,0.0,0.0,0.0,0.0,0.0,0.0,0.0,0.0,0.0,0.0,0.0,0.0,0.0,0.0,0.0,0.0,0.0,0.0,-4.017,-4.0555,0.0,0.0,-4.2229,-4.2258,-4.2013,-4.1393,-4.0894,-4.1211,-4.0463,-3.9382,-3.8368,0.0,0.0,-3.7244,-3.7169,-3.7671,-3.9059,-3.7682,-3.7033,0.0,0.0,0.0,0.0,0.0,0.0,0.0,0.0,0.0,0.0,0.0,0.0,0.0,0.0,0.0,-5.0448,-5.0886,-5.1183,-5.1183,-5.1183,-5.1653,-5.2641,-5.2641,-5.3182,-5.4305,-5.4384,-5.4558,-5.4759,-5.4635,-5.4409,-5.4092,-5.3131,-5.2215,0.0,-5.065,-5.0096,-4.9805,-4.9805,-4.9503,-4.9157,-4.9781,-4.9559,-4.8969,0.0,0.0,0.0,0.0,0.0,-2.8242,-2.7765,-2.7934,-2.7934,-2.7457,-2.7396,-2.758,-2.8057,-2.7696,-2.7234,-2.6672,-2.723,0.0,0.0,0.0,0.0,0.0,0.0,0.0,0.0,0.0,0.0,-3.5088,0.0,0.0,0.0,0.0,0.0,0.0,0.0,0.0,0.0,0.0,0.0,0.0,0.0,0.0,0.0,0.0,0.0,0.0,0.0,0.0,0.0,0.0,0.0,0.0,0.0,0.0,0.0,0.0,-4.1613,-4.1901,-4.123,-4.0754,-4.0382,-4.0382,-3.9373,-3.8152,0.0,0.0,0.0,-3.6836,-3.668,-3.7137,-3.8956,-3.7221,-3.6159,0.0,0.0,0.0,0.0,0.0,0.0,0.0,0.0,0.0,0.0,0.0,0.0,0.0,0.0,0.0,-4.9963,-5.0486,-5.0695,-5.0416,-5.0679,-5.1147,-5.1807,-5.1572,-5.2138,-5.35,-5.317,-5.3288,-5.3831,-5.3732,-5.3393,-5.2772,-5.2151,-5.1289,0.0,-4.9702,-4.9303,-4.9075,-4.9075,-4.8723,-4.8297,-4.8831,-4.8543,-4.7931,0.0,0.0,0.0,0.0,0.0,0.0,-2.8396,-2.7827,-2.7411,-2.7396,-2.7396,-2.7396,-2.7411,-2.7473,-2.7226,-2.6567,-2.6447,0.0,0.0,0.0,0.0,0.0,0.0,0.0,0.0,0.0,-3.4503,-3.5088,-3.5088,-3.5175,0.0,0.0,0.0,0.0,0.0,0.0,0.0,0.0,0.0,0.0,0.0,0.0,0.0,0.0,0.0,0.0,0.0,0.0,0.0,0.0,0.0,0.0,0.0,0.0,0.0,0.0,-4.0005,-4.1205,-4.026,-4.0194,-4.0382,-4.0382,-3.9238,-3.7863,0.0,0.0,-3.573,-3.6126,-3.5986,-3.6551,-3.8857,-3.7367,-3.6442,-3.8477,0.0,0.0,0.0,0.0,0.0,0.0,0.0,0.0,0.0,0.0,0.0,0.0,0.0,0.0,-4.9963,-4.9908,-4.9494,-4.8553,-4.9439,-5.024,-5.0904,-5.0071,-5.0844,-5.3281,-5.2605,-5.2749,-5.3584,-5.3337,-5.2714,-5.1869,0.0,-5.0167,0.0,-4.8615,-4.8088,-4.7352,-4.7352,-4.7309,-4.7337,-4.7749,-4.7904,-4.7819,0.0,0.0,0.0,0.0,0.0,0.0,0.0,-2.8227,-2.8088,-2.8088,-2.8088,-2.8088,-2.8088,-2.7681,-2.7165,-2.6493,-2.6037,0.0,0.0,0.0,0.0,0.0,0.0,0.0,0.0,0.0,-3.374,-3.4486,-3.4808,-3.5128,-3.5446,-3.5337,0.0,0.0,0.0,0.0,0.0,0.0,0.0,0.0,0.0,0.0,0.0,0.0,0.0,0.0,0.0,0.0,0.0,0.0,0.0,0.0,0.0,0.0,0.0,0.0,0.0,0.0,-3.8009,-3.7793,-3.7629,-3.7388,-3.6706,-3.6025,-3.5602,0.0,-3.4579,-3.5293,-3.5492,-3.6149,-3.8177,-3.6897,-3.6242,-3.8449,0.0,0.0,0.0,0.0,0.0,0.0,0.0,0.0,0.0,0.0,0.0,0.0,0.0,0.0,-4.8168,-4.861,-4.88,-4.8512,-4.88,-4.9031,-4.9274,-4.9001,-4.9233,-5.0025,-5.046,-5.0556,-5.042,-5.1057,-5.0929,0.0,0.0,0.0,-4.8558,-4.7976,-4.7538,-4.7266,-4.7121,-4.7019,-4.7019,-4.6814,-4.6726,-4.6682,0.0,0.0,0.0,0.0,0.0,0.0,0.0,-2.8027,-2.8119,-2.8365,-2.8411,-2.8411,-2.8411,-2.7588,-2.6895,-2.6478,-2.5654,0.0,0.0,0.0,0.0,0.0,0.0,0.0,0.0,-3.2169,-3.288,-3.3278,-3.3877,-3.4422,-3.4918,-3.4804,-3.4908,-3.5222,-3.5175,0.0,0.0,0.0,0.0,0.0,0.0,0.0,-3.5018,0.0,0.0,0.0,0.0,0.0,0.0,0.0,0.0,0.0,0.0,0.0,0.0,0.0,-3.4733,0.0,0.0,-3.6446,-3.6644,-3.6117,-3.5484,0.0,0.0,0.0,-3.3367,-3.4537,-3.4784,-3.5502,-3.7778,-3.6831,-3.6419,-3.863,0.0,0.0,0.0,0.0,0.0,0.0,0.0,0.0,0.0,0.0,0.0,0.0,0.0,0.0,-4.7276,-4.7731,-4.7858,-4.7518,-4.7858,-4.8012,-4.8012,-4.7689,-4.7858,-4.8496,-4.8774,-4.8831,-4.879,-4.9614,-4.9614,0.0,0.0,-4.8407,0.0,-4.7394,-4.7164,-4.7121,-4.6887,-4.68,-4.6756,-4.6358,-4.621,-4.6165,0.0,0.0,0.0,0.0,0.0,0.0,0.0,-2.7365,-2.7626,-2.8258,-2.8381,-2.8411,-2.8411,-2.7273,-2.6505,-2.6505,0.0,0.0,0.0,0.0,0.0,0.0,0.0,0.0,0.0,-3.1254,-3.1985,-3.1891,-3.2573,-3.3273,-3.4034,-3.3881,-3.4263,-3.5045,-3.4904,-3.4873,-3.4899,-3.4899,-3.4899,-3.4899,-3.4899,-3.4899,0.0,0.0,0.0,0.0,0.0,0.0,0.0,0.0,0.0,0.0,0.0,0.0,0.0,0.0,0.0,0.0,0.0,0.0,0.0,0.0,0.0,0.0,0.0,0.0,0.0,-3.3889,-3.3991,-3.4624,-3.7452,-3.6963,0.0,0.0,0.0,0.0,0.0,0.0,0.0,0.0,0.0,0.0,0.0,0.0,0.0,0.0,0.0,0.0,-4.7161,-4.7118,-4.6755,-4.5925,-4.6711,-4.7118,-4.7118,-4.6299,-4.6711,-4.8304,-4.7561,-4.7603,-4.8388,-4.8913,-4.8682,0.0,0.0,-4.8061,0.0,-4.7019,-4.6873,-4.6844,-4.6624,-4.655,-4.655,-4.6269,-4.6165,-4.6165,0.0,0.0,0.0,0.0,0.0,0.0,0.0,0.0,0.0,0.0,-2.8088,-2.8411,-2.8411,-2.7273,-2.6505,0.0,0.0,0.0,0.0,0.0,0.0,0.0,0.0,0.0,-3.0703,-3.1059,-3.1774,-3.2787,-3.2862,-3.3362,-3.4225,-3.4141,-3.4213,-3.4403,-3.438,-3.4549,-3.4899,-3.4899,-3.4899,-3.4899,-3.4899,-3.4899,0.0,0.0,0.0,0.0,-3.4521,-3.5679,0.0,0.0,0.0,0.0,0.0,0.0,0.0,0.0,-3.2602,-3.2573,-3.2898,0.0,-3.4364,-3.454,0.0,0.0,0.0,0.0,0.0,0.0,0.0,0.0,0.0,0.0,0.0,0.0,0.0,0.0,0.0,0.0,0.0,0.0,0.0,0.0,0.0,0.0,0.0,0.0,0.0,-4.7118,-4.6254,-4.6225,-4.609,-4.5925,-4.609,-4.6225,-4.6225,-4.6015,-4.609,-4.6506,-4.7191,-4.7364,-4.7076,-4.8046,-4.8103,0.0,-4.7538,-4.7366,-4.6975,-4.6931,-4.68,-4.6639,-4.6403,-4.6314,-4.6269,-4.606,-4.597,-4.597,0.0,0.0,0.0,0.0,0.0,0.0,0.0,0.0,0.0,0.0,0.0,0.0,0.0,0.0,0.0,0.0,0.0,0.0,0.0,0.0,0.0,0.0,0.0,-3.0807,-3.0395,-3.0767,-3.1294,-3.2009,-3.2279,-3.2962,-3.4069,-3.4034,-3.4189,-3.4522,-3.4522,-3.4515,-3.4512,-3.4774,-3.4947,-3.4994,-3.4923,0.0,0.0,0.0,0.0,0.0,-3.3977,-3.5036,0.0,-3.6167,-3.6833,-3.7607,0.0,0.0,0.0,0.0,-3.2219,-3.2219,-3.2219,-3.2995,-3.3827,-3.4077,-3.3898,-3.3681,0.0,0.0,0.0,0.0,0.0,0.0,0.0,0.0,0.0,0.0,0.0,0.0,0.0,0.0,0.0,0.0,0.0,0.0,0.0,0.0,0.0,0.0,0.0,-4.6373,-4.5925,-4.588,-4.588,-4.588,-4.588,-4.588,-4.588,-4.588,-4.588,-4.5925,-4.6594,-4.6785,-4.6447,-4.7264,-4.7437,-4.7121,-4.7251,-4.7164,-4.6873,-4.68,-4.6624,-4.6403,-4.6135,-4.6046,-4.6046,-4.5925,-4.588,-4.588,0.0,0.0,0.0,0.0,0.0,0.0,0.0,0.0,0.0,0.0,0.0,0.0,0.0,0.0,0.0,0.0,0.0,0.0,0.0,0.0,0.0,0.0,0.0,-3.0593,-2.9878,-3.0379,-3.0683,-3.0767,-3.1349,-3.2215,-3.3327,-3.3435,-3.3879,-3.4591,-3.4707,-3.4456,-3.3999,-3.4539,-3.4804,-3.4915,-3.4897,0.0,0.0,0.0,0.0,0.0,0.0,0.0,0.0,-3.5418,-3.592,-3.658,-3.5159,0.0,0.0,0.0,0.0,0.0,-3.1996,-3.3116,-3.4236,-3.406,-3.3698,-3.3382,0.0,0.0,0.0,0.0,0.0,0.0,0.0,0.0,0.0,0.0,0.0,0.0,0.0,0.0,0.0,0.0,0.0,0.0,0.0,0.0,0.0,0.0,0.0,-4.588,-4.588,-4.588,-4.588,-4.588,-4.588,-4.588,-4.588,-4.588,-4.5925,-4.5925,-4.618,-4.6269,-4.6299,-4.6697,-4.6916,-4.6916,0.0,0.0,-4.6785,-4.6624,-4.6403,-4.6135,-4.597,-4.588,-4.588,-4.588,-4.588,-4.588,0.0,0.0,0.0,0.0,0.0,0.0,0.0,0.0,0.0,0.0,0.0,0.0,0.0,0.0,0.0,0.0,0.0,0.0,0.0,0.0,0.0,0.0,-3.0031,-3.0567,-3.0546,-2.9827,-2.9987,-3.1046,-3.0915,-3.0973,-3.1193,-3.1825,-3.2497,-3.3228,-3.386,-3.4014,-3.3835,-3.4054,-3.408,-3.4044,-3.4674,0.0,0.0,0.0,0.0,0.0,0.0,0.0,0.0,-3.4192,-3.4993,-3.6184,-3.4412,0.0,0.0,0.0,0.0,0.0,-3.1996,-3.3289,-3.4378,-3.3433,-3.2912,-3.2691,0.0,0.0,0.0,0.0,0.0,0.0,0.0,0.0,0.0,0.0,0.0,0.0,0.0,0.0,0.0,0.0,0.0,0.0,0.0,0.0,0.0,0.0,0.0,-4.588,-4.588,-4.588,-4.588,-4.588,-4.588,-4.588,-4.588,-4.588,-4.597,-4.618,-4.6417,-4.6624,-4.6785,-4.6887,-4.6916,-4.6873,0.0,-4.655,-4.6299,-4.6254,-4.6135,-4.5925,-4.5925,-4.588,-4.588,-4.588,-4.588,-4.588,0.0,0.0,0.0,0.0,0.0,0.0,0.0,0.0,0.0,0.0,0.0,0.0,0.0,0.0,0.0,0.0,0.0,0.0,0.0,0.0,0.0,-2.8982,-2.9467,-2.9859,-3.0092,-2.9632,-2.9826,-3.0794,-3.065,-3.0906,-3.1514,-3.244,-3.289,-3.2934,-3.34,-3.333,-3.2835,-3.3048,-3.3281,-3.3512,0.0,0.0,0.0,0.0,0.0,0.0,0.0,0.0,0.0,0.0,-3.3788,-3.4607,-3.3421,0.0,0.0,0.0,0.0,0.0,-3.1726,-3.2345,-3.3006,-3.3231,-3.3967,-3.47,0.0,0.0,0.0,0.0,0.0,0.0,0.0,0.0,0.0,0.0,0.0,0.0,0.0,0.0,0.0,0.0,0.0,0.0,0.0,0.0,0.0,0.0,0.0,0.0,-4.588,-4.588,-4.588,-4.588,-4.588,-4.588,-4.588,-4.588,-4.6015,-4.621,-4.6447,-4.6727,-4.6916,-4.6916,-4.6916,-4.6873,0.0,-4.6447,-4.621,-4.621,-4.609,-4.588,-4.588,-4.588,-4.588,-4.588,-4.588,-4.588,0.0,0.0,0.0,0.0,0.0,0.0,0.0,0.0,0.0,0.0,0.0,0.0,0.0,0.0,0.0,0.0,0.0,0.0,0.0,0.0,-2.8897,-2.8779,-2.8897,-2.9136,-2.9566,-2.9288,-2.9437,-3.0122,-3.0039,-3.0615,-3.1813,-3.256,-3.2873,-3.2746,-3.2674,-3.2331,-3.1848,-3.2087,-3.244,-3.2838,0.0,0.0,0.0,0.0,0.0,0.0,0.0,0.0,0.0,0.0,0.0,0.0,0.0,0.0,0.0,-3.1705,-3.1511,-3.1511,-3.1511,-3.1735,-3.2198,-3.3245,0.0,-3.5522,0.0,0.0,0.0,0.0,0.0,0.0,0.0,0.0,0.0,0.0,0.0,0.0,0.0,0.0,0.0,0.0,0.0,0.0,0.0,0.0,0.0,0.0,0.0,0.0,-4.588,-4.588,-4.588,-4.588,-4.588,-4.588,-4.588,-4.5925,-4.609,-4.6314,-4.6506,-4.6727,-4.6975,-4.6887,-4.6844,-4.68,-4.6535,-4.6314,-4.6135,-4.6135,-4.6046,-4.588,-4.588,-4.588,-4.588,-4.588,-4.588,-4.588,0.0,0.0,0.0,0.0,0.0,0.0,0.0,0.0,0.0,0.0,0.0,0.0,0.0,0.0,0.0,0.0,0.0,0.0,0.0,0.0,-2.8444,-2.8444,-2.8444,-2.8787,-2.9493,-2.8541,-2.8338,-2.9029,-2.8713,-2.9275,-3.0629,-3.0379,-3.1014,-3.2312,-3.1191,-3.0953,-3.1358,-3.1508,-3.1614,-3.1798,-3.2924,0.0,0.0,0.0,0.0,0.0,0.0,0.0,0.0,0.0,0.0,0.0,0.0,0.0,-3.2377,-3.1705,-3.1511,-3.1511,-3.1511,-3.2392,-3.338,-3.3469,0.0,0.0,-3.5011,0.0,0.0,0.0,0.0,0.0,0.0,0.0,0.0,0.0,0.0,0.0,0.0,0.0,0.0,0.0,0.0,0.0,0.0,0.0,0.0,0.0,0.0,0.0,-4.588,-4.588,-4.588,-4.588,-4.588,-4.588,-4.588,-4.609,-4.6314,-4.655,-4.6594,-4.6815,-4.7266,-4.6815,-4.6639,-4.6594,-4.615,-4.5925,-4.5925,-4.5925,-4.5925,-4.588,-4.588,-4.588,-4.588,-4.588,-4.588,-4.588,0.0,0.0,0.0,0.0,0.0,0.0,0.0,0.0,0.0,0.0,0.0,0.0,0.0,0.0,0.0,0.0,0.0,0.0,0.0,0.0,-2.8411,-2.8411,-2.7996,-2.7906,-2.8193,-2.7805,-2.7697,-2.7961,-2.888,-2.9856,-3.0805,-3.0942,-3.1334,-3.1875,-3.072,-3.0208,-3.0251,-3.0465,-3.075,-3.1127,-3.2048,-3.233,0.0,0.0,0.0,0.0,0.0,0.0,0.0,0.0,-3.1481,-3.2198,0.0,-3.1869,-3.1824,-3.157,-3.1511,-3.1511,-3.1511,-3.2497,-3.3499,-3.3499,0.0,0.0,0.0,0.0,0.0,0.0,0.0,0.0,0.0,0.0,0.0,0.0,0.0,0.0,0.0,0.0,0.0,0.0,0.0,0.0,0.0,0.0,0.0,0.0,0.0,0.0,-4.588,-4.588,-4.588,-4.588,-4.588,-4.588,-4.588,-4.609,-4.6254,-4.6358,-4.6506,-4.6771,-4.7019,-4.658,-4.6358,-4.6314,-4.6015,-4.588,-4.588,-4.588,-4.588,-4.588,-4.588,-4.588,-4.588,-4.588,-4.588,-4.588,0.0,0.0,0.0,0.0,0.0,0.0,0.0,0.0,0.0,0.0,0.0,0.0,0.0,0.0,0.0,0.0,0.0,0.0,-2.8365,-2.8411,-2.8411,-2.8411,-2.7765,-2.7288,-2.7088,-2.7072,-2.718,-2.7396,-2.8962,-3.012,-3.0816,-3.1092,-3.1196,-3.1142,-3.0169,-2.9745,-2.9763,-2.9981,-3.0389,-3.098,-3.1637,-3.1968,0.0,0.0,0.0,0.0,0.0,0.0,0.0,0.0,-3.0943,0.0,0.0,0.0,0.0,0.0,-3.1645,-3.1765,-3.157,-3.2303,-3.3245,0.0,0.0,0.0,0.0,0.0,0.0,0.0,0.0,0.0,0.0,0.0,0.0,0.0,0.0,0.0,0.0,0.0,0.0,0.0,0.0,0.0,0.0,0.0,0.0,0.0,0.0,0.0,0.0,-4.588,-4.5925,-4.6015,-4.5925,-4.597,-4.6105,-4.618,-4.6254,-4.6314,-4.6447,-4.658,-4.68,-4.6388,-4.621,-4.621,-4.6015,-4.588,-4.588,-4.588,-4.588,-4.588,-4.588,-4.588,-4.588,-4.588,-4.588,-4.588,0.0,0.0,0.0,0.0,0.0,0.0,0.0,0.0,0.0,0.0,0.0,0.0,0.0,0.0,0.0,0.0,0.0,0.0,-2.8365,-2.8411,-2.8411,-2.8396,-2.775,-2.7072,-2.6418,-2.6418,-2.6718,-2.7396,-2.875,-2.9725,-3.0386,-3.0402,-3.0282,-3.0069,-2.9465,-2.954,-3.0092,-3.0166,-3.0676,-3.1443,-3.1971,-3.2191,-3.2114,0.0,0.0,0.0,0.0,0.0,0.0,0.0,-3.0928,-3.1615,0.0,0.0,0.0,0.0,-3.1974,-3.2333,-3.1675,-3.1989,0.0,0.0,0.0,0.0,0.0,0.0,0.0,0.0,0.0,0.0,0.0,0.0,0.0,0.0,0.0,0.0,0.0,0.0,0.0,0.0,0.0,0.0,0.0,0.0,0.0,0.0,0.0,0.0,0.0,-4.5866,-4.6001,-4.6151,-4.6001,-4.609,-4.658,-4.6284,-4.6284,-4.658,-4.6299,-4.6343,-4.6594,-4.6314,-4.621,-4.6165,-4.6015,-4.588,-4.588,-4.588,-4.588,-4.588,-4.588,-4.588,-4.588,-4.588,-4.588,-4.588,0.0,0.0,0.0,0.0,0.0,0.0,0.0,0.0,0.0,0.0,0.0,0.0,0.0,0.0,0.0,0.0,0.0,0.0,-2.8319,-2.8411,-2.8196,-2.7719,-2.7042,-2.6595,-2.6402,-2.6857,-2.7196,-2.7396,-2.875,-2.9494,-2.971,-3.0171,-3.0135,-2.9596,-2.9421,-2.9446,-2.9627,-3.0027,-3.0676,-3.1443,-3.1971,-3.1956,-3.162,0.0,0.0,0.0,0.0,0.0,0.0,0.0,0.0,0.0,0.0,0.0,0.0,-3.1511,-3.1645,-3.175,-3.1555,0.0,0.0,0.0,0.0,0.0,0.0,0.0,0.0,0.0,0.0,0.0,0.0,0.0,0.0,0.0,0.0,0.0,0.0,0.0,0.0,0.0,0.0,0.0,0.0,0.0,0.0,0.0,0.0,0.0,0.0,-4.4792,-4.4749,-4.4676,-4.4589,-4.4647,-4.4763,-4.4835,-4.4835,-4.4763,-4.4835,-4.5391,-4.6314,-4.609,-4.6015,-4.597,-4.5925,-4.588,-4.588,-4.588,-4.588,-4.588,-4.588,-4.588,-4.588,-4.588,-4.588,-4.588,0.0,0.0,0.0,0.0,0.0,0.0,0.0,0.0,0.0,0.0,0.0,0.0,0.0,0.0,0.0,0.0,0.0,0.0,0.0,-2.8174,-2.7859,-2.7466,-2.654,-2.6147,-2.6402,-2.7057,-2.7519,-2.7796,-2.8889,-2.9387,-2.9417,-3.0366,-3.0166,-2.9042,-2.9556,-2.9787,-2.9817,-3.014,-3.0872,-3.1797,-3.1869,-3.167,-3.132,0.0,0.0,0.0,0.0,0.0,0.0,0.0,0.0,0.0,0.0,0.0,0.0,-3.1824,-3.2079,-3.2333,-3.2632,0.0,0.0,0.0,0.0,0.0,0.0,0.0,0.0,0.0,0.0,0.0,0.0,0.0,0.0,0.0,0.0,0.0,0.0,0.0,0.0,0.0,0.0,0.0,0.0,0.0,0.0,0.0,0.0,0.0,0.0,-4.4194,-4.4137,-4.4108,-4.4022,-4.408,-4.4295,-4.4194,-4.4151,-4.4108,-4.4151,-4.4588,-4.5332,-4.5214,-4.5271,-4.5503,-4.5764,-4.588,-4.588,-4.588,-4.588,-4.588,-4.588,-4.588,-4.588,-4.588,-4.588,-4.588,0.0,0.0,0.0,0.0,0.0,0.0,0.0,0.0,0.0,0.0,0.0,0.0,0.0,0.0,0.0,0.0,0.0,0.0,0.0,0.0,-2.7458,-2.7319,-2.6189,-2.5874,-2.6495,-2.7149,-2.7796,-2.8411,-2.9027,-2.9294,-2.9325,-3.0612,-3.0197,-2.8473,-2.9787,-3.0402,-3.0402,-3.0402,-3.1151,-3.2244,-3.1567,-3.1259,-3.1074,-2.9874,0.0,0.0,0.0,0.0,0.0,0.0,0.0,0.0,0.0,0.0,-3.163,-3.2213,-3.2931,-3.3619,0.0,0.0,0.0,0.0,0.0,0.0,0.0,0.0,0.0,0.0,0.0,0.0,0.0,0.0,0.0,0.0,0.0,0.0,0.0,0.0,0.0,0.0,0.0,0.0,0.0,0.0,0.0,0.0,0.0,0.0,0.0,-4.3862,-4.3934,-4.409,-4.3934,-4.4034,-4.4459,-4.4034,-4.3934,-4.409,-4.3891,-4.3819,-4.3819,-4.3935,-4.4284,-4.4835,-4.5445,-4.575,-4.5793,-4.5793,-4.5822,-4.588,-4.588,-4.588,-4.588,-4.588,-4.588,-4.588,0.0,0.0,0.0,0.0,0.0,0.0,0.0,0.0,0.0,0.0,0.0,0.0,0.0,0.0,0.0,0.0,0.0,0.0,0.0,0.0,-2.7025,-2.5979,-2.6114,-2.651,-2.7165,-2.7842,-2.8258,-2.8411,-2.855,-2.8627,-2.8642,-2.9458,-2.9319,-2.8473,-2.9787,-3.0402,-3.0402,-3.0402,-3.0874,-3.1551,-3.0889,-3.0294,-2.9812,-2.952,-2.9387,0.0,0.0,0.0,0.0,0.0,0.0,0.0,-3.1511,-3.1511,-3.1525,-3.1675,-3.2572,0.0,0.0,0.0,0.0,0.0,0.0,0.0,0.0,0.0,0.0,0.0,0.0,0.0,0.0,0.0,0.0,0.0,0.0,0.0,0.0,0.0,0.0,0.0,0.0,0.0,0.0,0.0,0.0,0.0,0.0,0.0,-4.276,-4.2719,-4.2692,-4.2582,-4.254,-4.254,-4.2665,-4.254,-4.254,-4.2582,-4.254,-4.2513,-4.2542,-4.3529,-4.4066,-4.4197,-4.4342,-4.4661,-4.5097,-4.5097,-4.5416,-4.588,-4.588,-4.588,-4.588,-4.588,-4.588,-4.588,0.0,0.0,0.0,0.0,0.0,0.0,0.0,0.0,0.0,0.0,0.0,0.0,0.0,0.0,0.0,0.0,0.0,0.0,0.0,0.0,-2.5795,-2.5277,-2.6145,-2.6872,-2.7396,-2.8057,-2.8411,-2.8411,-2.8411,-2.8411,0.0,-2.9104,-2.9058,-2.8473,-2.9787,-3.0217,-2.994,-3.0263,-3.0586,-3.0859,-3.0186,-2.971,-2.9387,-2.9387,-2.9387,-2.9433,-2.969,0.0,0.0,0.0,0.0,0.0,0.0,0.0,-3.157,-3.1884,-3.2452,-3.3305,0.0,0.0,0.0,0.0,0.0,0.0,0.0,0.0,0.0,0.0,0.0,0.0,0.0,0.0,0.0,0.0,0.0,0.0,0.0,0.0,0.0,0.0,0.0,0.0,0.0,0.0,0.0,0.0,0.0,-4.2351,-4.2242,-4.2242,-4.2216,-4.2092,-4.2092,-4.2092,-4.2092,-4.2092,-4.2092,-4.2092,-4.2092,-4.2092,-4.2121,-4.3079,-4.3515,-4.3529,-4.3848,-4.4168,-4.4458,-4.4458,-4.4835,-4.5401,-4.5401,-4.5605,-4.588,-4.588,-4.588,-4.588,0.0,0.0,0.0,0.0,0.0,0.0,0.0,0.0,0.0,0.0,0.0,0.0,0.0,0.0,0.0,0.0,0.0,0.0,0.0,0.0,0.0,-2.5303,-2.6319,-2.7105,-2.7565,-2.8119,-2.8411,-2.8411,-2.8411,0.0,0.0,0.0,0.0,-2.8473,-2.9787,-3.0017,-2.9433,-3.0109,-3.0325,-3.0171,-2.9494,-2.9294,-2.9387,-2.9387,-2.9525,-2.9802,-3.0252,-3.0746,-3.1189,-3.1036,0.0,0.0,0.0,0.0,-3.1615,-3.2153,-3.2497,-3.317,0.0,0.0,0.0,0.0,0.0,0.0,0.0,0.0,0.0,0.0,0.0,0.0,0.0,0.0,0.0,0.0,0.0,0.0,0.0,0.0,0.0,0.0,0.0,0.0,0.0,0.0,0.0,0.0,0.0,-4.2092,-4.2092,-4.2092,-4.2092,-4.2092,-4.2092,-4.2092,-4.2092,-4.2092,-4.2092,-4.2092,-4.2092,-4.2092,-4.2121,-4.2615,-4.2832,-4.2876,-4.3427,-4.3718,-4.3819,-4.3819,-4.4182,-4.4734,-4.4734,-4.514,-4.5706,-4.5706,-4.5779,-4.588,0.0,0.0,0.0,0.0,0.0,0.0,0.0,0.0,0.0,0.0,0.0,0.0,0.0,0.0,0.0,0.0,0.0,0.0,-2.3361,0.0,0.0,-2.6568,-2.6708,-2.7206,-2.8233,-2.835,-2.8411,-2.8411,0.0,0.0,0.0,0.0,0.0,-2.8473,0.0,-3.0017,-2.9433,-3.0109,-3.0063,-2.9464,-2.8812,-2.8864,-2.9387,-2.9387,-3.012,-3.1136,-3.1213,-3.1581,-3.2013,-3.1888,-3.1807,0.0,0.0,0.0,-3.1525,-3.1615,-3.2452,0.0,0.0,0.0,0.0,0.0,0.0,0.0,0.0,0.0,0.0,0.0,0.0,0.0,0.0,0.0,0.0,0.0,0.0,0.0,0.0,0.0,0.0,0.0,0.0,0.0,0.0,0.0,0.0,0.0,-4.2092,-4.2092,-4.2092,-4.2092,-4.2092,-4.2092,-4.2092,-4.2092,-4.2092,-4.2092,-4.2092,-4.2092,-4.2092,-4.2092,-4.2092,-4.2179,-4.2223,-4.2223,-4.231,-4.2644,-4.3123,-4.3123,-4.3515,-4.411,-4.411,-4.4487,-4.5024,-4.5024,-4.5387,-4.588,0.0,0.0,0.0,0.0,0.0,0.0,0.0,0.0,0.0,0.0,0.0,0.0,0.0,0.0,0.0,-2.2342,-2.2806,-2.3068,-2.2918,-2.4115,-2.5203,-2.6035,-2.6327,-2.6853,-2.7645,-2.794,-2.8063,-2.8063,0.0,0.0,0.0,-2.8411,-2.8611,0.0,0.0,0.0,0.0,0.0,0.0,-2.892,-2.8591,-2.8973,-2.9726,-2.9554,-3.0235,-3.1212,-3.1031,-3.15,-3.2163,-3.2053,-3.1912,-3.1756,-3.1568,0.0,0.0,0.0,-3.1914,0.0,0.0,0.0,0.0,0.0,0.0,0.0,0.0,0.0,0.0,0.0,0.0,0.0,0.0,0.0,0.0,0.0,0.0,0.0,0.0,0.0,0.0,0.0,0.0,0.0,0.0,0.0,0.0,0.0,-4.2092,-4.2092,-4.2092,-4.2092,-4.2092,-4.2092,-4.2092,-4.2092,-4.2092,-4.2092,-4.2092,-4.2092,-4.2092,-4.2092,-4.2092,-4.2092,-4.2092,-4.2092,-4.2092,-4.2237,-4.2498,-4.2498,-4.2861,-4.3427,-4.3427,-4.3819,-4.4385,-4.4385,-4.4574,-4.4864,0.0,0.0,0.0,0.0,0.0,0.0,0.0,0.0,0.0,0.0,0.0,0.0,0.0,0.0,0.0,0.0,-2.2409,-2.2698,-2.3387,-2.4509,-2.5294,-2.5609,-2.6093,-2.6549,-2.6979,-2.7509,-2.7765,0.0,0.0,0.0,-2.8186,-2.8354,-2.8772,0.0,-2.9907,0.0,0.0,0.0,0.0,-2.8588,-2.8471,-2.898,-2.9795,-2.9742,-3.0319,-3.1043,-3.0686,-3.1217,-3.1994,-3.1853,-3.184,-3.1855,-3.1683,-3.1597,0.0,0.0,0.0,0.0,0.0,0.0,0.0,0.0,0.0,0.0,0.0,0.0,0.0,0.0,0.0,0.0,0.0,0.0,0.0,0.0,0.0,0.0,0.0,0.0,0.0,0.0,0.0,0.0,0.0,0.0,0.0,0.0,-4.2092,-4.2092,-4.2092,-4.2092,-4.2092,-4.2092,-4.2092,-4.2092,-4.2092,-4.2092,-4.2092,-4.2092,-4.2092,-4.2092,-4.2092,-4.2092,-4.2092,-4.2092,-4.2092,-4.2092,-4.2092,-4.2092,-4.2368,-4.276,-4.276,-4.3166,-4.3732,-4.3732,-4.3848,-4.4052,0.0,0.0,0.0,0.0,0.0,0.0,0.0,0.0,0.0,0.0,0.0,0.0,-2.1841,-2.2067,-2.2385,-2.2829,-2.2982,-2.3575,-2.4797,-2.4964,-2.5378,-2.6212,-2.6416,0.0,-2.6704,-2.7433,0.0,0.0,0.0,0.0,-2.7555,-2.8261,-2.8843,-2.9324,-2.9406,-2.9418,-2.9307,0.0,0.0,0.0,0.0,-2.8642,0.0,0.0,-3.051,0.0,-3.0638,-3.094,-3.1508,-3.132,-3.1652,-3.215,-3.2025,-3.1898,-3.1784,0.0,0.0,0.0,0.0,0.0,0.0,0.0,0.0,0.0,0.0,0.0,0.0,0.0,0.0,0.0,0.0,0.0,0.0,0.0,0.0,0.0,0.0,0.0,0.0,0.0,0.0,0.0,0.0,0.0,0.0,0.0,-4.2092,-4.2092,-4.2092,-4.2092,-4.2092,-4.2092,-4.2092,-4.2092,-4.2092,-4.2092,-4.2092,-4.2092,-4.2092,-4.2092,-4.2092,-4.2092,-4.2092,-4.2092,-4.2092,-4.2092,-4.2092,-4.2092,-4.2121,-4.215,-4.215,-4.2513,-4.305,-4.305,-4.3442,-4.3993,0.0,0.0,0.0,0.0,0.0,0.0,0.0,0.0,0.0,0.0,0.0,0.0,0.0,-2.2359,-2.2752,-2.301,-2.3727,-2.4385,-2.4847,-2.5145,-2.5492,-2.5892,-2.5961,-2.6069,-2.619,-2.6695,0.0,0.0,0.0,-2.7561,-2.77,-2.7871,-2.8257,-2.8813,-2.926,-2.9432,-2.936,-2.8455,0.0,0.0,0.0,0.0,0.0,0.0,0.0,0.0,0.0,0.0,0.0,-3.1648,-3.1867,-3.2163,-3.194,-3.1841,-3.1756,-3.167,0.0,0.0,0.0,0.0,0.0,0.0,0.0,0.0,0.0,0.0,0.0,0.0,0.0,0.0,0.0,0.0,0.0,0.0,0.0,0.0,0.0,0.0,0.0,0.0,0.0,0.0,0.0,0.0,0.0,0.0,0.0,-4.2092,-4.2092,-4.2092,-4.2092,-4.2092,-4.2092,-4.2092,-4.2092,-4.2092,-4.2092,-4.2092,-4.2092,-4.2092,-4.2092,-4.2092,-4.2092,-4.2092,-4.2092,-4.2092,-4.2092,-4.2092,-4.2092,-4.2092,-4.2092,-4.2223,-4.2411,-4.2411,-4.2571,-4.2832,0.0,0.0,0.0,0.0,0.0,0.0,0.0,0.0,0.0,0.0,0.0,0.0,0.0,0.0,-2.2989,-2.3332,-2.4429,-2.5088,-2.5088,-2.5342,-2.5508,-2.5536,-2.5605,-2.5633,-2.5674,-2.5964,0.0,0.0,0.0,0.0,0.0,-2.7752,-2.811,-2.8498,-2.8995,-2.9291,0.0,0.0,0.0,-2.7847,0.0,0.0,-2.9274,0.0,0.0,0.0,0.0,0.0,0.0,0.0,-3.2119,-3.2541,-3.2273,-3.2058,-3.1883,-3.1712,0.0,0.0,0.0,0.0,0.0,0.0,0.0,0.0,0.0,0.0,0.0,0.0,0.0,0.0,0.0,0.0,0.0,0.0,0.0,0.0,0.0,0.0,0.0,0.0,0.0,0.0,0.0,0.0,0.0,0.0,0.0,0.0,-4.1758,-4.1976,-4.2092,-4.2092,-4.2092,-4.2092,-4.2092,-4.2092,-4.2092,-4.2092,-4.2092,-4.2092,-4.2092,-4.2092,-4.2092,-4.2092,-4.2092,-4.2092,-4.2092,-4.2092,-4.2092,-4.2092,-4.2092,-4.2092,-4.2092,-4.2092,-4.2092,-4.215,0.0,0.0,0.0,0.0,0.0,0.0,0.0,0.0,0.0,-2.1987,0.0,0.0,0.0,0.0,0.0,-2.3875,-2.5018,-2.5702,-2.5702,-2.5564,-2.5397,-2.523,-2.5397,-2.5397,-2.523,-2.5328,0.0,0.0,0.0,0.0,0.0,0.0,-2.8437,-2.8416,-2.8538,-2.8931,-2.9386,0.0,-2.7737,-2.7858,0.0,-2.8532,-2.8173,0.0,0.0,0.0,-2.9382,-3.0024,0.0,-3.1481,0.0,0.0,0.0,0.0,-3.2178,-3.2038,0.0,0.0,0.0,0.0,0.0,0.0,0.0,0.0,0.0,0.0,0.0,0.0,0.0,0.0,0.0,0.0,0.0,0.0,0.0,0.0,0.0,0.0,0.0,0.0,0.0,0.0,0.0,0.0,0.0,0.0,-4.0699,-4.1062,-4.1062,-4.17,-4.2063,-4.2063,-4.2092,-4.2092,-4.2092,-4.2092,-4.2092,-4.2092,-4.2092,-4.2092,-4.2092,-4.2092,-4.2092,-4.2092,-4.2092,-4.2092,-4.2092,-4.2092,-4.2092,-4.2092,-4.2092,-4.2092,-4.2092,-4.2092,-4.2092,-4.2092,0.0,0.0,0.0,0.0,0.0,0.0,-2.0786,-2.118,-2.167,0.0,0.0,0.0,-2.2519,-2.3134,-2.3913,-2.475,-2.537,-2.5661,-2.5564,-2.5522,-2.5467,-2.5425,-2.555,-2.5633,-2.5564,-2.5616,0.0,0.0,0.0,0.0,0.0,0.0,0.0,0.0,-2.8583,-2.8438,-2.8132,-2.7373,0.0,0.0,-2.8122,-2.8412,0.0,0.0,0.0,0.0,0.0,-3.0841,-3.1897,0.0,-3.2194,-3.2299,0.0,0.0,0.0,0.0,0.0,0.0,-3.1626,0.0,0.0,0.0,0.0,0.0,0.0,0.0,0.0,0.0,0.0,0.0,0.0,0.0,0.0,0.0,0.0,0.0,0.0,0.0,0.0,0.0,0.0,0.0,0.0,0.0,0.0,0.0,-4.0095,-4.0379,-4.0379,-4.1004,-4.1381,-4.1381,-4.1845,-4.2092,-4.2092,-4.2092,-4.2092,-4.2092,-4.2092,-4.2092,-4.2092,-4.2092,-4.2092,-4.2092,-4.2092,-4.2092,-4.2092,-4.2092,-4.2092,-4.2092,-4.2092,-4.2092,-4.2092,-4.2092,-4.2092,-4.2092,0.0,0.0,0.0,0.0,0.0,-2.0577,-2.1121,-2.1326,-2.176,0.0,0.0,0.0,-2.2862,-2.3592,-2.4254,-2.4764,-2.5218,-2.5467,-2.5369,-2.5313,-2.5285,-2.5285,-2.5383,-2.5425,-2.5481,-2.5232,-2.5522,0.0,0.0,0.0,0.0,0.0,0.0,0.0,0.0,0.0,0.0,0.0,0.0,0.0,-2.7971,0.0,0.0,-2.9909,-3.0553,0.0,0.0,0.0,-3.2189,-3.2356,-3.2321,0.0,0.0,0.0,0.0,0.0,0.0,0.0,0.0,0.0,0.0,0.0,0.0,0.0,-3.4083,-3.4936,0.0,0.0,0.0,0.0,0.0,0.0,0.0,0.0,0.0,0.0,0.0,0.0,0.0,0.0,0.0,0.0,0.0,-3.8702,-3.8821,-3.8958,-3.9441,-3.9828,-4.0089,-4.0466,-4.067,-4.067,-4.1323,-4.1671,-4.1671,-4.1961,-4.2092,-4.2092,-4.2092,-4.2092,-4.2092,-4.2092,-4.2092,-4.2092,-4.2092,-4.2092,-4.2092,-4.2092,-4.2092,-4.2092,-4.2092,-4.2092,-4.2092,-4.2092,-4.2092,-4.2092,0.0,0.0,0.0,-1.8625,-1.988,-2.1,-2.1465,-2.1594,-2.2031,0.0,-2.2833,-2.2739,-2.3337,-2.3946,-2.4313,-2.4382,-2.4887,-2.5202,-2.5174,-2.5061,-2.5005,-2.5005,-2.5005,-2.5117,-2.5298,-2.4778,-2.5065,0.0,0.0,0.0,0.0,0.0,0.0,0.0,0.0,0.0,0.0,0.0,0.0,-2.6126,-2.8057,-2.8518,0.0,0.0,-3.0471,-3.0471,-3.0471,-3.1209,-3.2238,-3.2594,-3.2684,0.0,0.0,0.0,0.0,0.0,-3.217,0.0,0.0,0.0,0.0,0.0,0.0,0.0,-3.4563,-3.5102,-3.5774,0.0,0.0,0.0,0.0,0.0,0.0,0.0,0.0,0.0,0.0,0.0,0.0,0.0,0.0,0.0,-3.824,-3.8202,-3.8202,-3.8202,-3.8754,-3.932,-3.9857,-3.9958,-4.0002,-4.0002,-4.0641,-4.0989,-4.0989,-4.1642,-4.199,-4.199,-4.2063,-4.2092,-4.2092,-4.2092,-4.2092,-4.2092,-4.2092,-4.2092,-4.2092,-4.2092,-4.2092,-4.2092,-4.2092,-4.2092,-4.2092,-4.2092,-4.2092,-4.2092,0.0,0.0,-1.7152,-1.76,-1.9273,-2.0417,-1.9939,-2.1704,-2.2969,-2.2644,-2.3272,-2.396,-2.4598,-2.445,-2.445,-2.4816,-2.5078,-2.5146,-2.5061,-2.5005,-2.5005,-2.5005,-2.509,-2.5392,-2.5899,-2.5804,-2.6091,0.0,0.0,0.0,0.0,0.0,0.0,0.0,0.0,0.0,0.0,0.0,0.0,-2.6499,-2.7679,0.0,-2.887,-3.0345,-3.0891,-3.0891,-3.0891,-3.1625,-3.262,-3.287,-3.3257,-3.3359,0.0,0.0,0.0,-3.1738,0.0,0.0,0.0,0.0,0.0,0.0,0.0,0.0,-3.2418,-3.2509,-3.2931,0.0,0.0,0.0,0.0,0.0,0.0,0.0,0.0,0.0,0.0,0.0,0.0,0.0,0.0,0.0,-3.8441,-3.8277,-3.8202,-3.8202,-3.8318,-3.8449,-3.8565,-3.9088,-3.9378,-3.9378,-3.9973,-4.0292,-4.0292,-4.096,-4.1294,-4.1294,-4.1845,-4.2092,-4.2092,-4.2092,-4.2092,-4.2092,-4.2092,-4.2092,-4.2092,-4.2092,-4.2092,-4.2092,-4.2092,-4.2092,-4.2092,-4.2092,-4.2092,-4.2092,0.0,0.0,-1.7528,-1.8093,-1.9548,-2.0757,-2.1089,-2.1855,-2.2626,-2.3273,-2.4049,-2.4557,-2.4557,-2.4334,-2.4209,-2.4237,-2.4505,-2.453,-2.4264,-2.473,-2.5005,-2.5005,-2.5061,-2.5226,-2.5554,-2.5567,-2.5854,-2.6453,0.0,0.0,0.0,0.0,0.0,0.0,0.0,0.0,0.0,0.0,-2.6404,-2.6585,-2.7613,0.0,-2.935,-3.0548,-3.0986,-3.0986,-3.0986,-3.1718,-3.2777,-3.3171,-3.325,0.0,-3.2613,-3.2533,-3.2495,0.0,-3.2059,-3.2449,0.0,0.0,0.0,-3.1769,0.0,0.0,0.0,-3.2646,-3.2991,0.0,0.0,0.0,0.0,0.0,0.0,0.0,0.0,0.0,0.0,0.0,0.0,0.0,0.0,0.0,-3.8366,-3.824,-3.8202,-3.8202,-3.8202,-3.8202,-3.8202,-3.8522,-3.8696,-3.8696,-3.932,-3.9654,-3.9654,-4.0278,-4.0597,-4.0612,-4.1279,-4.1599,-4.1613,-4.1947,-4.1814,-4.1339,-4.1339,-4.1339,-4.1339,-4.1339,-4.1339,-4.1339,-4.1339,-4.1339,-4.1311,-4.0816,-4.0645,-4.0645,-1.5915,0.0,0.0,-1.8734,-2.0062,-2.1346,-2.2099,-2.2043,-2.2483,0.0,0.0,0.0,0.0,0.0,0.0,0.0,-2.3943,-2.405,-2.3776,-2.45,-2.4985,-2.5005,-2.5005,-2.5059,-2.5168,-2.5168,-2.5412,-2.5887,0.0,0.0,0.0,0.0,0.0,0.0,0.0,0.0,0.0,0.0,0.0,-2.7037,0.0,-2.8616,-2.9605,-3.0616,-3.0986,-3.0999,-3.1117,-3.181,-3.2764,-3.3288,-3.3014,-3.2596,-3.3268,-3.2832,0.0,0.0,0.0,0.0,0.0,0.0,0.0,0.0,0.0,-3.2032,0.0,0.0,0.0,0.0,0.0,0.0,0.0,0.0,0.0,0.0,0.0,0.0,0.0,0.0,0.0,0.0,0.0,0.0,0.0,-3.7839,-3.7904,-3.8188,-3.7947,-3.7904,-3.8188,-3.8202,-3.8202,-3.8202,-3.8725,-3.9015,-3.9015,-3.9454,-3.9664,-3.9664,-4.0343,-4.0637,-4.0588,-4.1299,-4.1155,-4.0332,-4.0332,-4.0332,-4.0332,-4.0332,-4.0332,-4.0332,-4.0504,-4.0504,-4.0246,-3.9461,-3.921,-3.921,-1.635,-1.7611,0.0,0.0,-2.0335,-2.1596,-1.9969,-2.2223,0.0,0.0,0.0,0.0,0.0,0.0,0.0,0.0,0.0,0.0,-2.4645,0.0,-2.4876,-2.5004,-2.5005,-2.5249,-2.5778,-2.5792,-2.5819,-2.5887,0.0,0.0,0.0,0.0,0.0,0.0,-2.8406,0.0,0.0,0.0,-2.7327,0.0,-2.8173,-2.8616,0.0,-3.0616,-3.0986,-3.1052,-3.1523,-3.215,-3.2738,0.0,-3.2896,-3.2581,0.0,-3.2277,-3.2437,-3.1533,0.0,0.0,0.0,0.0,0.0,0.0,-3.2379,0.0,0.0,0.0,-3.2027,-3.2177,0.0,0.0,0.0,0.0,0.0,0.0,0.0,0.0,0.0,0.0,0.0,0.0,0.0,0.0,0.0,-3.6512,-3.6866,-3.813,-3.704,-3.6895,-3.8144,-3.8202,-3.8202,-3.8202,-3.8275,-3.8318,-3.8318,-3.8204,-3.8161,-3.8161,-3.8825,-3.8977,-3.8759,-3.9578,-3.9729,-3.9373,-3.9373,-3.9373,-3.9373,-3.9373,-3.9373,-3.9417,-4.0289,-4.0073,-3.9329,-3.9241,-3.921,-3.921,-1.6736,-1.7779,0.0,0.0,-1.9762,-2.0667,-1.9934,-2.1293,0.0,0.0,0.0,0.0,0.0,0.0,0.0,0.0,0.0,-2.396,0.0,0.0,0.0,-2.4489,-2.4806,-2.5127,-2.5371,-2.5385,-2.5385,-2.5385,-2.6592,0.0,0.0,0.0,0.0,0.0,-2.8756,0.0,-2.8015,0.0,-2.8057,0.0,0.0,0.0,0.0,-3.0747,-3.0986,-3.1013,-3.1261,-3.1705,-3.2241,0.0,-3.2397,0.0,0.0,0.0,0.0,-3.1333,0.0,0.0,0.0,0.0,0.0,0.0,0.0,0.0,-3.1807,0.0,-3.1799,0.0,0.0,0.0,0.0,0.0,0.0,0.0,-3.2348,0.0,0.0,0.0,0.0,0.0,0.0,0.0,0.0,0.0,0.0,0.0,-3.6968,-3.6809,-3.813,-3.772,-3.7453,-3.7453,-3.6961,-3.6908,-3.7453,-3.6847,-3.6813,-3.733,-3.7505,-3.7483,-3.7381,-3.8129,-3.8267,-3.7914,-3.7914,-3.8113,-3.8373,-3.8373,-3.8373,-3.8419,-3.881,-3.872,-3.8328,-3.7795,-3.7566,-3.7566,-1.7347,0.0,0.0,0.0,0.0,-2.0123,-2.0587,0.0,0.0,0.0,0.0,0.0,-2.25,-2.251,0.0,0.0,-2.3658,-2.3835,0.0,0.0,-2.483,0.0,0.0,0.0,-2.5161,-2.5054,-2.5005,-2.5005,-2.6196,0.0,0.0,0.0,0.0,0.0,0.0,-2.8845,-2.8322,0.0,0.0,-2.9321,-2.9127,-2.9517,-3.0286,-3.0802,-3.0986,-3.0911,-3.0986,-3.1314,-3.1759,-3.2136,-3.1809,0.0,-3.3169,0.0,-3.1519,0.0,0.0,0.0,-3.0457,0.0,0.0,0.0,0.0,0.0,0.0,0.0,0.0,0.0,0.0,0.0,0.0,0.0,0.0,0.0,0.0,-3.1985,0.0,0.0,0.0,0.0,0.0,0.0,0.0,0.0,0.0,-3.7564,-3.6468,-3.6346,-3.7762,-3.7491,-3.7053,-3.6557,-3.6148,-3.6162,-3.6517,-3.5682,-3.5602,-3.6229,-3.6062,-3.5947,-3.5856,-3.6607,-3.6744,-3.6366,-3.6366,-3.669,-3.7175,-3.7175,-3.7265,-3.7407,-3.7407,-3.7407,-3.7315,-3.664,-3.6405,-3.6405,-1.834,-1.8754,0.0,0.0,0.0,0.0,0.0,0.0,0.0,0.0,0.0,0.0,0.0,0.0,0.0,0.0,0.0,-2.4839,-2.4576,0.0,-2.408,0.0,0.0,-2.4583,0.0,-2.521,-2.5005,-2.5005,0.0,0.0,0.0,0.0,0.0,0.0,0.0,-2.8845,-2.8348,-2.8725,-2.9446,-3.0309,-2.9719,-2.9624,-2.9919,0.0,-3.0874,-3.0736,-3.0911,0.0,0.0,-3.1184,-3.1111,0.0,0.0,0.0,0.0,0.0,0.0,0.0,0.0,0.0,0.0,-3.0733,0.0,0.0,0.0,0.0,-3.2332,0.0,0.0,0.0,0.0,0.0,0.0,0.0,0.0,0.0,0.0,0.0,0.0,0.0,0.0,0.0,0.0,0.0,-3.3541,-3.6149,-3.5045,-3.5053,-3.6849,-3.772,-3.74,-3.5695,-3.6439,-3.6478,-3.5655,-3.4855,-3.4439,-3.4481,-3.4452,-3.4301,-3.4029,-3.4891,-3.5097,-3.4796,-3.4796,-3.5064,-3.5567,-3.5567,-3.5927,-3.6452,-3.6452,-3.6452,-3.6452,-3.6405,-3.6405,-3.6405,0.0,0.0,0.0,0.0,0.0,0.0,0.0,-1.9486,0.0,0.0,0.0,0.0,0.0,-2.3366,-2.374,0.0,0.0,-2.473,-2.4033,-2.4154,0.0,0.0,0.0,-2.392,0.0,0.0,0.0,0.0,0.0,0.0,0.0,0.0,0.0,0.0,0.0,-2.9007,0.0,0.0,0.0,0.0,0.0,-2.9372,-2.9831,0.0,-3.0264,-3.0154,-3.0492,-3.0763,0.0,-3.11,-3.0675,-3.0355,-3.2001,-3.1768,-3.1047,-3.1889,-3.215,-3.1977,0.0,0.0,-3.2233,-3.1527,0.0,0.0,0.0,0.0,0.0,0.0,0.0,0.0,0.0,0.0,0.0,0.0,0.0,0.0,0.0,0.0,0.0,0.0,0.0,0.0,0.0,0.0,0.0,-3.6149,-3.5332,-3.5365,-3.6799,-3.6136,-3.5426,-3.4814,-3.4524,-3.4524,-3.4814,-3.3979,-3.3823,-3.4397,-3.3823,-3.347,-3.34,-3.3677,-3.3938,-3.4173,-3.4173,-3.4487,-3.4956,-3.4956,-3.5282,-3.5818,-3.5818,-3.6044,-3.6405,-3.6405,-3.6405,-3.6405,-1.8113,0.0,0.0,0.0,0.0,0.0,0.0,0.0,0.0,0.0,-2.1722,0.0,-2.3568,0.0,-2.4099,0.0,-2.4977,-2.473,-2.4017,-2.4102,0.0,-2.4032,-2.3583,0.0,0.0,0.0,0.0,0.0,0.0,-2.5858,0.0,0.0,0.0,0.0,0.0,0.0,-2.8625,0.0,-3.0006,0.0,0.0,-2.9076,0.0,0.0,-2.9673,-2.9846,0.0,-3.0457,-3.0522,-3.0727,-3.042,-3.0164,-3.1601,-3.1436,-3.0863,-3.179,-3.214,-3.2071,-3.159,-3.2006,0.0,-3.1771,-3.1711,0.0,-3.1209,0.0,-3.17,0.0,0.0,0.0,0.0,0.0,0.0,0.0,0.0,0.0,0.0,-2.9682,0.0,0.0,0.0,0.0,0.0,0.0,-3.3095,-3.4683,-3.4298,-3.4385,-3.5343,-3.5023,-3.4538,-3.3949,-3.3696,-3.3696,-3.3949,-3.3368,-3.3368,-3.3937,-3.3368,-3.3124,-3.3124,-3.3124,-3.3269,-3.3608,-3.3608,-3.3922,-3.4424,-3.4424,-3.4705,-3.5207,-3.5207,-3.5466,-3.5818,-3.6267,-3.6405,-3.638,0.0,0.0,0.0,0.0,-1.8998,0.0,0.0,0.0,-2.0681,0.0,-2.1878,-2.1908,-2.2944,-2.3896,-2.4451,-2.4451,-2.4897,-2.4973,-2.4389,-2.3956,0.0,0.0,-2.3999,-2.422,-2.5215,0.0,0.0,0.0,0.0,0.0,0.0,0.0,0.0,0.0,-2.799,0.0,-2.7987,-2.9183,-3.003,-3.0479,-2.9344,-2.8677,-2.8411,-2.8569,-2.9108,-2.9846,-3.0239,-3.0254,-3.0088,-3.0113,-3.0325,-3.062,-3.067,-3.1035,-3.1537,-3.2051,-3.2215,-3.2143,-3.1804,-3.2086,-3.2304,-3.1546,-3.1785,0.0,0.0,0.0,-3.1323,0.0,0.0,0.0,0.0,0.0,0.0,0.0,0.0,0.0,0.0,0.0,0.0,0.0,0.0,0.0,0.0,-2.9984,-3.0154,-3.2019,-3.2074,-3.2259,0.0,-3.4447,-3.4693,-3.3154,-3.3907,-3.3949,-3.3124,-3.3124,-3.3124,-3.3124,-3.3124,-3.3124,-3.3124,-3.3124,-3.3124,-3.3124,-3.3124,-3.337,-3.3859,-3.3859,-3.4186,-3.4675,-3.4675,-3.47,-3.4851,-3.594,-3.6329,-3.6254,-1.8132,-1.8315,-1.8823,0.0,-1.9472,-1.9527,0.0,0.0,0.0,0.0,-2.3206,-2.3591,-2.497,-2.5042,-2.5005,-2.5005,-2.5104,0.0,0.0,0.0,0.0,-2.4448,-2.3613,-2.3589,-2.4607,-2.3471,-2.283,-2.2784,0.0,0.0,-2.4787,0.0,0.0,0.0,0.0,0.0,-2.6896,-2.7894,-2.8578,-2.8941,-2.8502,-2.8411,-2.8558,0.0,-2.9135,-2.9599,-2.9885,-3.0011,-3.0151,-3.0374,-3.0534,-3.0758,-3.1549,-3.1888,-3.2026,-3.2177,-3.2215,-3.2177,-3.2093,-3.2156,-3.2239,-3.222,-3.2061,-3.1928,0.0,0.0,0.0,0.0,0.0,0.0,0.0,0.0,0.0,0.0,0.0,0.0,0.0,0.0,0.0,-2.9008,0.0,0.0,-3.021,-3.0485,-3.1215,-3.2715,-3.1942,-3.2117,-3.3876,0.0,-3.2676,-3.3086,-3.3326,-3.3326,-3.3124,-3.3124,-3.3124,-3.3124,-3.3124,-3.3124,-3.3124,-3.3124,-3.3124,-3.3124,-3.3124,-3.3156,-3.3294,-3.3294,-3.3608,-3.411,-3.411,-3.4361,-3.4763,-3.5039,-3.514,-3.5127,-1.8501,0.0,0.0,-2.0299,0.0,0.0,-2.1155,-2.1588,0.0,-2.3256,-2.3575,0.0,-2.4848,-2.4924,-2.4914,-2.4914,-2.4914,0.0,-2.4137,0.0,0.0,-2.4457,-2.3905,-2.3852,-2.4413,-2.3493,0.0,-2.2377,0.0,0.0,-2.3816,0.0,0.0,0.0,0.0,-2.6432,0.0,-2.7301,-2.7756,-2.7828,-2.7879,-2.7977,0.0,-2.8273,-2.8633,-2.911,-2.9436,-2.9895,-3.035,-3.0547,-3.0771,-3.106,-3.1662,-3.1851,-3.1901,-3.2139,-3.2215,-3.2265,-3.2516,-3.2591,-3.2571,-3.2416,-3.2386,-3.2263,-3.1629,-3.1772,-3.1915,0.0,-3.1542,-3.135,0.0,0.0,0.0,0.0,0.0,0.0,0.0,0.0,0.0,0.0,-2.8189,0.0,-2.923,-2.9321,-2.9766,-3.0815,-3.0213,-3.0314,0.0,0.0,-3.1687,-3.2315,-3.2566,-3.2817,-3.3124,-3.283,-3.283,-3.3124,-3.3124,-3.3124,-3.3124,-3.3124,-3.3124,-3.3124,-3.3124,-3.3124,-3.3124,-3.3124,-3.3257,-3.3533,-3.3533,-3.3721,-3.401,-3.401,-3.4311,-3.4688,-1.9283,0.0,0.0,0.0,0.0,0.0,0.0,-2.2389,0.0,-2.2965,0.0,-2.3875,-2.39,-2.4315,-2.4611,-2.4673,0.0,-2.4647,-2.4513,-2.4575,-2.4554,-2.4408,-2.445,-2.4497,-2.4497,-2.3917,-2.3171,0.0,0.0,0.0,0.0,0.0,0.0,0.0,0.0,0.0,0.0,-2.6887,-2.7102,-2.6911,-2.7275,-2.7439,-2.7451,-2.7523,-2.7881,-2.8458,-2.8954,-2.9675,-3.0461,-3.0731,-3.1122,-3.1512,-3.1587,-3.1612,-3.1687,-3.2089,-3.2215,-3.2328,-3.283,-3.2968,-3.2867,-3.2428,-3.2641,-3.2591,-3.1148,-3.1122,-3.1286,-3.0909,-3.0444,-3.0369,-3.1235,0.0,0.0,0.0,0.0,0.0,0.0,0.0,0.0,0.0,0.0,0.0,-2.8039,-2.753,-2.7503,-2.8191,-2.8008,-2.8072,0.0,0.0,-3.1311,-3.1599,-3.2077,-3.2528,-3.2998,-3.2541,-3.2541,-3.2968,-3.3043,-3.3124,-3.3124,-3.3124,-3.3124,-3.3124,-3.3124,-3.3124,-3.3124,-3.3124,-3.3124,-3.3124,-3.3124,-3.3124,-3.3124,-3.3124,-3.3684,-3.4437,0.0,0.0,0.0,0.0,0.0,-2.2581,-2.3159,-2.336,-2.3449,-2.3556,-2.4,-2.4471,-2.4875,-2.5016,-2.521,-2.5606,-2.5637,0.0,0.0,0.0,0.0,-2.4479,-2.4498,-2.4497,-2.4497,-2.3691,-2.2847,0.0,0.0,0.0,0.0,0.0,0.0,0.0,0.0,0.0,-2.5019,-2.5391,0.0,-2.5835,-2.6355,-2.6551,-2.6597,-2.7013,-2.7498,-2.7918,-2.8052,-2.871,-2.9768,-3.1365,-3.1989,-3.2152,-3.2629,-3.278,-3.2704,-3.2328,-3.2215,-3.224,-3.234,-3.2365,-3.2453,-3.283,-3.2641,-3.229,-3.2001,-3.165,-3.1499,-3.1851,-3.1851,-3.17,-3.1436,0.0,0.0,0.0,0.0,0.0,0.0,0.0,0.0,0.0,0.0,-2.7728,0.0,-2.704,-2.7695,-2.8834,-2.7583,-2.797,0.0,0.0,-3.0909,0.0,-3.2867,0.0,0.0,0.0,-3.2742,-3.2365,-3.2855,-3.3124,-3.3124,-3.3124,-3.3124,-3.3124,-3.3124,-3.3124,-3.3124,-3.3124,-3.3124,-3.3124,-3.3124,-3.3124,-3.3124,-3.3124,-3.3206,-3.3357,0.0,0.0,0.0,0.0,0.0,0.0,0.0,-2.4124,-2.4343,-2.4119,-2.4449,-2.4883,-2.5122,-2.5417,-2.5647,-2.5854,-2.5875,-2.5792,-2.5585,-2.5564,-2.5368,-2.4879,-2.4859,-2.4745,-2.4507,-2.4073,-2.3205,-2.1807,0.0,0.0,0.0,0.0,0.0,0.0,0.0,-2.403,0.0,0.0,0.0,-2.5282,-2.5813,-2.6054,-2.611,-2.6601,-2.6937,-2.7173,-2.7729,-2.8213,-2.8844,-3.024,-3.1215,-3.1951,-3.2221,-3.2667,-3.3018,-3.2742,-3.2667,-3.2667,-3.2667,-3.2667,-3.2654,-3.2641,-3.2641,-3.2579,-3.2277,-3.2001,-3.1888,-3.2152,-3.1989,-3.1537,-3.0721,-2.9917,0.0,0.0,0.0,0.0,0.0,0.0,-2.9936,0.0,0.0,0.0,0.0,0.0,0.0,0.0,0.0,-2.7568,-2.998,0.0,-3.0532,0.0,0.0,0.0,-3.2667,0.0,-3.2641,-3.2667,-3.2943,-3.3124,-3.3124,-3.3124,-3.3124,-3.3124,-3.3124,-3.3124,-3.3124,-3.3124,-3.3124,-3.3124,-3.3124,-3.3124,-3.3124,-3.3124,-3.3124,-3.3124,0.0,-2.2049,0.0,0.0,-2.3313,0.0,-2.4062,-2.4828,-2.5155,-2.4619,-2.4956,-2.5336,-2.5388,-2.5818,-2.6107,-2.621,-2.6221,-2.6179,-2.6076,-2.6065,-2.5834,-2.5388,-2.5241,-2.5024,-2.4652,-2.4549,-2.3701,0.0,0.0,0.0,0.0,0.0,0.0,0.0,0.0,0.0,0.0,0.0,-2.4727,-2.4936,-2.5355,-2.5559,-2.57,-2.6077,-2.6346,-2.6616,-2.7415,-2.775,-2.7974,-2.8622,-2.996,-3.1303,-3.1303,-3.1989,-3.2797,-3.2797,-3.2939,-3.3124,-3.3124,-3.3124,-3.3011,-3.2503,-3.2641,-3.2767,-3.2315,-3.2127,-3.2039,-3.2039,-3.1687,-3.1097,-3.0143,-2.9967,0.0,0.0,0.0,0.0,0.0,0.0,0.0,0.0,0.0,0.0,-2.8511,0.0,0.0,0.0,0.0,-2.7482,-2.9026,-2.9541,-3.0281,0.0,0.0,-3.2202,-3.2554,0.0,-3.2566,-3.2893,-3.3061,-3.3124,-3.3124,-3.3124,-3.3124,-3.3124,-3.3124,-3.3124,-3.3124,-3.3124,-3.3124,-3.3124,-3.3124,-3.3124,-3.3124,-3.3124,-3.3124,-3.3124,0.0,0.0,0.0,0.0,0.0,0.0,-2.4682,-2.5334,-2.5647,-2.5215,-2.5526,-2.6007,-2.6422,-2.6501,-2.6718,-2.7143,-2.7175,-2.6998,-2.6573,-2.6553,-2.6345,-2.5834,-2.544,-2.5168,-2.5127,-2.4714,-2.4011,0.0,0.0,-2.2237,0.0,0.0,0.0,0.0,0.0,0.0,0.0,-2.4215,-2.4378,-2.4563,-2.4605,-2.4875,-2.5249,-2.529,-2.5865,-2.6583,-2.6722,-2.7025,-2.7379,-2.7463,-2.8762,-3.0351,-3.0351,-3.0991,-3.1713,-3.1713,-3.2394,-3.3124,-3.3124,-3.3124,-3.3111,-3.3048,-3.2641,-3.2277,-3.2227,-3.1825,-3.1461,-3.1461,-3.1424,-3.1223,-3.0645,-3.0545,-3.0357,0.0,0.0,0.0,0.0,0.0,-3.1625,-3.0658,0.0,0.0,0.0,-2.821,0.0,0.0,-2.826,-2.8473,-2.9641,-2.9767,-3.0281,-3.1361,-3.1436,-3.1273,-3.0859,-3.2277,-3.2754,-3.2303,-3.283,-3.3124,-3.3124,-3.3124,-3.3124,-3.3124,-3.3124,-3.3124,-3.3124,-3.3124,-3.3124,-3.3124,-3.3124,-3.3124,-3.3124,-3.3124,-3.3124,-3.3124,0.0,0.0,0.0,0.0,0.0,0.0,0.0,-2.593,-2.6227,-2.6061,-2.6185,-2.6511,-2.6978,-2.7029,-2.7102,-2.7289,-2.7309,-2.7226,-2.704,-2.7029,-2.6822,-2.6356,-2.6123,-2.5906,-2.5627,-2.5137,-2.4466,0.0,0.0,0.0,0.0,0.0,0.0,0.0,0.0,-2.3563,-2.3638,-2.4145,-2.4441,-2.4518,-2.4797,-2.5024,-2.5241,-2.5834,-2.6258,-2.6656,-2.6926,-2.7154,-2.7309,-2.7309,-2.8175,-2.9314,-2.9314,-2.9988,-3.0756,-3.0756,-3.1024,-3.1347,-3.1347,-3.1347,-3.1347,-3.1347,-3.118,-3.1157,-3.1692,-3.1418,-3.1109,-3.1326,-3.0884,-3.0369,-3.0156,-3.0118,-3.0156,-3.0269,0.0,0.0,0.0,0.0,0.0,-3.0708,0.0,-2.9905,0.0,0.0,0.0,0.0,0.0,-2.7908,-2.9691,-2.9465,-2.993,-3.1348,0.0,-3.1788,-3.1574,-3.2566,-3.2968,-3.2729,-3.2968,-3.3124,-3.3124,-3.3124,-3.3124,-3.3124,-3.3124,-3.3124,-3.3124,-3.3124,-3.3124,-3.3124,-3.3124,-3.3124,-3.3124,-3.3124,-3.3124,-3.3124,-2.1673,0.0,-2.2395,0.0,-2.4003,-2.4607,-2.5912,-2.629,-2.6531,-2.6765,-2.6578,-2.6664,-2.722,-2.7309,-2.7309,-2.7309,-2.7309,-2.7309,-2.7309,-2.7309,-2.7164,-2.6832,-2.6687,0.0,-2.6127,-2.5647,-2.5047,-2.4281,-2.335,0.0,0.0,0.0,0.0,0.0,-2.3419,-2.3794,-2.3639,-2.4373,-2.4704,-2.4745,-2.5199,-2.5502,-2.5699,-2.633,-2.6698,-2.6864,-2.7185,-2.7309,-2.7309,-2.7309,-2.7715,-2.8315,-2.8315,-2.8945,-2.9761,-2.9761,-2.9988,-3.0215,-3.0215,-3.0215,-3.0215,-3.0215,-3.0215,-3.0351,-3.1036,-3.0885,-3.0608,-3.0589,-3.0072,-2.9564,-2.9442,-2.9624,-2.9867,-3.0093,0.0,0.0,0.0,-3.0355,0.0,-3.001,-2.9653,-2.9408,-2.9402,-2.8273,0.0,0.0,0.0,-2.7708,-2.944,-2.9315,-2.9792,0.0,0.0,0.0,-3.1976,-3.2704,-3.3124,-3.3124,-3.3124,-3.3124,-3.3124,-3.3124,-3.3124,-3.3124,-3.3124,-3.3124,-3.3124,-3.3124,-3.3124,-3.3124,-3.3124,-3.3124,-3.3124,-3.3124,-3.3124,-3.3124,-2.1594,-2.2208,-2.2971,-2.3604,-2.4385,-2.5361,-2.6439,-2.6337,-2.638,-2.7204,-2.662,-2.6428,-2.7214,-2.7309,-2.7309,-2.7309,-2.7309,-2.7309,-2.7309,-2.7309,-2.7309,0.0,0.0,-2.6615,-2.6604,-2.6148,-2.5658,-2.5168,0.0,0.0,-2.3143,0.0,-2.2294,-2.3163,-2.3184,-2.3681,-2.4518,-2.4983,-2.5179,-2.522,-2.5699,-2.619,-2.6604,-2.6615,-2.6895,-2.7299,-2.7309,-2.7309,-2.7309,-2.7309,-2.7309,-2.7309,-2.7309,-2.7951,-2.8724,-2.8724,-2.9395,-3.0215,-3.0215,-3.0215,-3.0215,-3.0215,-3.0215,-3.0215,-3.0215,-3.0204,-2.9916,-2.8948,-2.8915,-2.8982,-2.8598,-2.9209,-2.9616,-2.9001,0.0,0.0,0.0,-2.7859,0.0,-2.8495,-2.8502,-2.9077,-3.0465,-2.9076,0.0,0.0,0.0,0.0,0.0,0.0,0.0,-3.0608,-3.1135,0.0,-3.1399,-3.2516,-3.3124,-3.3124,-3.3124,-3.3124,-3.3124,-3.3124,-3.3124,-3.3124,-3.3124,-3.3124,-3.3124,-3.3124,-3.3124,-3.3124,-3.3124,-3.3124,-3.3124,-3.3124,-3.3124,-3.3124,-2.1442,-2.1646,-2.218,-2.3187,-2.3613,-2.4164,-2.5256,-2.5344,-2.5392,-2.5635,-2.5441,-2.5392,-2.5635,-2.662,-2.7309,0.0,-2.7309,-2.7309,0.0,-2.7309,-2.7309,-2.7309,-2.7164,-2.7092,-2.7092,-2.6635,-2.6279,-2.6144,0.0,0.0,0.0,-2.3908,-2.4157,-2.5006,-2.4716,-2.4902,-2.5461,-2.5606,-2.5668,-2.5709,-2.621,-2.648,-2.6646,-2.6967,-2.7185,-2.7309,-2.7309,-2.7309,-2.7309,-2.7309,-2.7309,-2.7309,-2.7309,-2.7489,-2.7762,-2.7762,-2.7998,-2.8211,-2.8211,-2.8211,-2.8211,-2.8211,-2.8211,-2.8398,-2.9037,-2.9398,-2.9494,-2.9173,-2.861,-2.8184,-2.8033,-2.8005,-2.7924,-2.7695,-2.7613,0.0,-2.7283,0.0,-2.6863,-2.6578,-2.6409,-2.6562,-2.7135,-2.65,0.0,0.0,0.0,0.0,0.0,0.0,0.0,0.0,-3.1486,0.0,-3.1951,-3.2704,-3.3124,-3.3124,-3.3124,-3.3124,-3.3124,-3.3124,-3.3124,-3.3124,-3.3124,-3.3124,-3.3124,-3.3124,-3.3124,-3.3124,-3.3124,-3.3124,-3.3124,-3.3124,-3.3124,-3.3124,-2.1627,-2.1739,-2.2203,-2.3215,-2.3407,-2.3724,-2.4758,-2.4648,-2.455,-2.4845,-2.4648,-2.455,-2.4894,-2.5781,0.0,-2.6822,-2.7119,-2.7309,-2.7309,-2.7309,-2.7309,-2.7309,-2.7309,-2.7309,-2.7309,-2.7019,0.0,-2.6615,-2.5834,-2.5471,-2.5471,-2.5171,-2.5347,-2.591,-2.5595,-2.5627,-2.5885,-2.6107,-2.6179,-2.6175,-2.6687,-2.6874,-2.6905,-2.7195,-2.7309,-2.7309,-2.7309,-2.7309,-2.7309,-2.7309,-2.7309,-2.7309,-2.7309,-2.7309,-2.7309,-2.7309,-2.7309,-2.7309,-2.7309,-2.7309,-2.7309,-2.7309,-2.7309,-2.7441,-2.8034,-2.8392,-2.8507,-2.8319,-2.7931,-2.75,-2.7352,-2.7205,-2.711,-2.711,-2.6823,-2.6591,-2.6493,0.0,-2.5438,0.0,0.0,0.0,0.0,-2.5674,-2.5927,0.0,0.0,0.0,0.0,0.0,-2.9509,-3.007,-3.1325,-3.1951,-3.1951,-3.2709,-3.3124,-3.3124,-3.3124,-3.3124,-3.3081,-3.2711,-3.2754,-3.3081,-3.2711,-3.2754,-3.3124,-3.3124,-3.3124,-3.3124,-3.3124,-3.3124,-3.3124,-3.3124,-3.3124,-3.3124,-2.2038,-2.2362,-2.2846,-2.3488,-2.3628,-2.3877,-2.4648,-2.4115,-2.3868,-2.4648,-2.4066,-2.3926,-2.4648,-2.4796,-2.5099,-2.5849,0.0,0.0,-2.7109,-2.7109,-2.7156,-2.7214,-2.7214,-2.7251,-2.7309,-2.7309,-2.7092,-2.6667,-2.6231,-2.6024,-2.6024,-2.5937,-2.5993,-2.6024,-2.5937,-2.5993,-2.6055,-2.648,-2.6667,-2.6708,-2.7133,-2.7309,-2.7309,-2.7309,-2.7309,-2.7309,-2.7309,-2.7309,-2.7309,-2.7309,-2.7309,-2.7309,-2.7309,-2.7309,-2.7309,-2.7309,-2.7309,-2.7309,-2.7309,-2.7309,-2.7309,-2.7309,-2.7309,-2.7309,-2.7309,-2.7309,-2.7185,-2.675,-2.691,-2.7008,-2.6563,-2.6749,-2.694,-2.6905,-2.6213,-2.5622,-2.544,-2.4518,-2.402,0.0,0.0,0.0,-2.599,-2.6166,-2.6399,0.0,0.0,0.0,0.0,0.0,-2.8574,-2.9288,-3.0708,-3.1492,-3.1492,-3.2481,-3.2995,-3.2995,-3.2995,-3.2939,-3.2853,-3.1945,-3.2033,-3.2853,-3.1989,-3.212,-3.2982,-3.3068,-3.3124,-3.3124,-3.3124,-3.3124,-3.3124,-3.3124,-3.3124,-3.3124,0.0,0.0,-2.2644,-2.2846,-2.2846,-2.2937,-2.3138,-2.2987,-2.2946,-2.3138,-2.2987,-2.2946,-2.3129,-2.3628,-2.4075,-2.4273,-2.4992,-2.5479,-2.5479,-2.5479,-2.5732,-2.6342,-2.638,-2.6678,-2.7309,-2.7309,-2.7258,-2.7143,-2.7029,-2.6978,-2.6978,-2.6615,-2.6646,-2.6957,-2.6604,-2.6646,-2.6988,-2.7102,-2.7143,-2.7154,-2.7268,-2.7309,-2.7309,-2.7309,-2.7309,-2.7309,-2.7309,-2.7309,-2.7309,-2.7309,-2.7309,-2.7309,-2.7309,-2.7309,-2.7309,-2.7309,-2.7309,-2.7309,-2.7309,-2.7309,-2.7309,-2.7309,-2.7309,-2.7309,-2.7309,-2.7309,-2.7278,-2.7164,-2.691,-2.6624,-2.6151,-2.5832,-2.5529,-2.5168,-2.4819,-2.4512,-2.4334,-2.3895,-2.3592,0.0,-2.3606,-2.3866,-2.4425,-2.4591,-2.491,0.0,0.0,-2.6259,-2.6711,-2.7148,-2.7951,-2.9267,-3.0118,-3.0531,-3.0531,-3.1492,-3.1945,-3.1945,-3.1945,-3.1581,-3.089,-3.0621,-3.0666,-3.089,-3.1403,-3.1713,-3.1989,-3.2797,-3.3124,-3.3124,-3.3124,-3.3124,-3.3124,-3.3124,-3.3124,-3.3124,-2.2594,-2.2594,-2.2594,-2.2594,-2.2594,-2.2594,-2.2594,-2.2594,-2.2594,-2.2594,-2.2594,-2.2594,-2.2594,-2.2946,-2.3188,-2.3188,-2.4264,-2.4894,-2.4894,-2.4894,-2.5089,-2.5538,-2.5538,-2.5936,-2.6726,-2.6774,-2.6918,-2.7309,-2.7309,-2.7309,-2.7299,-2.705,-2.7071,-2.7299,-2.704,-2.7071,-2.7309,-2.7309,-2.7309,-2.7309,-2.7309,-2.7309,-2.7309,-2.7309,-2.7309,-2.7309,-2.7309,-2.7309,-2.7309,-2.7309,-2.7309,-2.7309,-2.7309,-2.7309,-2.7309,-2.7309,-2.7309,-2.7309,-2.7309,-2.7309,-2.7309,-2.7309,-2.7309,-2.7309,-2.7309,-2.7309,-2.7309,-2.7309,-2.6936,-2.6542,-2.6293,-2.5668,-2.5106,-2.4859,-2.4386,-2.4044,-2.4044,-2.3637,-2.3429,-2.3637,-2.3658,-2.3805,-2.4136,-2.4459,-2.4776,-2.5094,-2.5508,0.0,-2.6453,-2.6729,-2.7342,-2.8344,-2.9112,-2.9486,-2.9486,-3.0486,-3.0946,-3.0946,-3.0946,-3.0666,-3.017,-2.9715,-2.9761,-3.0215,-3.026,-3.0543,-3.0991,-3.1536,-3.1757,-3.1757,-3.1757,-3.2033,-3.2394,-3.2394,-3.2711,-3.3025,-2.2342,-2.2392,-2.2443,-2.2443,-2.2544,-2.2594,-2.2493,-2.2544,-2.2594,-2.2493,-2.2544,-2.2594,-2.2594,-2.2594,-2.2594,-2.2594,-2.3818,-2.455,-2.455,-2.455,-2.4599,-2.4698,-2.4698,-2.5099,-2.5897,-2.5945,-2.6235,-2.6965,-2.7061,-2.7119,-2.7109,-2.7251,-2.7309,-2.7309,-2.7309,-2.7309,-2.7309,-2.7309,-2.7309,-2.7309,-2.7309,-2.7309,-2.7309,-2.7309,-2.7309,-2.7309,-2.7309,-2.7309,-2.7309,-2.7309,-2.7309,-2.7309,-2.7309,-2.7309,-2.7309,-2.7309,-2.7309,-2.7309,-2.7309,-2.7309,-2.7309,-2.7309,-2.7309,-2.7309,-2.7309,-2.7309,-2.7309,-2.7309,-2.6988,-2.6698,-2.6625,-2.5947,-2.5323,-2.5117,-2.4469,-2.3981,-2.4022,0.0,-2.3503,-2.4169,-2.4158,-2.426,-2.4662,-2.5055,-2.5326,-2.5326,-2.573,-2.62,-2.6594,-2.6687,-2.6895,-2.7299,-2.8081,-2.8538,-2.8678,-2.9532,-2.9988,-2.9988,-2.9988,-2.9897,-2.9715,-2.8863,-2.8945,-2.9715,-2.8991,-2.9176,-2.9988,-3.0125,-3.0215,-3.0215,-3.0215,-3.0756,-3.1581,-3.1581,-3.2264,-3.2939,-2.1173,-2.1522,-2.1827,-2.1827,-2.2241,-2.2443,-2.1928,-2.2291,-2.2443,-2.1928,-2.2291,-2.2594,-2.2594,-2.2594,-2.2594,-2.2594,-2.2846,-2.2937,-2.2937,-2.2937,-2.3238,-2.3877,-2.3877,-2.4264,-2.5089,-2.5089,-2.5138,-2.5285,-2.5936,-2.6294,-2.6284,-2.6965,-2.7309,-2.7309,-2.7309,-2.7309,-2.7309,-2.7309,-2.7309,-2.7309,-2.7309,-2.7309,-2.7309,-2.7309,-2.7309,-2.7309,-2.7309,-2.7309,-2.7309,-2.7309,-2.7309,-2.7309,-2.7309,-2.7309,-2.7309,-2.7309,-2.7309,-2.7309,-2.7309,-2.7309,-2.7309,-2.7309,-2.7309,-2.7309,-2.7309,-2.7309,-2.7309,-2.7309,-2.7247,-2.7081,-2.6687,-2.6501,-2.5989,-2.4797,-2.4335,-2.3991,-2.3431,0.0,-2.3699,-2.4386,-2.4788,-2.5192,-2.5627,-2.574,-2.5771,-2.5771,-2.6252,-2.6542,-2.6615,-2.6988,-2.7226,-2.7309,-2.7441,-2.7904,-2.8678,-2.8863,-2.8945,-2.8945,-2.8945,-2.8538,-2.7762,-2.7584,-2.7573,-2.7809,-2.8398,-2.8771,-2.8991,-2.9852,-3.0215,-3.0215,-3.0215,-3.0756,-3.1581,-3.1581,-3.2264,-3.2939,-2.0925,-2.1121,-2.1377,-2.1623,-2.1928,-2.203,-2.1725,-2.1928,-2.1928,-2.1326,-2.153,-2.1784,-2.208,-2.2139,-2.2241,-2.2594,-2.2594,-2.2594,-2.2594,-2.2594,-2.2745,-2.3088,-2.3088,-2.3479,-2.4264,-2.4698,-2.4894,-2.4894,-2.5285,-2.5441,-2.5441,-2.5829,-2.6225,-2.663,-2.663,-2.687,-2.7309,-2.7309,-2.7309,-2.7309,-2.7309,-2.7309,-2.7309,-2.7309,-2.7309,-2.7309,-2.7309,-2.7309,-2.7309,-2.7309,-2.7309,-2.7309,-2.7309,-2.7309,-2.7309,-2.7309,-2.7309,-2.7309,-2.7309,-2.7309,-2.7309,-2.7309,-2.7309,-2.7309,-2.7309,-2.7309,-2.7309,-2.7309,-2.7309,-2.7247,-2.7029,-2.6781,-2.6279,-2.5409,-2.4979,-2.4615,-2.4322,-2.4376,-2.4615,-2.5181,-2.5451,-2.5658,-2.5854,-2.6148,-2.6293,-2.6293,-2.6729,-2.6988,-2.6988,-2.7195,-2.7309,-2.7309,-2.7309,-2.7489,-2.7951,-2.7951,-2.7951,-2.7951,-2.7951,-2.7715,-2.7309,-2.7309,-2.7309,-2.7299,-2.7762,-2.7951,-2.7987,-2.8445,-2.862,-2.862,-2.862,-2.9222,-3.0034,-3.0034,-3.0666,-3.1392,-2.0506,-2.0609,-2.0858,-2.1267,-2.142,-2.1471,-2.1369,-2.142,-2.1318,-2.0763,-2.0814,-2.107,-2.1479,-2.1522,-2.1674,-2.2139,-2.219,-2.2241,-2.2392,-2.2392,-2.2443,-2.2594,-2.2594,-2.2846,-2.3438,-2.4066,-2.4353,-2.4353,-2.455,-2.4599,-2.4648,-2.4796,-2.5246,-2.5849,-2.5994,-2.6438,-2.7013,-2.7214,-2.7309,-2.7309,-2.7309,-2.7309,-2.7309,-2.7309,-2.7309,-2.7309,-2.7309,-2.7309,-2.7309,-2.7309,-2.7309,-2.7309,-2.7309,-2.7309,-2.7309,-2.7309,-2.7309,-2.7309,-2.7309,-2.7309,-2.7309,-2.7309,-2.7309,-2.7309,-2.7309,-2.7309,-2.7309,-2.7309,-2.7309,-2.7309,-2.7309,-2.7019,-2.6594,-2.5968,0.0,-2.5303,-2.5199,-2.5189,-2.543,-2.5978,-2.6041,-2.6127,-2.6231,-2.6563,-2.6781,-2.6781,-2.7102,-2.7309,-2.7309,-2.7309,-2.7309,-2.7309,-2.7309,-2.7309,-2.7309,-2.7309,-2.7309,-2.7309,-2.7309,-2.7309,-2.7309,-2.7309,-2.7309,-2.7309,-2.7309,-2.7309,-2.7309,-2.7309,-2.7309,-2.7309,-2.7309,-2.7857,-2.8678,-2.8678,-2.936,-3.0079,-1.9435,-1.9835,-2.0181,-2.0233,-2.0652,-2.0814,-2.0285,-2.0652,-2.0763,-2.0241,-2.0609,-2.0925,-2.0968,-2.0968,-2.0968,-2.1019,-2.1027,-2.1224,-2.1725,-2.1776,-2.203,-2.2594,-2.2594,-2.2653,-2.2695,-2.2745,-2.2795,-2.2795,-2.3429,-2.3777,-2.3777,-2.455,-2.4943,-2.5041,-2.5752,-2.6139,-2.6245,-2.6965,-2.7309,-2.7309,-2.7309,-2.7309,-2.7309,-2.7309,-2.7309,-2.7309,-2.7309,-2.7309,-2.7309,-2.7309,-2.7309,-2.7309,-2.7309,-2.7309,-2.7309,-2.7309,-2.7309,-2.7309,-2.7309,-2.7309,-2.7309,-2.7309,-2.7309,-2.7309,-2.7309,-2.7309,-2.7309,-2.7309,-2.7309,-2.7309,-2.7309,-2.7278,-2.6957,-2.6065,0.0,0.0,-2.5241,-2.5189,-2.5554,-2.6459,-2.6563,-2.6739,-2.7164,-2.7237,-2.7258,-2.7258,-2.7289,-2.7309,-2.7309,-2.7309,-2.7309,-2.7309,-2.7309,-2.7309,-2.7309,-2.7309,-2.7309,-2.7309,-2.7309,-2.7309,-2.7309,-2.7309,-2.7309,-2.7309,-2.7309,-2.7309,-2.7309,-2.7309,-2.7309,-2.7309,-2.7309,-2.7857,-2.8678,-2.8678,-2.936,-3.0079,-1.9279,-1.948,-1.9732,-2.0034,-2.0292,-2.0344,-2.013,-2.0292,-2.0189,-1.968,-1.9783,-2.0042,-2.0344,-2.0395,-2.0557,-2.0865,-2.0925,-2.0976,-2.1173,-2.1224,-2.1632,-2.2544,-2.2594,-2.2594,-2.2594,-2.2594,-2.2594,-2.2594,-2.2896,-2.3038,-2.3038,-2.3329,-2.3719,-2.4165,-2.447,-2.4903,-2.5392,-2.5684,-2.5829,-2.5877,-2.6332,-2.6582,-2.663,-2.7109,-2.7309,-2.7309,-2.7309,-2.7309,-2.7309,-2.7309,-2.7309,-2.7309,-2.7309,-2.7309,-2.7309,-2.7309,-2.7309,-2.7309,-2.7309,-2.7309,-2.7309,-2.7309,-2.7309,-2.7309,-2.7309,-2.7309,-2.7309,-2.7309,-2.7309,-2.7309,-2.7309,-2.7309,-2.7102,-2.6459,0.0,-2.6579,-2.6123,-2.631,-2.661,-2.7009,-2.704,-2.7112,-2.7289,-2.7309,-2.7309,-2.7309,-2.7309,-2.7309,-2.7309,-2.7309,-2.7309,-2.7309,-2.7309,-2.7309,-2.7309,-2.7309,-2.7309,-2.7309,-2.7309,-2.7309,-2.7309,-2.7309,-2.7309,-2.7309,-2.7309,-2.7309,-2.7309,-2.7309,-2.7309,-2.7309,-2.7309,-2.7536,-2.7809,-2.7809,-2.8081,-2.8351,-1.9279,-1.9279,-1.9428,-1.9783,-1.9835,-1.9835,-1.9835,-1.9835,-1.9732,-1.9331,-1.9279,-1.9428,-1.9835,-1.9835,-1.999,-2.0351,-2.0411,-2.0454,-2.066,-2.0968,-2.1428,-2.2038,-2.2089,-2.2139,-2.2291,-2.2342,-2.2392,-2.2594,-2.2594,-2.2594,-2.2594,-2.2594,-2.2896,-2.3379,-2.3587,-2.4016,-2.455,-2.4796,-2.4894,-2.4943,-2.5489,-2.5742,-2.579,-2.6322,-2.6716,-2.6918,-2.6918,-2.7071,-2.7309,-2.7309,-2.7309,-2.7309,-2.7309,-2.7309,-2.7309,-2.7309,-2.7309,-2.7309,-2.7309,-2.7309,-2.7309,-2.7309,-2.7309,-2.7309,-2.7309,-2.7309,-2.7309,-2.7309,-2.7309,-2.7309,-2.7309,-2.7309,-2.7195,-2.6884,-2.7102,-2.7195,-2.6884,-2.7102,-2.7309,-2.7309,-2.7309,-2.7309,-2.7309,-2.7309,-2.7309,-2.7309,-2.7309,-2.7309,-2.7309,-2.7309,-2.7309,-2.7309,-2.7309,-2.7309,-2.7309,-2.7309,-2.7309,-2.7309,-2.7309,-2.7309,-2.7309,-2.7309,-2.7309,-2.7309,-2.7309,-2.7309,-2.7309,-2.7309,-2.7309,-2.7309,-2.7309,-2.7309,-2.7309,-2.7309,-2.7309,-2.7309,-1.9279,-1.9279,-1.9279,-1.9279,-1.9279,-1.9279,-1.9279,-1.9279,-1.9279,-1.9279,-1.9279,-1.9279,-1.9279,-1.9279,-1.9279,-1.9279,-1.9279,-1.9532,-2.0078,-2.1105,-2.142,-2.0917,-2.0925,-2.1173,-2.1674,-2.1725,-2.1979,-2.2603,-2.2603,-2.2603,-2.2603,-2.2603,-2.2603,-2.2594,-2.3338,-2.3678,-2.3728,-2.455,-2.4894,-2.4894,-2.4894,-2.4894,-2.4894,-2.4894,-2.5392,-2.6091,-2.6091,-2.663,-2.7309,-2.7309,-2.7309,-2.7309,-2.7309,-2.7309,-2.7309,-2.7309,-2.7309,-2.7309,-2.7309,-2.7309,-2.7309,-2.7309,-2.7309,-2.7309,-2.7309,-2.7309,-2.7309,-2.7309,-2.7309,-2.7309,-2.7309,-2.7309,-2.7309,-2.7309,-2.7309,-2.7309,-2.7309,-2.7309,-2.7309,-2.7309,-2.7309,-2.7309,-2.7309,-2.7309,-2.7309,-2.7309,-2.7309,-2.7309,-2.7309,-2.7309,-2.7309,-2.7309,-2.7309,-2.7309,-2.7309,-2.7309,-2.7309,-2.7309,-2.7309,-2.7309,-2.7309,-2.7309,-2.7309,-2.7309,-2.7309,-2.7309,-2.7309,-2.7309,-2.7309,-2.7309,-2.7309,-2.7309,-2.7309,-2.7309,-2.7309,-2.7309,-1.9279,-1.9279,-1.9279,-1.9279,-1.9279,-1.9279,-1.9279,-1.9279,-1.9279,-1.9279,-1.9279,-1.9279,-1.9279,-1.9279,-1.9279,-1.9279,-1.9279,-1.9383,-1.9532,-1.9835,-1.9939,-1.9791,-2.0865,-2.1522,-2.1725,-2.1318,-2.1224,-2.1428,-2.1428,-2.1428,-2.1428,-2.1428,-2.1428,-2.1428,-2.1623,-2.1928,-2.2325,-2.2568,-2.292,-2.3329,-2.3868,-2.4066,-2.4115,-2.4698,-2.5041,-2.5246,-2.5246,-2.579,-2.6486,-2.6486,-2.6822,-2.7309,-2.7309,-2.7309,-2.7309,-2.7309,-2.7309,-2.7309,-2.7309,-2.7309,-2.7309,-2.7309,-2.7309,-2.7309,-2.7309,-2.7309,-2.7309,-2.7309,-2.7309,-2.7309,-2.7309,-2.7309,-2.7309,-2.7309,-2.7309,-2.7309,-2.7309,-2.7309,-2.7309,-2.7309,-2.7309,-2.7309,-2.7309,-2.7309,-2.7309,-2.7309,-2.7309,-2.7309,-2.7309,-2.7309,-2.7309,-2.7309,-2.7309,-2.7309,-2.7309,-2.7309,-2.7309,-2.7309,-2.7309,-2.7309,-2.7309,-2.7309,-2.7309,-2.7309,-2.7309,-2.7309,-2.7309,-2.7309,-2.7309,-2.7309,-2.7309,-2.7309,-2.7309,-2.7309,-2.7309,-2.7309,-1.9279,-1.9279,-1.9279,-1.9279,-1.9279,-1.9279,-1.9279,-1.9279,-1.9279,-1.9279,-1.9279,-1.9279,-1.9279,-1.9279,-1.9279,-1.9279,-1.9279,-1.9279,-1.9279,-1.948,-1.9628,-1.9628,-2.055,-2.1062,-2.1062,-2.0755,-2.0712,-2.0925,-2.0925,-2.0925,-2.0925,-2.0925,-2.0925,-2.0925,-2.0925,-2.107,-2.1369,-2.1369,-2.1573,-2.1987,-2.2426,-2.2577,-2.2627,-2.3111,-2.3502,-2.3791,-2.3791,-2.4295,-2.5041,-2.5246,-2.5781,-2.6466,-2.7109,-2.7071,-2.687,-2.7214,-2.7309,-2.7309,-2.7309,-2.7309,-2.7309,-2.7309,-2.7309,-2.7309,-2.7309,-2.7309,-2.7309,-2.7309,-2.7309,-2.7309,-2.7309,-2.7309,-2.7309,-2.7309,-2.7309,-2.7309,-2.7309,-2.7309,-2.7309,-2.7309,-2.7309,-2.7309,-2.7309,-2.7309,-2.7309,-2.7309,-2.7309,-2.7309,-2.7309,-2.7309,-2.7309,-2.7309,-2.7309,-2.7309,-2.7309,-2.7309,-2.7309,-2.7309,-2.7309,-2.7309,-2.7309,-2.7309,-2.7309,-2.7309,-2.7309,-2.7309,-2.7309,-2.7309,-2.7309,-2.7309,-2.7309,-2.7309,-2.7309,-2.7309,-2.7309,-2.7309,-1.9272,-1.9279,-1.9279,-1.9279,-1.9279,-1.9279,-1.9279,-1.9279,-1.9279,-1.9279,-1.9279,-1.9279,-1.9279,-1.9279,-1.9279,-1.9279,-1.9279,-1.9279,-1.9279,-1.9783,-2.0034,-2.0034,-2.0034,-2.0034,-2.0034,-2.0034,-2.0292,-2.0771,-2.0771,-2.0771,-2.0771,-2.0771,-2.0771,-2.0771,-2.0771,-2.0763,-2.0822,-2.0822,-2.0873,-2.0925,-2.0925,-2.0925,-2.0925,-2.0925,-2.1353,-2.1988,-2.1988,-2.2492,-2.3285,-2.384,-2.4335,-2.5031,-2.661,-2.6572,-2.6139,-2.6965,-2.7214,-2.7214,-2.7214,-2.7214,-2.7214,-2.7214,-2.7214,-2.7262,-2.7309,-2.7309,-2.7309,-2.7309,-2.7309,-2.7309,-2.7309,-2.7309,-2.7309,-2.7309,-2.7309,-2.7309,-2.7309,-2.7309,-2.7309,-2.7309,-2.7309,-2.7309,-2.7309,-2.7309,-2.7309,-2.7309,-2.7309,-2.7309,-2.7309,-2.7262,-2.7262,-2.7262,-2.7262,-2.7214,-2.7214,-2.7214,-2.7262,-2.7309,-2.7309,-2.7309,-2.7309,-2.7309,-2.7309,-2.7309,-2.7309,-2.7309,-2.7309,-2.7309,-2.7309,-2.7309,-2.7309,-2.7309,-2.7309,-2.7309,-2.7309,-2.7309,-1.9168,-1.9279,-1.9279,-1.9279,-1.9279,-1.9279,-1.9279,-1.9279,-1.9279,-1.9279,-1.9279,-1.9279,-1.9279,-1.9279,-1.9279,-1.9279,-1.9279,-1.9279,-1.9279,-1.9428,-1.948,-1.948,-1.948,-1.948,-1.948,-1.948,-1.9532,-1.9635,-1.9635,-1.9635,-1.9635,-1.9635,-1.9635,-1.9635,-1.9635,-1.9887,-2.0285,-2.0285,-2.0498,-2.0925,-2.0925,-2.0925,-2.0925,-2.0925,-2.1019,-2.1165,-2.1165,-2.1658,-2.2484,-2.3235,-2.3534,-2.384,-2.5031,-2.5285,-2.5343,-2.639,-2.6688,-2.6688,-2.6688,-2.6688,-2.6688,-2.6688,-2.6688,-2.6784,-2.7214,-2.7309,-2.7309,-2.7309,-2.7309,-2.7309,-2.7309,-2.7309,-2.7309,-2.7309,-2.7309,-2.7309,-2.7309,-2.7309,-2.7309,-2.7309,-2.7309,-2.7309,-2.7309,-2.7309,-2.7309,-2.7309,-2.7309,-2.7309,-2.7309,-2.7081,-2.6986,-2.6986,-2.6794,-2.6688,-2.6688,-2.6688,-2.688,-2.7309,-2.7309,-2.7309,-2.7309,-2.7309,-2.7309,-2.7309,-2.7309,-2.7309,-2.7309,-2.7309,-2.7309,-2.7309,-2.7309,-2.7309,-2.7309,-2.7309,-2.7309,-2.7309,-1.795,-1.837,-1.8684,-1.8684,-1.9011,-1.9279,-1.9279,-1.9279,-1.9279,-1.9279,-1.9279,-1.9279,-1.9279,-1.9279,-1.9279,-1.9279,-1.9279,-1.9279,-1.9279,-1.9279,-1.9279,-1.9279,-1.9279,-1.9279,-1.9279,-1.9279,-1.9279,-1.9279,-1.9279,-1.9279,-1.9279,-1.9279,-1.9279,-1.9279,-1.9279,-1.948,-1.9732,-1.9732,-1.9887,-2.0153,-2.0153,-2.0153,-2.0153,-2.0153,-2.0153,-2.0153,-2.0153,-2.0593,-2.1285,-2.2089,-2.2249,-2.2409,-2.3741,-2.389,-2.384,-2.5294,-2.5742,-2.5849,-2.6352,-2.6496,-2.6496,-2.6496,-2.6602,-2.6747,-2.688,-2.6928,-2.6928,-2.6928,-2.7034,-2.7129,-2.7129,-2.7129,-2.7129,-2.7129,-2.6976,-2.6976,-2.7081,-2.7129,-2.7177,-2.7262,-2.7309,-2.7309,-2.7309,-2.7309,-2.7309,-2.7309,-2.7167,-2.7129,-2.7129,-2.6996,-2.69,-2.69,-2.689,-2.688,-2.688,-2.6747,-2.6842,-2.7129,-2.6976,-2.6986,-2.7129,-2.7129,-2.7167,-2.7309,-2.7309,-2.7309,-2.7309,-2.7309,-2.7309,-2.7309,-2.7309,-2.7309,-2.7309,-2.7309,-2.7309,-2.7309,-1.6677,-1.7252,-1.7779,-1.7779,-1.837,-1.8848,-1.8848,-1.8848,-1.89,-1.9063,-1.9063,-1.9116,-1.9279,-1.9279,-1.9279,-1.9279,-1.9279,-1.9279,-1.9279,-1.9279,-1.9279,-1.9279,-1.9279,-1.9279,-1.9279,-1.9279,-1.9279,-1.9279,-1.9279,-1.9279,-1.9279,-1.9279,-1.9279,-1.9279,-1.9279,-1.9279,-1.9279,-1.9279,-1.9279,-1.9279,-1.9279,-1.9279,-1.9279,-1.9279,-1.9279,-1.9279,-1.9279,-1.9583,-2.0086,-2.0731,-2.0798,-2.0909,-2.2391,-2.2433,-2.224,-2.3989,-2.4492,-2.4737,-2.579,-2.61,-2.6149,-2.6304,-2.6506,-2.6602,-2.6197,-2.639,-2.664,-2.664,-2.6794,-2.6948,-2.6948,-2.6948,-2.6948,-2.6948,-2.6794,-2.6699,-2.69,-2.69,-2.6948,-2.7119,-2.7167,-2.7167,-2.7167,-2.7167,-2.7167,-2.7167,-2.6938,-2.6853,-2.6853,-2.6805,-2.6747,-2.6747,-2.6928,-2.7023,-2.7023,-2.6794,-2.6709,-2.6709,-2.6506,-2.6544,-2.6853,-2.6853,-2.6986,-2.7214,-2.7214,-2.7262,-2.7309,-2.7309,-2.7309,-2.7309,-2.7309,-2.7309,-2.7309,-2.7309,-2.7309,-2.7309,-1.6571,-1.6783,-1.6889,-1.6889,-1.6995,-1.7047,-1.7047,-1.7047,-1.7312,-1.8094,-1.8199,-1.8468,-1.922,-1.9279,-1.9279,-1.9279,-1.9279,-1.9279,-1.9279,-1.9279,-1.9279,-1.9279,-1.9279,-1.9279,-1.9279,-1.9279,-1.9279,-1.9279,-1.9279,-1.9279,-1.9279,-1.9279,-1.9279,-1.9279,-1.9279,-1.9279,-1.9279,-1.9279,-1.9279,-1.9279,-1.9279,-1.9279,-1.9279,-1.9279,-1.9279,-1.9279,-1.9279,-1.9331,-1.9428,-1.9524,-1.9532,-1.9732,-2.0885,-2.114,-2.1285,-2.2484,-2.2835,-2.3035,-2.4137,-2.4442,-2.4648,-2.5577,-2.5839,-2.5625,-2.4648,-2.5877,-2.7214,-2.7214,-2.7214,-2.7262,-2.7262,-2.7262,-2.7262,-2.7262,-2.7214,-2.7119,-2.6948,-2.69,-2.6853,-2.664,-2.6592,-2.6592,-2.6592,-2.6592,-2.6592,-2.6592,-2.6544,-2.6544,-2.6544,-2.6342,-2.6197,-2.6197,-2.6014,-2.5927,-2.5927,-2.5878,-2.5888,-2.5878,-2.6062,-2.6294,-2.6544,-2.6544,-2.6699,-2.6948,-2.6948,-2.7081,-2.7309,-2.7309,-2.7309,-2.7309,-2.7309,-2.7309,-2.7309,-2.7309,-2.7309,-2.7309,-1.5256,-1.5725,-1.6039,-1.6039,-1.6411,-1.6677,-1.6677,-1.6677,-1.6836,-1.7199,-1.7726,-1.8146,-1.8527,-1.9004,-1.9279,-1.9279,-1.9279,-1.9279,-1.9279,-1.9279,-1.9279,-1.9279,-1.9279,-1.9279,-1.9279,-1.9279,-1.9279,-1.9279,-1.9279,-1.9279,-1.9279,-1.9279,-1.9279,-1.9279,-1.9279,-1.9279,-1.9279,-1.9279,-1.9279,-1.9279,-1.9279,-1.9279,-1.9279,-1.9279,-1.9279,-1.9279,-1.9279,-1.9279,-1.9279,-1.9279,-1.9279,-1.9376,-1.9879,-2.0034,-2.0233,-2.1285,-2.1591,-2.1836,-2.2885,-2.3194,-2.3343,-2.38,-2.4007,-2.4007,-2.3543,-2.4285,-2.5168,-2.547,-2.6129,-2.663,-2.663,-2.663,-2.663,-2.663,-2.6496,-2.64,-2.6448,-2.6448,-2.6448,-2.6496,-2.6496,-2.6496,-2.6496,-2.6496,-2.6496,-2.6496,-2.6352,-2.6294,-2.6294,-2.6149,-2.61,-2.61,-2.611,-2.6169,-2.6169,-2.6014,-2.5917,-2.5917,-2.5868,-2.611,-2.6496,-2.6651,-2.689,-2.7129,-2.7129,-2.7167,-2.7309,-2.7309,-2.7309,-2.7309,-2.7309,-2.7309,-2.7309,-2.7309,-2.7309,-2.7309]}]]